Time,TemperatureF,DewpointF,PressureIn,WindDirection,WindDirectionDegrees,WindSpeedMPH,WindSpeedGustMPH,Humidity,HourlyPrecipIn,Conditions,Clouds,dailyrainin,SolarRadiationWatts/m^2,SoftwareType,DateUTC
2013-04-14 00:00:00,39.5,38.2,-100.00,North,-999,-999.0,-999.0,95,-99.99,,,-99.99,1.0,HOBO +U30 +Weather +,2013-04-14 04:00:00,
2013-04-14 00:01:00,39.5,38.2,-100.00,North,-999,-999.0,-999.0,95,-99.99,,,-99.99,1.0,HOBO +U30 +Weather +,2013-04-14 04:01:00,
2013-04-14 00:02:00,39.5,38.3,-100.00,North,-999,-999.0,-999.0,95,-99.99,,,-99.99,1.0,HOBO +U30 +Weather +,2013-04-14 04:02:00,
2013-04-14 00:03:00,39.5,38.2,-100.00,North,-999,-999.0,-999.0,95,-99.99,,,-99.99,1.0,HOBO +U30 +Weather +,2013-04-14 04:03:00,
2013-04-14 00:04:00,39.4,38.2,-100.00,North,-999,-999.0,-999.0,95,-99.99,,,-99.99,1.0,HOBO +U30 +Weather +,2013-04-14 04:04:00,
2013-04-14 00:05:00,39.4,38.1,-100.00,North,-999,-999.0,-999.0,95,-99.99,,,-99.99,1.0,HOBO +U30 +Weather +,2013-04-14 04:05:00,
2013-04-14 00:06:00,39.3,38.0,-100.00,North,-999,-999.0,-999.0,95,-99.99,,,-99.99,1.0,HOBO +U30 +Weather +,2013-04-14 04:06:00,
2013-04-14 00:07:00,39.2,38.0,-100.00,North,-999,-999.0,-999.0,95,-99.99,,,-99.99,1.0,HOBO +U30 +Weather +,2013-04-14 04:07:00,
2013-04-14 00:08:00,39.2,38.0,-100.00,North,-999,-999.0,-999.0,95,-99.99,,,-99.99,1.0,HOBO +U30 +Weather +,2013-04-14 04:08:00,
2013-04-14 00:09:00,39.2,38.0,-100.00,North,-999,-999.0,-999.0,95,-99.99,,,-99.99,1.0,HOBO +U30 +Weather +,2013-04-14 04:09:00,
2013-04-14 00:10:00,39.2,38.0,-100.00,North,-999,-999.0,-999.0,95,-99.99,,,-99.99,1.0,HOBO +U30 +Weather +,2013-04-14 04:10:00,
2013-04-14 00:11:00,39.1,37.9,-100.00,North,-999,-999.0,-999.0,95,-99.99,,,-99.99,1.0,HOBO +U30 +Weather +,2013-04-14 04:11:00,
2013-04-14 00:12:00,39.1,37.9,-100.00,North,-999,-999.0,-999.0,95,-99.99,,,-99.99,1.0,HOBO +U30 +Weather +,2013-04-14 04:12:00,
2013-04-14 00:13:00,39.0,37.8,-100.00,North,-999,-999.0,-999.0,95,-99.99,,,-99.99,1.0,HOBO +U30 +Weather +,2013-04-14 04:13:00,
2013-04-14 00:14:00,39.0,37.8,-100.00,North,-999,-999.0,-999.0,95,-99.99,,,-99.99,1.0,HOBO +U30 +Weather +,2013-04-14 04:14:00,
2013-04-14 00:15:00,38.9,37.7,-100.00,North,-999,-999.0,-999.0,95,-99.99,,,-99.99,1.0,HOBO +U30 +Weather +,2013-04-14 04:15:00,
2013-04-14 00:16:00,38.8,37.6,-100.00,North,-999,-999.0,-999.0,95,-99.99,,,-99.99,1.0,HOBO +U30 +Weather +,2013-04-14 04:16:00,
2013-04-14 00:17:00,38.7,37.5,-100.00,North,-999,-999.0,-999.0,95,-99.99,,,-99.99,1.0,HOBO +U30 +Weather +,2013-04-14 04:17:00,
2013-04-14 00:18:00,38.6,37.4,-100.00,North,-999,-999.0,-999.0,95,-99.99,,,-99.99,1.0,HOBO +U30 +Weather +,2013-04-14 04:18:00,
2013-04-14 00:19:00,38.6,37.3,-100.00,North,-999,-999.0,-999.0,95,-99.99,,,-99.99,1.0,HOBO +U30 +Weather +,2013-04-14 04:19:00,
2013-04-14 00:20:00,38.5,37.3,-100.00,North,-999,-999.0,-999.0,95,-99.99,,,-99.99,1.0,HOBO +U30 +Weather +,2013-04-14 04:20:00,
2013-04-14 00:21:00,38.5,37.3,-100.00,North,-999,-999.0,-999.0,95,-99.99,,,-99.99,1.0,HOBO +U30 +Weather +,2013-04-14 04:21:00,
2013-04-14 00:22:00,38.4,37.2,-100.00,North,-999,-999.0,-999.0,95,-99.99,,,-99.99,1.0,HOBO +U30 +Weather +,2013-04-14 04:22:00,
2013-04-14 00:23:00,38.3,37.1,-100.00,North,-999,-999.0,-999.0,95,-99.99,,,-99.99,1.0,HOBO +U30 +Weather +,2013-04-14 04:23:00,
2013-04-14 00:24:00,38.2,37.0,-100.00,North,-999,-999.0,-999.0,95,-99.99,,,-99.99,1.0,HOBO +U30 +Weather +,2013-04-14 04:24:00,
2013-04-14 00:25:00,38.0,36.8,-100.00,North,-999,-999.0,-999.0,95,-99.99,,,-99.99,1.0,HOBO +U30 +Weather +,2013-04-14 04:25:00,
2013-04-14 00:26:00,37.9,36.7,-100.00,North,-999,-999.0,-999.0,95,-99.99,,,-99.99,1.0,HOBO +U30 +Weather +,2013-04-14 04:26:00,
2013-04-14 00:27:00,37.8,36.7,-100.00,North,-999,-999.0,-999.0,95,-99.99,,,-99.99,1.0,HOBO +U30 +Weather +,2013-04-14 04:27:00,
2013-04-14 00:28:00,37.7,36.6,-100.00,North,-999,-999.0,-999.0,95,-99.99,,,-99.99,1.0,HOBO +U30 +Weather +,2013-04-14 04:28:00,
2013-04-14 00:29:00,37.7,36.6,-100.00,North,-999,-999.0,-999.0,95,-99.99,,,-99.99,1.0,HOBO +U30 +Weather +,2013-04-14 04:29:00,
2013-04-14 00:30:00,37.7,36.5,-100.00,North,-999,-999.0,-999.0,95,-99.99,,,-99.99,1.0,HOBO +U30 +Weather +,2013-04-14 04:30:00,
2013-04-14 00:31:00,37.6,36.3,-100.00,North,-999,-999.0,-999.0,95,-99.99,,,-99.99,1.0,HOBO +U30 +Weather +,2013-04-14 04:31:00,
2013-04-14 00:32:00,37.5,36.2,-100.00,North,-999,-999.0,-999.0,95,-99.99,,,-99.99,1.0,HOBO +U30 +Weather +,2013-04-14 04:32:00,
2013-04-14 00:33:00,37.4,36.2,-100.00,North,-999,-999.0,-999.0,95,-99.99,,,-99.99,1.0,HOBO +U30 +Weather +,2013-04-14 04:33:00,
2013-04-14 00:34:00,37.4,36.2,-100.00,North,-999,-999.0,-999.0,95,-99.99,,,-99.99,1.0,HOBO +U30 +Weather +,2013-04-14 04:34:00,
2013-04-14 00:35:00,37.5,36.4,-100.00,North,-999,-999.0,-999.0,95,-99.99,,,-99.99,1.0,HOBO +U30 +Weather +,2013-04-14 04:35:00,
2013-04-14 00:36:00,37.5,36.4,-100.00,North,-999,-999.0,-999.0,95,-99.99,,,-99.99,1.0,HOBO +U30 +Weather +,2013-04-14 04:36:00,
2013-04-14 00:37:00,37.5,36.3,-100.00,North,-999,-999.0,-999.0,95,-99.99,,,-99.99,1.0,HOBO +U30 +Weather +,2013-04-14 04:37:00,
2013-04-14 00:38:00,37.4,36.2,-100.00,North,-999,-999.0,-999.0,95,-99.99,,,-99.99,1.0,HOBO +U30 +Weather +,2013-04-14 04:38:00,
2013-04-14 00:39:00,37.3,36.2,-100.00,North,-999,-999.0,-999.0,95,-99.99,,,-99.99,1.0,HOBO +U30 +Weather +,2013-04-14 04:39:00,
2013-04-14 00:40:00,37.2,36.1,-100.00,North,-999,-999.0,-999.0,95,-99.99,,,-99.99,1.0,HOBO +U30 +Weather +,2013-04-14 04:40:00,
2013-04-14 00:41:00,37.1,36.0,-100.00,North,-999,-999.0,-999.0,95,-99.99,,,-99.99,1.0,HOBO +U30 +Weather +,2013-04-14 04:41:00,
2013-04-14 00:42:00,37.0,35.9,-100.00,North,-999,-999.0,-999.0,95,-99.99,,,-99.99,1.0,HOBO +U30 +Weather +,2013-04-14 04:42:00,
2013-04-14 00:43:00,37.0,35.9,-100.00,North,-999,-999.0,-999.0,95,-99.99,,,-99.99,1.0,HOBO +U30 +Weather +,2013-04-14 04:43:00,
2013-04-14 00:44:00,37.1,36.0,-100.00,North,-999,-999.0,-999.0,95,-99.99,,,-99.99,1.0,HOBO +U30 +Weather +,2013-04-14 04:44:00,
2013-04-14 00:45:00,37.1,36.0,-100.00,North,-999,-999.0,-999.0,95,-99.99,,,-99.99,1.0,HOBO +U30 +Weather +,2013-04-14 04:45:00,
2013-04-14 00:46:00,37.1,36.0,-100.00,North,-999,-999.0,-999.0,95,-99.99,,,-99.99,1.0,HOBO +U30 +Weather +,2013-04-14 04:46:00,
2013-04-14 00:47:00,37.0,35.9,-100.00,North,-999,-999.0,-999.0,95,-99.99,,,-99.99,1.0,HOBO +U30 +Weather +,2013-04-14 04:47:00,
2013-04-14 00:48:00,36.9,35.8,-100.00,North,-999,-999.0,-999.0,95,-99.99,,,-99.99,1.0,HOBO +U30 +Weather +,2013-04-14 04:48:00,
2013-04-14 00:49:00,36.8,35.7,-100.00,North,-999,-999.0,-999.0,95,-99.99,,,-99.99,1.0,HOBO +U30 +Weather +,2013-04-14 04:49:00,
2013-04-14 00:50:00,36.6,35.5,-100.00,North,-999,-999.0,-999.0,95,-99.99,,,-99.99,1.0,HOBO +U30 +Weather +,2013-04-14 04:50:00,
2013-04-14 00:51:00,36.5,35.3,-100.00,North,-999,-999.0,-999.0,95,-99.99,,,-99.99,1.0,HOBO +U30 +Weather +,2013-04-14 04:51:00,
2013-04-14 00:52:00,36.4,35.2,-100.00,North,-999,-999.0,-999.0,95,-99.99,,,-99.99,1.0,HOBO +U30 +Weather +,2013-04-14 04:52:00,
2013-04-14 00:53:00,36.3,35.2,-100.00,North,-999,-999.0,-999.0,95,-99.99,,,-99.99,1.0,HOBO +U30 +Weather +,2013-04-14 04:53:00,
2013-04-14 00:54:00,36.3,35.1,-100.00,North,-999,-999.0,-999.0,95,-99.99,,,-99.99,1.0,HOBO +U30 +Weather +,2013-04-14 04:54:00,
2013-04-14 00:55:00,36.2,35.0,-100.00,North,-999,-999.0,-999.0,95,-99.99,,,-99.99,1.0,HOBO +U30 +Weather +,2013-04-14 04:55:00,
2013-04-14 00:56:00,36.2,35.0,-100.00,North,-999,-999.0,-999.0,95,-99.99,,,-99.99,1.0,HOBO +U30 +Weather +,2013-04-14 04:56:00,
2013-04-14 00:57:00,36.3,35.2,-100.00,North,-999,-999.0,-999.0,95,-99.99,,,-99.99,1.0,HOBO +U30 +Weather +,2013-04-14 04:57:00,
2013-04-14 00:58:00,36.5,35.4,-100.00,North,-999,-999.0,-999.0,95,-99.99,,,-99.99,1.0,HOBO +U30 +Weather +,2013-04-14 04:58:00,
2013-04-14 00:59:00,36.6,35.6,-100.00,North,-999,-999.0,-999.0,96,-99.99,,,-99.99,1.0,HOBO +U30 +Weather +,2013-04-14 04:59:00,
2013-04-14 01:00:00,36.9,35.9,-100.00,North,-999,-999.0,-999.0,96,-99.99,,,-99.99,1.0,HOBO +U30 +Weather +,2013-04-14 05:00:00,
2013-04-14 01:01:00,37.1,36.2,-100.00,North,-999,-999.0,-999.0,96,-99.99,,,-99.99,1.0,HOBO +U30 +Weather +,2013-04-14 05:01:00,
2013-04-14 01:02:00,37.3,36.3,-100.00,North,-999,-999.0,-999.0,96,-99.99,,,-99.99,1.0,HOBO +U30 +Weather +,2013-04-14 05:02:00,
2013-04-14 01:03:00,37.4,36.4,-100.00,North,-999,-999.0,-999.0,96,-99.99,,,-99.99,1.0,HOBO +U30 +Weather +,2013-04-14 05:03:00,
2013-04-14 01:04:00,37.4,36.4,-100.00,North,-999,-999.0,-999.0,96,-99.99,,,-99.99,1.0,HOBO +U30 +Weather +,2013-04-14 05:04:00,
2013-04-14 01:05:00,37.4,36.4,-100.00,North,-999,-999.0,-999.0,96,-99.99,,,-99.99,1.0,HOBO +U30 +Weather +,2013-04-14 05:05:00,
2013-04-14 01:06:00,37.5,36.5,-100.00,North,-999,-999.0,-999.0,96,-99.99,,,-99.99,1.0,HOBO +U30 +Weather +,2013-04-14 05:06:00,
2013-04-14 01:07:00,37.5,36.5,-100.00,North,-999,-999.0,-999.0,96,-99.99,,,-99.99,1.0,HOBO +U30 +Weather +,2013-04-14 05:07:00,
2013-04-14 01:08:00,37.4,36.4,-100.00,North,-999,-999.0,-999.0,96,-99.99,,,-99.99,1.0,HOBO +U30 +Weather +,2013-04-14 05:08:00,
2013-04-14 01:09:00,37.3,36.3,-100.00,North,-999,-999.0,-999.0,96,-99.99,,,-99.99,1.0,HOBO +U30 +Weather +,2013-04-14 05:09:00,
2013-04-14 01:10:00,37.1,36.1,-100.00,North,-999,-999.0,-999.0,95,-99.99,,,-99.99,1.0,HOBO +U30 +Weather +,2013-04-14 05:10:00,
2013-04-14 01:11:00,37.0,35.9,-100.00,North,-999,-999.0,-999.0,95,-99.99,,,-99.99,1.0,HOBO +U30 +Weather +,2013-04-14 05:11:00,
2013-04-14 01:12:00,36.8,35.7,-100.00,North,-999,-999.0,-999.0,95,-99.99,,,-99.99,1.0,HOBO +U30 +Weather +,2013-04-14 05:12:00,
2013-04-14 01:13:00,36.7,35.6,-100.00,North,-999,-999.0,-999.0,95,-99.99,,,-99.99,1.0,HOBO +U30 +Weather +,2013-04-14 05:13:00,
2013-04-14 01:14:00,36.6,35.5,-100.00,North,-999,-999.0,-999.0,95,-99.99,,,-99.99,1.0,HOBO +U30 +Weather +,2013-04-14 05:14:00,
2013-04-14 01:15:00,36.6,35.5,-100.00,North,-999,-999.0,-999.0,95,-99.99,,,-99.99,1.0,HOBO +U30 +Weather +,2013-04-14 05:15:00,
2013-04-14 01:16:00,36.5,35.4,-100.00,North,-999,-999.0,-999.0,95,-99.99,,,-99.99,1.0,HOBO +U30 +Weather +,2013-04-14 05:16:00,
2013-04-14 01:17:00,36.5,35.4,-100.00,North,-999,-999.0,-999.0,95,-99.99,,,-99.99,1.0,HOBO +U30 +Weather +,2013-04-14 05:17:00,
2013-04-14 01:18:00,36.6,35.6,-100.00,North,-999,-999.0,-999.0,96,-99.99,,,-99.99,1.0,HOBO +U30 +Weather +,2013-04-14 05:18:00,
2013-04-14 01:19:00,36.8,35.7,-100.00,North,-999,-999.0,-999.0,96,-99.99,,,-99.99,1.0,HOBO +U30 +Weather +,2013-04-14 05:19:00,
2013-04-14 01:20:00,36.8,35.7,-100.00,North,-999,-999.0,-999.0,96,-99.99,,,-99.99,1.0,HOBO +U30 +Weather +,2013-04-14 05:20:00,
2013-04-14 01:21:00,36.7,35.7,-100.00,North,-999,-999.0,-999.0,96,-99.99,,,-99.99,1.0,HOBO +U30 +Weather +,2013-04-14 05:21:00,
2013-04-14 01:22:00,36.8,35.7,-100.00,North,-999,-999.0,-999.0,96,-99.99,,,-99.99,1.0,HOBO +U30 +Weather +,2013-04-14 05:22:00,
2013-04-14 01:23:00,36.8,35.8,-100.00,North,-999,-999.0,-999.0,96,-99.99,,,-99.99,1.0,HOBO +U30 +Weather +,2013-04-14 05:23:00,
2013-04-14 01:24:00,36.8,35.8,-100.00,North,-999,-999.0,-999.0,96,-99.99,,,-99.99,1.0,HOBO +U30 +Weather +,2013-04-14 05:24:00,
2013-04-14 01:25:00,36.9,35.9,-100.00,North,-999,-999.0,-999.0,96,-99.99,,,-99.99,1.0,HOBO +U30 +Weather +,2013-04-14 05:25:00,
2013-04-14 01:26:00,36.9,35.9,-100.00,North,-999,-999.0,-999.0,96,-99.99,,,-99.99,1.0,HOBO +U30 +Weather +,2013-04-14 05:26:00,
2013-04-14 01:27:00,37.0,36.0,-100.00,North,-999,-999.0,-999.0,96,-99.99,,,-99.99,1.0,HOBO +U30 +Weather +,2013-04-14 05:27:00,
2013-04-14 01:28:00,37.2,36.2,-100.00,North,-999,-999.0,-999.0,96,-99.99,,,-99.99,1.0,HOBO +U30 +Weather +,2013-04-14 05:28:00,
2013-04-14 01:29:00,37.4,36.5,-100.00,North,-999,-999.0,-999.0,96,-99.99,,,-99.99,1.0,HOBO +U30 +Weather +,2013-04-14 05:29:00,
2013-04-14 01:30:00,37.7,36.8,-100.00,North,-999,-999.0,-999.0,96,-99.99,,,-99.99,1.0,HOBO +U30 +Weather +,2013-04-14 05:30:00,
2013-04-14 01:31:00,37.8,37.0,-100.00,North,-999,-999.0,-999.0,96,-99.99,,,-99.99,1.0,HOBO +U30 +Weather +,2013-04-14 05:31:00,
2013-04-14 01:32:00,38.0,37.1,-100.00,North,-999,-999.0,-999.0,96,-99.99,,,-99.99,1.0,HOBO +U30 +Weather +,2013-04-14 05:32:00,
2013-04-14 01:33:00,38.3,37.4,-100.00,North,-999,-999.0,-999.0,96,-99.99,,,-99.99,1.0,HOBO +U30 +Weather +,2013-04-14 05:33:00,
2013-04-14 01:34:00,38.5,37.6,-100.00,North,-999,-999.0,-999.0,96,-99.99,,,-99.99,1.0,HOBO +U30 +Weather +,2013-04-14 05:34:00,
2013-04-14 01:35:00,38.7,37.8,-100.00,North,-999,-999.0,-999.0,96,-99.99,,,-99.99,1.0,HOBO +U30 +Weather +,2013-04-14 05:35:00,
2013-04-14 01:36:00,38.8,37.9,-100.00,North,-999,-999.0,-999.0,96,-99.99,,,-99.99,1.0,HOBO +U30 +Weather +,2013-04-14 05:36:00,
2013-04-14 01:37:00,38.9,38.0,-100.00,North,-999,-999.0,-999.0,96,-99.99,,,-99.99,1.0,HOBO +U30 +Weather +,2013-04-14 05:37:00,
2013-04-14 01:38:00,38.9,38.0,-100.00,North,-999,-999.0,-999.0,96,-99.99,,,-99.99,1.0,HOBO +U30 +Weather +,2013-04-14 05:38:00,
2013-04-14 01:39:00,39.0,38.1,-100.00,North,-999,-999.0,-999.0,96,-99.99,,,-99.99,1.0,HOBO +U30 +Weather +,2013-04-14 05:39:00,
2013-04-14 01:40:00,39.0,38.1,-100.00,North,-999,-999.0,-999.0,96,-99.99,,,-99.99,1.0,HOBO +U30 +Weather +,2013-04-14 05:40:00,
2013-04-14 01:41:00,39.0,38.1,-100.00,North,-999,-999.0,-999.0,96,-99.99,,,-99.99,1.0,HOBO +U30 +Weather +,2013-04-14 05:41:00,
2013-04-14 01:42:00,38.9,38.0,-100.00,North,-999,-999.0,-999.0,96,-99.99,,,-99.99,1.0,HOBO +U30 +Weather +,2013-04-14 05:42:00,
2013-04-14 01:43:00,38.8,37.8,-100.00,North,-999,-999.0,-999.0,96,-99.99,,,-99.99,1.0,HOBO +U30 +Weather +,2013-04-14 05:43:00,
2013-04-14 01:44:00,38.6,37.6,-100.00,North,-999,-999.0,-999.0,96,-99.99,,,-99.99,1.0,HOBO +U30 +Weather +,2013-04-14 05:44:00,
2013-04-14 01:45:00,38.5,37.5,-100.00,North,-999,-999.0,-999.0,96,-99.99,,,-99.99,1.0,HOBO +U30 +Weather +,2013-04-14 05:45:00,
2013-04-14 01:46:00,38.4,37.4,-100.00,North,-999,-999.0,-999.0,96,-99.99,,,-99.99,1.0,HOBO +U30 +Weather +,2013-04-14 05:46:00,
2013-04-14 01:47:00,38.3,37.4,-100.00,North,-999,-999.0,-999.0,96,-99.99,,,-99.99,1.0,HOBO +U30 +Weather +,2013-04-14 05:47:00,
2013-04-14 01:48:00,38.2,37.3,-100.00,North,-999,-999.0,-999.0,96,-99.99,,,-99.99,1.0,HOBO +U30 +Weather +,2013-04-14 05:48:00,
2013-04-14 01:49:00,38.2,37.3,-100.00,North,-999,-999.0,-999.0,96,-99.99,,,-99.99,1.0,HOBO +U30 +Weather +,2013-04-14 05:49:00,
2013-04-14 01:50:00,38.2,37.2,-100.00,North,-999,-999.0,-999.0,96,-99.99,,,-99.99,1.0,HOBO +U30 +Weather +,2013-04-14 05:50:00,
2013-04-14 01:51:00,38.2,37.2,-100.00,North,-999,-999.0,-999.0,96,-99.99,,,-99.99,1.0,HOBO +U30 +Weather +,2013-04-14 05:51:00,
2013-04-14 01:52:00,38.2,37.3,-100.00,North,-999,-999.0,-999.0,96,-99.99,,,-99.99,1.0,HOBO +U30 +Weather +,2013-04-14 05:52:00,
2013-04-14 01:53:00,38.2,37.2,-100.00,North,-999,-999.0,-999.0,96,-99.99,,,-99.99,1.0,HOBO +U30 +Weather +,2013-04-14 05:53:00,
2013-04-14 01:54:00,38.0,37.1,-100.00,North,-999,-999.0,-999.0,96,-99.99,,,-99.99,1.0,HOBO +U30 +Weather +,2013-04-14 05:54:00,
2013-04-14 01:55:00,37.9,36.9,-100.00,North,-999,-999.0,-999.0,96,-99.99,,,-99.99,1.0,HOBO +U30 +Weather +,2013-04-14 05:55:00,
2013-04-14 01:56:00,37.9,37.0,-100.00,North,-999,-999.0,-999.0,96,-99.99,,,-99.99,1.0,HOBO +U30 +Weather +,2013-04-14 05:56:00,
2013-04-14 01:57:00,38.1,37.2,-100.00,North,-999,-999.0,-999.0,96,-99.99,,,-99.99,1.0,HOBO +U30 +Weather +,2013-04-14 05:57:00,
2013-04-14 01:58:00,38.4,37.5,-100.00,North,-999,-999.0,-999.0,96,-99.99,,,-99.99,1.0,HOBO +U30 +Weather +,2013-04-14 05:58:00,
2013-04-14 01:59:00,38.4,37.5,-100.00,North,-999,-999.0,-999.0,96,-99.99,,,-99.99,1.0,HOBO +U30 +Weather +,2013-04-14 05:59:00,
2013-04-14 02:00:00,38.5,37.6,-100.00,North,-999,-999.0,-999.0,96,-99.99,,,-99.99,1.0,HOBO +U30 +Weather +,2013-04-14 06:00:00,
2013-04-14 02:01:00,38.4,37.5,-100.00,North,-999,-999.0,-999.0,96,-99.99,,,-99.99,1.0,HOBO +U30 +Weather +,2013-04-14 06:01:00,
2013-04-14 02:02:00,38.3,37.4,-100.00,North,-999,-999.0,-999.0,96,-99.99,,,-99.99,1.0,HOBO +U30 +Weather +,2013-04-14 06:02:00,
2013-04-14 02:03:00,38.3,37.4,-100.00,North,-999,-999.0,-999.0,96,-99.99,,,-99.99,1.0,HOBO +U30 +Weather +,2013-04-14 06:03:00,
2013-04-14 02:04:00,38.4,37.5,-100.00,North,-999,-999.0,-999.0,96,-99.99,,,-99.99,1.0,HOBO +U30 +Weather +,2013-04-14 06:04:00,
2013-04-14 02:05:00,38.4,37.5,-100.00,North,-999,-999.0,-999.0,96,-99.99,,,-99.99,1.0,HOBO +U30 +Weather +,2013-04-14 06:05:00,
2013-04-14 02:06:00,38.4,37.5,-100.00,North,-999,-999.0,-999.0,96,-99.99,,,-99.99,1.0,HOBO +U30 +Weather +,2013-04-14 06:06:00,
2013-04-14 02:07:00,38.6,37.7,-100.00,North,-999,-999.0,-999.0,96,-99.99,,,-99.99,1.0,HOBO +U30 +Weather +,2013-04-14 06:07:00,
2013-04-14 02:08:00,38.8,37.9,-100.00,North,-999,-999.0,-999.0,96,-99.99,,,-99.99,1.0,HOBO +U30 +Weather +,2013-04-14 06:08:00,
2013-04-14 02:09:00,38.9,38.0,-100.00,North,-999,-999.0,-999.0,96,-99.99,,,-99.99,1.0,HOBO +U30 +Weather +,2013-04-14 06:09:00,
2013-04-14 02:10:00,39.0,38.1,-100.00,North,-999,-999.0,-999.0,96,-99.99,,,-99.99,1.0,HOBO +U30 +Weather +,2013-04-14 06:10:00,
2013-04-14 02:11:00,39.0,38.2,-100.00,North,-999,-999.0,-999.0,96,-99.99,,,-99.99,1.0,HOBO +U30 +Weather +,2013-04-14 06:11:00,
2013-04-14 02:12:00,39.2,38.3,-100.00,North,-999,-999.0,-999.0,96,-99.99,,,-99.99,1.0,HOBO +U30 +Weather +,2013-04-14 06:12:00,
2013-04-14 02:13:00,39.3,38.5,-100.00,North,-999,-999.0,-999.0,96,-99.99,,,-99.99,1.0,HOBO +U30 +Weather +,2013-04-14 06:13:00,
2013-04-14 02:14:00,39.5,38.7,-100.00,North,-999,-999.0,-999.0,96,-99.99,,,-99.99,1.0,HOBO +U30 +Weather +,2013-04-14 06:14:00,
2013-04-14 02:15:00,39.9,39.1,-100.00,North,-999,-999.0,-999.0,96,-99.99,,,-99.99,1.0,HOBO +U30 +Weather +,2013-04-14 06:15:00,
2013-04-14 02:16:00,40.2,39.4,-100.00,North,-999,-999.0,-999.0,97,-99.99,,,-99.99,1.0,HOBO +U30 +Weather +,2013-04-14 06:16:00,
2013-04-14 02:17:00,40.4,39.6,-100.00,North,-999,-999.0,-999.0,96,-99.99,,,-99.99,1.0,HOBO +U30 +Weather +,2013-04-14 06:17:00,
2013-04-14 02:18:00,40.5,39.7,-100.00,North,-999,-999.0,-999.0,96,-99.99,,,-99.99,1.0,HOBO +U30 +Weather +,2013-04-14 06:18:00,
2013-04-14 02:19:00,40.7,39.9,-100.00,North,-999,-999.0,-999.0,97,-99.99,,,-99.99,1.0,HOBO +U30 +Weather +,2013-04-14 06:19:00,
2013-04-14 02:20:00,40.9,40.1,-100.00,North,-999,-999.0,-999.0,97,-99.99,,,-99.99,1.0,HOBO +U30 +Weather +,2013-04-14 06:20:00,
2013-04-14 02:21:00,41.1,40.3,-100.00,North,-999,-999.0,-999.0,96,-99.99,,,-99.99,1.0,HOBO +U30 +Weather +,2013-04-14 06:21:00,
2013-04-14 02:22:00,41.2,40.5,-100.00,North,-999,-999.0,-999.0,97,-99.99,,,-99.99,1.0,HOBO +U30 +Weather +,2013-04-14 06:22:00,
2013-04-14 02:23:00,41.2,40.5,-100.00,North,-999,-999.0,-999.0,97,-99.99,,,-99.99,1.0,HOBO +U30 +Weather +,2013-04-14 06:23:00,
2013-04-14 02:24:00,41.3,40.5,-100.00,North,-999,-999.0,-999.0,97,-99.99,,,-99.99,1.0,HOBO +U30 +Weather +,2013-04-14 06:24:00,
2013-04-14 02:25:00,41.3,40.5,-100.00,North,-999,-999.0,-999.0,97,-99.99,,,-99.99,1.0,HOBO +U30 +Weather +,2013-04-14 06:25:00,
2013-04-14 02:26:00,41.4,40.6,-100.00,North,-999,-999.0,-999.0,97,-99.99,,,-99.99,1.0,HOBO +U30 +Weather +,2013-04-14 06:26:00,
2013-04-14 02:27:00,41.2,40.4,-100.00,North,-999,-999.0,-999.0,96,-99.99,,,-99.99,1.0,HOBO +U30 +Weather +,2013-04-14 06:27:00,
2013-04-14 02:28:00,40.9,40.0,-100.00,North,-999,-999.0,-999.0,96,-99.99,,,-99.99,1.0,HOBO +U30 +Weather +,2013-04-14 06:28:00,
2013-04-14 02:29:00,40.9,40.0,-100.00,North,-999,-999.0,-999.0,96,-99.99,,,-99.99,1.0,HOBO +U30 +Weather +,2013-04-14 06:29:00,
2013-04-14 02:30:00,40.9,40.0,-100.00,North,-999,-999.0,-999.0,96,-99.99,,,-99.99,1.0,HOBO +U30 +Weather +,2013-04-14 06:30:00,
2013-04-14 02:31:00,40.9,40.1,-100.00,North,-999,-999.0,-999.0,96,-99.99,,,-99.99,1.0,HOBO +U30 +Weather +,2013-04-14 06:31:00,
2013-04-14 02:32:00,41.0,40.1,-100.00,North,-999,-999.0,-999.0,96,-99.99,,,-99.99,1.0,HOBO +U30 +Weather +,2013-04-14 06:32:00,
2013-04-14 02:33:00,41.0,40.1,-100.00,North,-999,-999.0,-999.0,96,-99.99,,,-99.99,1.0,HOBO +U30 +Weather +,2013-04-14 06:33:00,
2013-04-14 02:34:00,41.1,40.3,-100.00,North,-999,-999.0,-999.0,96,-99.99,,,-99.99,1.0,HOBO +U30 +Weather +,2013-04-14 06:34:00,
2013-04-14 02:35:00,41.1,40.2,-100.00,North,-999,-999.0,-999.0,96,-99.99,,,-99.99,1.0,HOBO +U30 +Weather +,2013-04-14 06:35:00,
2013-04-14 02:36:00,41.0,40.1,-100.00,North,-999,-999.0,-999.0,96,-99.99,,,-99.99,1.0,HOBO +U30 +Weather +,2013-04-14 06:36:00,
2013-04-14 02:37:00,41.2,40.4,-100.00,North,-999,-999.0,-999.0,96,-99.99,,,-99.99,1.0,HOBO +U30 +Weather +,2013-04-14 06:37:00,
2013-04-14 02:38:00,41.5,40.6,-100.00,North,-999,-999.0,-999.0,96,-99.99,,,-99.99,1.0,HOBO +U30 +Weather +,2013-04-14 06:38:00,
2013-04-14 02:39:00,41.2,40.4,-100.00,North,-999,-999.0,-999.0,96,-99.99,,,-99.99,1.0,HOBO +U30 +Weather +,2013-04-14 06:39:00,
2013-04-14 02:40:00,41.0,40.1,-100.00,North,-999,-999.0,-999.0,96,-99.99,,,-99.99,1.0,HOBO +U30 +Weather +,2013-04-14 06:40:00,
2013-04-14 02:41:00,41.1,40.3,-100.00,North,-999,-999.0,-999.0,96,-99.99,,,-99.99,1.0,HOBO +U30 +Weather +,2013-04-14 06:41:00,
2013-04-14 02:42:00,41.2,40.3,-100.00,North,-999,-999.0,-999.0,96,-99.99,,,-99.99,1.0,HOBO +U30 +Weather +,2013-04-14 06:42:00,
2013-04-14 02:43:00,41.6,40.8,-100.00,North,-999,-999.0,-999.0,96,-99.99,,,-99.99,1.0,HOBO +U30 +Weather +,2013-04-14 06:43:00,
2013-04-14 02:44:00,41.7,40.9,-100.00,North,-999,-999.0,-999.0,96,-99.99,,,-99.99,1.0,HOBO +U30 +Weather +,2013-04-14 06:44:00,
2013-04-14 02:45:00,41.7,40.8,-100.00,North,-999,-999.0,-999.0,96,-99.99,,,-99.99,1.0,HOBO +U30 +Weather +,2013-04-14 06:45:00,
2013-04-14 02:46:00,41.8,40.9,-100.00,North,-999,-999.0,-999.0,96,-99.99,,,-99.99,1.0,HOBO +U30 +Weather +,2013-04-14 06:46:00,
2013-04-14 02:47:00,41.9,41.0,-100.00,North,-999,-999.0,-999.0,96,-99.99,,,-99.99,1.0,HOBO +U30 +Weather +,2013-04-14 06:47:00,
2013-04-14 02:48:00,42.0,41.1,-100.00,North,-999,-999.0,-999.0,96,-99.99,,,-99.99,1.0,HOBO +U30 +Weather +,2013-04-14 06:48:00,
2013-04-14 02:49:00,42.0,41.2,-100.00,North,-999,-999.0,-999.0,96,-99.99,,,-99.99,1.0,HOBO +U30 +Weather +,2013-04-14 06:49:00,
2013-04-14 02:50:00,42.1,41.2,-100.00,North,-999,-999.0,-999.0,96,-99.99,,,-99.99,1.0,HOBO +U30 +Weather +,2013-04-14 06:50:00,
2013-04-14 02:51:00,42.1,41.2,-100.00,North,-999,-999.0,-999.0,96,-99.99,,,-99.99,1.0,HOBO +U30 +Weather +,2013-04-14 06:51:00,
2013-04-14 02:52:00,42.1,41.1,-100.00,North,-999,-999.0,-999.0,96,-99.99,,,-99.99,1.0,HOBO +U30 +Weather +,2013-04-14 06:52:00,
2013-04-14 02:53:00,42.0,41.1,-100.00,North,-999,-999.0,-999.0,96,-99.99,,,-99.99,1.0,HOBO +U30 +Weather +,2013-04-14 06:53:00,
2013-04-14 02:54:00,42.1,41.1,-100.00,North,-999,-999.0,-999.0,96,-99.99,,,-99.99,1.0,HOBO +U30 +Weather +,2013-04-14 06:54:00,
2013-04-14 02:55:00,42.2,41.2,-100.00,North,-999,-999.0,-999.0,96,-99.99,,,-99.99,1.0,HOBO +U30 +Weather +,2013-04-14 06:55:00,
2013-04-14 02:56:00,42.2,41.2,-100.00,North,-999,-999.0,-999.0,96,-99.99,,,-99.99,1.0,HOBO +U30 +Weather +,2013-04-14 06:56:00,
2013-04-14 02:57:00,42.2,41.3,-100.00,North,-999,-999.0,-999.0,96,-99.99,,,-99.99,1.0,HOBO +U30 +Weather +,2013-04-14 06:57:00,
2013-04-14 02:58:00,42.3,41.4,-100.00,North,-999,-999.0,-999.0,96,-99.99,,,-99.99,1.0,HOBO +U30 +Weather +,2013-04-14 06:58:00,
2013-04-14 02:59:00,42.3,41.4,-100.00,North,-999,-999.0,-999.0,96,-99.99,,,-99.99,1.0,HOBO +U30 +Weather +,2013-04-14 06:59:00,
2013-04-14 03:00:00,42.4,41.5,-100.00,North,-999,-999.0,-999.0,96,-99.99,,,-99.99,1.0,HOBO +U30 +Weather +,2013-04-14 07:00:00,
2013-04-14 03:01:00,42.4,41.4,-100.00,North,-999,-999.0,-999.0,96,-99.99,,,-99.99,1.0,HOBO +U30 +Weather +,2013-04-14 07:01:00,
2013-04-14 03:02:00,42.5,41.5,-100.00,North,-999,-999.0,-999.0,96,-99.99,,,-99.99,1.0,HOBO +U30 +Weather +,2013-04-14 07:02:00,
2013-04-14 03:03:00,42.5,41.5,-100.00,North,-999,-999.0,-999.0,96,-99.99,,,-99.99,1.0,HOBO +U30 +Weather +,2013-04-14 07:03:00,
2013-04-14 03:04:00,42.4,41.4,-100.00,North,-999,-999.0,-999.0,96,-99.99,,,-99.99,1.0,HOBO +U30 +Weather +,2013-04-14 07:04:00,
2013-04-14 03:05:00,42.3,41.3,-100.00,North,-999,-999.0,-999.0,96,-99.99,,,-99.99,1.0,HOBO +U30 +Weather +,2013-04-14 07:05:00,
2013-04-14 03:06:00,42.3,41.3,-100.00,North,-999,-999.0,-999.0,96,-99.99,,,-99.99,1.0,HOBO +U30 +Weather +,2013-04-14 07:06:00,
2013-04-14 03:07:00,42.4,41.3,-100.00,North,-999,-999.0,-999.0,96,-99.99,,,-99.99,1.0,HOBO +U30 +Weather +,2013-04-14 07:07:00,
2013-04-14 03:08:00,42.4,41.4,-100.00,North,-999,-999.0,-999.0,96,-99.99,,,-99.99,1.0,HOBO +U30 +Weather +,2013-04-14 07:08:00,
2013-04-14 03:09:00,42.4,41.3,-100.00,North,-999,-999.0,-999.0,95,-99.99,,,-99.99,1.0,HOBO +U30 +Weather +,2013-04-14 07:09:00,
2013-04-14 03:10:00,42.5,41.5,-100.00,North,-999,-999.0,-999.0,96,-99.99,,,-99.99,1.0,HOBO +U30 +Weather +,2013-04-14 07:10:00,
2013-04-14 03:11:00,42.5,41.4,-100.00,North,-999,-999.0,-999.0,95,-99.99,,,-99.99,1.0,HOBO +U30 +Weather +,2013-04-14 07:11:00,
2013-04-14 03:12:00,42.4,41.4,-100.00,North,-999,-999.0,-999.0,95,-99.99,,,-99.99,1.0,HOBO +U30 +Weather +,2013-04-14 07:12:00,
2013-04-14 03:13:00,42.4,41.3,-100.00,North,-999,-999.0,-999.0,95,-99.99,,,-99.99,1.0,HOBO +U30 +Weather +,2013-04-14 07:13:00,
2013-04-14 03:14:00,42.4,41.3,-100.00,North,-999,-999.0,-999.0,95,-99.99,,,-99.99,1.0,HOBO +U30 +Weather +,2013-04-14 07:14:00,
2013-04-14 03:15:00,42.5,41.4,-100.00,North,-999,-999.0,-999.0,95,-99.99,,,-99.99,1.0,HOBO +U30 +Weather +,2013-04-14 07:15:00,
2013-04-14 03:16:00,42.5,41.4,-100.00,North,-999,-999.0,-999.0,95,-99.99,,,-99.99,1.0,HOBO +U30 +Weather +,2013-04-14 07:16:00,
2013-04-14 03:17:00,42.5,41.3,-100.00,North,-999,-999.0,-999.0,95,-99.99,,,-99.99,1.0,HOBO +U30 +Weather +,2013-04-14 07:17:00,
2013-04-14 03:18:00,42.4,41.3,-100.00,North,-999,-999.0,-999.0,95,-99.99,,,-99.99,1.0,HOBO +U30 +Weather +,2013-04-14 07:18:00,
2013-04-14 03:19:00,42.4,41.3,-100.00,North,-999,-999.0,-999.0,95,-99.99,,,-99.99,1.0,HOBO +U30 +Weather +,2013-04-14 07:19:00,
2013-04-14 03:20:00,42.3,41.2,-100.00,North,-999,-999.0,-999.0,95,-99.99,,,-99.99,1.0,HOBO +U30 +Weather +,2013-04-14 07:20:00,
2013-04-14 03:21:00,42.3,41.2,-100.00,North,-999,-999.0,-999.0,95,-99.99,,,-99.99,1.0,HOBO +U30 +Weather +,2013-04-14 07:21:00,
2013-04-14 03:22:00,42.3,41.2,-100.00,North,-999,-999.0,-999.0,95,-99.99,,,-99.99,1.0,HOBO +U30 +Weather +,2013-04-14 07:22:00,
2013-04-14 03:23:00,42.2,41.1,-100.00,North,-999,-999.0,-999.0,95,-99.99,,,-99.99,1.0,HOBO +U30 +Weather +,2013-04-14 07:23:00,
2013-04-14 03:24:00,42.2,41.1,-100.00,North,-999,-999.0,-999.0,95,-99.99,,,-99.99,1.0,HOBO +U30 +Weather +,2013-04-14 07:24:00,
2013-04-14 03:25:00,42.3,41.2,-100.00,North,-999,-999.0,-999.0,95,-99.99,,,-99.99,1.0,HOBO +U30 +Weather +,2013-04-14 07:25:00,
2013-04-14 03:26:00,42.3,41.2,-100.00,North,-999,-999.0,-999.0,95,-99.99,,,-99.99,1.0,HOBO +U30 +Weather +,2013-04-14 07:26:00,
2013-04-14 03:27:00,42.3,41.2,-100.00,North,-999,-999.0,-999.0,95,-99.99,,,-99.99,1.0,HOBO +U30 +Weather +,2013-04-14 07:27:00,
2013-04-14 03:28:00,42.3,41.2,-100.00,North,-999,-999.0,-999.0,95,-99.99,,,-99.99,1.0,HOBO +U30 +Weather +,2013-04-14 07:28:00,
2013-04-14 03:29:00,42.3,41.2,-100.00,North,-999,-999.0,-999.0,95,-99.99,,,-99.99,1.0,HOBO +U30 +Weather +,2013-04-14 07:29:00,
2013-04-14 03:30:00,42.3,41.2,-100.00,North,-999,-999.0,-999.0,95,-99.99,,,-99.99,1.0,HOBO +U30 +Weather +,2013-04-14 07:30:00,
2013-04-14 03:31:00,42.3,41.2,-100.00,North,-999,-999.0,-999.0,95,-99.99,,,-99.99,1.0,HOBO +U30 +Weather +,2013-04-14 07:31:00,
2013-04-14 03:32:00,42.3,41.2,-100.00,North,-999,-999.0,-999.0,95,-99.99,,,-99.99,1.0,HOBO +U30 +Weather +,2013-04-14 07:32:00,
2013-04-14 03:33:00,42.3,41.2,-100.00,North,-999,-999.0,-999.0,95,-99.99,,,-99.99,1.0,HOBO +U30 +Weather +,2013-04-14 07:33:00,
2013-04-14 03:34:00,42.3,41.2,-100.00,North,-999,-999.0,-999.0,95,-99.99,,,-99.99,1.0,HOBO +U30 +Weather +,2013-04-14 07:34:00,
2013-04-14 03:35:00,42.3,41.2,-100.00,North,-999,-999.0,-999.0,95,-99.99,,,-99.99,1.0,HOBO +U30 +Weather +,2013-04-14 07:35:00,
2013-04-14 03:36:00,42.4,41.3,-100.00,North,-999,-999.0,-999.0,95,-99.99,,,-99.99,1.0,HOBO +U30 +Weather +,2013-04-14 07:36:00,
2013-04-14 03:37:00,42.5,41.5,-100.00,North,-999,-999.0,-999.0,95,-99.99,,,-99.99,1.0,HOBO +U30 +Weather +,2013-04-14 07:37:00,
2013-04-14 03:38:00,42.5,41.4,-100.00,North,-999,-999.0,-999.0,95,-99.99,,,-99.99,1.0,HOBO +U30 +Weather +,2013-04-14 07:38:00,
2013-04-14 03:39:00,42.5,41.3,-100.00,North,-999,-999.0,-999.0,95,-99.99,,,-99.99,1.0,HOBO +U30 +Weather +,2013-04-14 07:39:00,
2013-04-14 03:40:00,42.6,41.5,-100.00,North,-999,-999.0,-999.0,95,-99.99,,,-99.99,1.0,HOBO +U30 +Weather +,2013-04-14 07:40:00,
2013-04-14 03:41:00,42.4,41.3,-100.00,North,-999,-999.0,-999.0,95,-99.99,,,-99.99,1.0,HOBO +U30 +Weather +,2013-04-14 07:41:00,
2013-04-14 03:42:00,42.4,41.2,-100.00,North,-999,-999.0,-999.0,95,-99.99,,,-99.99,1.0,HOBO +U30 +Weather +,2013-04-14 07:42:00,
2013-04-14 03:43:00,42.3,41.2,-100.00,North,-999,-999.0,-999.0,95,-99.99,,,-99.99,1.0,HOBO +U30 +Weather +,2013-04-14 07:43:00,
2013-04-14 03:44:00,42.4,41.2,-100.00,North,-999,-999.0,-999.0,95,-99.99,,,-99.99,1.0,HOBO +U30 +Weather +,2013-04-14 07:44:00,
2013-04-14 03:45:00,42.3,41.1,-100.00,North,-999,-999.0,-999.0,95,-99.99,,,-99.99,1.0,HOBO +U30 +Weather +,2013-04-14 07:45:00,
2013-04-14 03:46:00,42.4,41.3,-100.00,North,-999,-999.0,-999.0,95,-99.99,,,-99.99,1.0,HOBO +U30 +Weather +,2013-04-14 07:46:00,
2013-04-14 03:47:00,42.4,41.2,-100.00,North,-999,-999.0,-999.0,95,-99.99,,,-99.99,1.0,HOBO +U30 +Weather +,2013-04-14 07:47:00,
2013-04-14 03:48:00,42.4,41.3,-100.00,North,-999,-999.0,-999.0,95,-99.99,,,-99.99,1.0,HOBO +U30 +Weather +,2013-04-14 07:48:00,
2013-04-14 03:49:00,42.4,41.3,-100.00,North,-999,-999.0,-999.0,95,-99.99,,,-99.99,1.0,HOBO +U30 +Weather +,2013-04-14 07:49:00,
2013-04-14 03:50:00,42.4,41.3,-100.00,North,-999,-999.0,-999.0,95,-99.99,,,-99.99,1.0,HOBO +U30 +Weather +,2013-04-14 07:50:00,
2013-04-14 03:51:00,42.3,41.1,-100.00,North,-999,-999.0,-999.0,95,-99.99,,,-99.99,1.0,HOBO +U30 +Weather +,2013-04-14 07:51:00,
2013-04-14 03:52:00,42.2,40.9,-100.00,North,-999,-999.0,-999.0,95,-99.99,,,-99.99,1.0,HOBO +U30 +Weather +,2013-04-14 07:52:00,
2013-04-14 03:53:00,42.3,41.1,-100.00,North,-999,-999.0,-999.0,95,-99.99,,,-99.99,1.0,HOBO +U30 +Weather +,2013-04-14 07:53:00,
2013-04-14 03:54:00,42.2,41.0,-100.00,North,-999,-999.0,-999.0,95,-99.99,,,-99.99,1.0,HOBO +U30 +Weather +,2013-04-14 07:54:00,
2013-04-14 03:55:00,42.2,41.0,-100.00,North,-999,-999.0,-999.0,95,-99.99,,,-99.99,1.0,HOBO +U30 +Weather +,2013-04-14 07:55:00,
2013-04-14 03:56:00,42.2,41.0,-100.00,North,-999,-999.0,-999.0,95,-99.99,,,-99.99,1.0,HOBO +U30 +Weather +,2013-04-14 07:56:00,
2013-04-14 03:57:00,42.3,41.0,-100.00,North,-999,-999.0,-999.0,95,-99.99,,,-99.99,1.0,HOBO +U30 +Weather +,2013-04-14 07:57:00,
2013-04-14 03:58:00,42.3,41.1,-100.00,North,-999,-999.0,-999.0,95,-99.99,,,-99.99,1.0,HOBO +U30 +Weather +,2013-04-14 07:58:00,
2013-04-14 03:59:00,42.2,40.9,-100.00,North,-999,-999.0,-999.0,95,-99.99,,,-99.99,1.0,HOBO +U30 +Weather +,2013-04-14 07:59:00,
2013-04-14 04:00:00,42.2,40.9,-100.00,North,-999,-999.0,-999.0,95,-99.99,,,-99.99,1.0,HOBO +U30 +Weather +,2013-04-14 08:00:00,
2013-04-14 04:01:00,42.2,40.8,-100.00,North,-999,-999.0,-999.0,94,-99.99,,,-99.99,1.0,HOBO +U30 +Weather +,2013-04-14 08:01:00,
2013-04-14 04:02:00,42.0,40.7,-100.00,North,-999,-999.0,-999.0,94,-99.99,,,-99.99,1.0,HOBO +U30 +Weather +,2013-04-14 08:02:00,
2013-04-14 04:03:00,41.9,40.5,-100.00,North,-999,-999.0,-999.0,94,-99.99,,,-99.99,1.0,HOBO +U30 +Weather +,2013-04-14 08:03:00,
2013-04-14 04:04:00,41.9,40.5,-100.00,North,-999,-999.0,-999.0,94,-99.99,,,-99.99,1.0,HOBO +U30 +Weather +,2013-04-14 08:04:00,
2013-04-14 04:05:00,41.9,40.6,-100.00,North,-999,-999.0,-999.0,95,-99.99,,,-99.99,1.0,HOBO +U30 +Weather +,2013-04-14 08:05:00,
2013-04-14 04:06:00,41.9,40.6,-100.00,North,-999,-999.0,-999.0,95,-99.99,,,-99.99,1.0,HOBO +U30 +Weather +,2013-04-14 08:06:00,
2013-04-14 04:07:00,41.8,40.5,-100.00,North,-999,-999.0,-999.0,95,-99.99,,,-99.99,1.0,HOBO +U30 +Weather +,2013-04-14 08:07:00,
2013-04-14 04:08:00,41.8,40.5,-100.00,North,-999,-999.0,-999.0,95,-99.99,,,-99.99,1.0,HOBO +U30 +Weather +,2013-04-14 08:08:00,
2013-04-14 04:09:00,41.8,40.5,-100.00,North,-999,-999.0,-999.0,95,-99.99,,,-99.99,1.0,HOBO +U30 +Weather +,2013-04-14 08:09:00,
2013-04-14 04:10:00,42.0,40.7,-100.00,North,-999,-999.0,-999.0,95,-99.99,,,-99.99,1.0,HOBO +U30 +Weather +,2013-04-14 08:10:00,
2013-04-14 04:11:00,42.0,40.7,-100.00,North,-999,-999.0,-999.0,95,-99.99,,,-99.99,1.0,HOBO +U30 +Weather +,2013-04-14 08:11:00,
2013-04-14 04:12:00,42.1,40.7,-100.00,North,-999,-999.0,-999.0,94,-99.99,,,-99.99,1.0,HOBO +U30 +Weather +,2013-04-14 08:12:00,
2013-04-14 04:13:00,41.9,40.5,-100.00,North,-999,-999.0,-999.0,94,-99.99,,,-99.99,1.0,HOBO +U30 +Weather +,2013-04-14 08:13:00,
2013-04-14 04:14:00,41.8,40.5,-100.00,North,-999,-999.0,-999.0,94,-99.99,,,-99.99,1.0,HOBO +U30 +Weather +,2013-04-14 08:14:00,
2013-04-14 04:15:00,41.8,40.4,-100.00,North,-999,-999.0,-999.0,94,-99.99,,,-99.99,1.0,HOBO +U30 +Weather +,2013-04-14 08:15:00,
2013-04-14 04:16:00,41.7,40.3,-100.00,North,-999,-999.0,-999.0,94,-99.99,,,-99.99,1.0,HOBO +U30 +Weather +,2013-04-14 08:16:00,
2013-04-14 04:17:00,41.6,40.2,-100.00,North,-999,-999.0,-999.0,94,-99.99,,,-99.99,1.0,HOBO +U30 +Weather +,2013-04-14 08:17:00,
2013-04-14 04:18:00,41.5,40.1,-100.00,North,-999,-999.0,-999.0,94,-99.99,,,-99.99,1.0,HOBO +U30 +Weather +,2013-04-14 08:18:00,
2013-04-14 04:19:00,41.4,40.0,-100.00,North,-999,-999.0,-999.0,94,-99.99,,,-99.99,1.0,HOBO +U30 +Weather +,2013-04-14 08:19:00,
2013-04-14 04:20:00,41.4,40.0,-100.00,North,-999,-999.0,-999.0,94,-99.99,,,-99.99,1.0,HOBO +U30 +Weather +,2013-04-14 08:20:00,
2013-04-14 04:21:00,41.3,40.0,-100.00,North,-999,-999.0,-999.0,94,-99.99,,,-99.99,1.0,HOBO +U30 +Weather +,2013-04-14 08:21:00,
2013-04-14 04:22:00,41.3,40.0,-100.00,North,-999,-999.0,-999.0,94,-99.99,,,-99.99,1.0,HOBO +U30 +Weather +,2013-04-14 08:22:00,
2013-04-14 04:23:00,41.3,39.9,-100.00,North,-999,-999.0,-999.0,94,-99.99,,,-99.99,1.0,HOBO +U30 +Weather +,2013-04-14 08:23:00,
2013-04-14 04:24:00,41.2,39.9,-100.00,North,-999,-999.0,-999.0,94,-99.99,,,-99.99,1.0,HOBO +U30 +Weather +,2013-04-14 08:24:00,
2013-04-14 04:25:00,41.2,39.9,-100.00,North,-999,-999.0,-999.0,95,-99.99,,,-99.99,1.0,HOBO +U30 +Weather +,2013-04-14 08:25:00,
2013-04-14 04:26:00,41.2,39.9,-100.00,North,-999,-999.0,-999.0,95,-99.99,,,-99.99,1.0,HOBO +U30 +Weather +,2013-04-14 08:26:00,
2013-04-14 04:27:00,41.1,39.8,-100.00,North,-999,-999.0,-999.0,95,-99.99,,,-99.99,1.0,HOBO +U30 +Weather +,2013-04-14 08:27:00,
2013-04-14 04:28:00,41.1,39.8,-100.00,North,-999,-999.0,-999.0,95,-99.99,,,-99.99,1.0,HOBO +U30 +Weather +,2013-04-14 08:28:00,
2013-04-14 04:29:00,41.1,39.8,-100.00,North,-999,-999.0,-999.0,95,-99.99,,,-99.99,1.0,HOBO +U30 +Weather +,2013-04-14 08:29:00,
2013-04-14 04:30:00,41.2,39.9,-100.00,North,-999,-999.0,-999.0,95,-99.99,,,-99.99,1.0,HOBO +U30 +Weather +,2013-04-14 08:30:00,
2013-04-14 04:31:00,41.2,40.0,-100.00,North,-999,-999.0,-999.0,95,-99.99,,,-99.99,1.0,HOBO +U30 +Weather +,2013-04-14 08:31:00,
2013-04-14 04:32:00,41.3,40.1,-100.00,North,-999,-999.0,-999.0,95,-99.99,,,-99.99,1.0,HOBO +U30 +Weather +,2013-04-14 08:32:00,
2013-04-14 04:33:00,41.3,40.0,-100.00,North,-999,-999.0,-999.0,95,-99.99,,,-99.99,1.0,HOBO +U30 +Weather +,2013-04-14 08:33:00,
2013-04-14 04:34:00,41.3,40.0,-100.00,North,-999,-999.0,-999.0,95,-99.99,,,-99.99,1.0,HOBO +U30 +Weather +,2013-04-14 08:34:00,
2013-04-14 04:35:00,41.2,40.0,-100.00,North,-999,-999.0,-999.0,95,-99.99,,,-99.99,1.0,HOBO +U30 +Weather +,2013-04-14 08:35:00,
2013-04-14 04:36:00,41.2,39.9,-100.00,North,-999,-999.0,-999.0,95,-99.99,,,-99.99,1.0,HOBO +U30 +Weather +,2013-04-14 08:36:00,
2013-04-14 04:37:00,41.1,39.9,-100.00,North,-999,-999.0,-999.0,95,-99.99,,,-99.99,1.0,HOBO +U30 +Weather +,2013-04-14 08:37:00,
2013-04-14 04:38:00,41.1,39.9,-100.00,North,-999,-999.0,-999.0,95,-99.99,,,-99.99,1.0,HOBO +U30 +Weather +,2013-04-14 08:38:00,
2013-04-14 04:39:00,41.1,39.9,-100.00,North,-999,-999.0,-999.0,95,-99.99,,,-99.99,1.0,HOBO +U30 +Weather +,2013-04-14 08:39:00,
2013-04-14 04:40:00,41.2,40.0,-100.00,North,-999,-999.0,-999.0,95,-99.99,,,-99.99,1.0,HOBO +U30 +Weather +,2013-04-14 08:40:00,
2013-04-14 04:41:00,41.1,39.9,-100.00,North,-999,-999.0,-999.0,95,-99.99,,,-99.99,1.0,HOBO +U30 +Weather +,2013-04-14 08:41:00,
2013-04-14 04:42:00,41.1,39.9,-100.00,North,-999,-999.0,-999.0,95,-99.99,,,-99.99,1.0,HOBO +U30 +Weather +,2013-04-14 08:42:00,
2013-04-14 04:43:00,41.0,39.8,-100.00,North,-999,-999.0,-999.0,95,-99.99,,,-99.99,1.0,HOBO +U30 +Weather +,2013-04-14 08:43:00,
2013-04-14 04:44:00,41.0,39.8,-100.00,North,-999,-999.0,-999.0,95,-99.99,,,-99.99,1.0,HOBO +U30 +Weather +,2013-04-14 08:44:00,
2013-04-14 04:45:00,41.0,39.8,-100.00,North,-999,-999.0,-999.0,95,-99.99,,,-99.99,1.0,HOBO +U30 +Weather +,2013-04-14 08:45:00,
2013-04-14 04:46:00,41.0,39.8,-100.00,North,-999,-999.0,-999.0,95,-99.99,,,-99.99,1.0,HOBO +U30 +Weather +,2013-04-14 08:46:00,
2013-04-14 04:47:00,41.0,39.8,-100.00,North,-999,-999.0,-999.0,95,-99.99,,,-99.99,1.0,HOBO +U30 +Weather +,2013-04-14 08:47:00,
2013-04-14 04:48:00,41.0,39.8,-100.00,North,-999,-999.0,-999.0,95,-99.99,,,-99.99,1.0,HOBO +U30 +Weather +,2013-04-14 08:48:00,
2013-04-14 04:49:00,41.0,39.8,-100.00,North,-999,-999.0,-999.0,95,-99.99,,,-99.99,1.0,HOBO +U30 +Weather +,2013-04-14 08:49:00,
2013-04-14 04:50:00,41.1,39.9,-100.00,North,-999,-999.0,-999.0,95,-99.99,,,-99.99,1.0,HOBO +U30 +Weather +,2013-04-14 08:50:00,
2013-04-14 04:51:00,41.2,40.0,-100.00,North,-999,-999.0,-999.0,95,-99.99,,,-99.99,1.0,HOBO +U30 +Weather +,2013-04-14 08:51:00,
2013-04-14 04:52:00,41.2,40.1,-100.00,North,-999,-999.0,-999.0,95,-99.99,,,-99.99,1.0,HOBO +U30 +Weather +,2013-04-14 08:52:00,
2013-04-14 04:53:00,41.3,40.2,-100.00,North,-999,-999.0,-999.0,95,-99.99,,,-99.99,1.0,HOBO +U30 +Weather +,2013-04-14 08:53:00,
2013-04-14 04:54:00,41.4,40.3,-100.00,North,-999,-999.0,-999.0,95,-99.99,,,-99.99,1.0,HOBO +U30 +Weather +,2013-04-14 08:54:00,
2013-04-14 04:55:00,41.4,40.3,-100.00,North,-999,-999.0,-999.0,95,-99.99,,,-99.99,1.0,HOBO +U30 +Weather +,2013-04-14 08:55:00,
2013-04-14 04:56:00,41.4,40.3,-100.00,North,-999,-999.0,-999.0,95,-99.99,,,-99.99,1.0,HOBO +U30 +Weather +,2013-04-14 08:56:00,
2013-04-14 04:57:00,41.5,40.4,-100.00,North,-999,-999.0,-999.0,95,-99.99,,,-99.99,1.0,HOBO +U30 +Weather +,2013-04-14 08:57:00,
2013-04-14 04:58:00,41.5,40.3,-100.00,North,-999,-999.0,-999.0,95,-99.99,,,-99.99,1.0,HOBO +U30 +Weather +,2013-04-14 08:58:00,
2013-04-14 04:59:00,41.5,40.3,-100.00,North,-999,-999.0,-999.0,95,-99.99,,,-99.99,1.0,HOBO +U30 +Weather +,2013-04-14 08:59:00,
2013-04-14 05:00:00,41.5,40.3,-100.00,North,-999,-999.0,-999.0,95,-99.99,,,-99.99,1.0,HOBO +U30 +Weather +,2013-04-14 09:00:00,
2013-04-14 05:01:00,41.5,40.3,-100.00,North,-999,-999.0,-999.0,95,-99.99,,,-99.99,1.0,HOBO +U30 +Weather +,2013-04-14 09:01:00,
2013-04-14 05:02:00,41.5,40.3,-100.00,North,-999,-999.0,-999.0,95,-99.99,,,-99.99,1.0,HOBO +U30 +Weather +,2013-04-14 09:02:00,
2013-04-14 05:03:00,41.5,40.3,-100.00,North,-999,-999.0,-999.0,95,-99.99,,,-99.99,1.0,HOBO +U30 +Weather +,2013-04-14 09:03:00,
2013-04-14 05:04:00,41.5,40.3,-100.00,North,-999,-999.0,-999.0,95,-99.99,,,-99.99,1.0,HOBO +U30 +Weather +,2013-04-14 09:04:00,
2013-04-14 05:05:00,41.4,40.2,-100.00,North,-999,-999.0,-999.0,95,-99.99,,,-99.99,1.0,HOBO +U30 +Weather +,2013-04-14 09:05:00,
2013-04-14 05:06:00,41.4,40.2,-100.00,North,-999,-999.0,-999.0,95,-99.99,,,-99.99,1.0,HOBO +U30 +Weather +,2013-04-14 09:06:00,
2013-04-14 05:07:00,41.4,40.2,-100.00,North,-999,-999.0,-999.0,95,-99.99,,,-99.99,1.0,HOBO +U30 +Weather +,2013-04-14 09:07:00,
2013-04-14 05:08:00,41.4,40.2,-100.00,North,-999,-999.0,-999.0,95,-99.99,,,-99.99,1.0,HOBO +U30 +Weather +,2013-04-14 09:08:00,
2013-04-14 05:09:00,41.4,40.2,-100.00,North,-999,-999.0,-999.0,95,-99.99,,,-99.99,1.0,HOBO +U30 +Weather +,2013-04-14 09:09:00,
2013-04-14 05:10:00,41.4,40.2,-100.00,North,-999,-999.0,-999.0,95,-99.99,,,-99.99,1.0,HOBO +U30 +Weather +,2013-04-14 09:10:00,
2013-04-14 05:11:00,41.4,40.2,-100.00,North,-999,-999.0,-999.0,95,-99.99,,,-99.99,1.0,HOBO +U30 +Weather +,2013-04-14 09:11:00,
2013-04-14 05:12:00,41.5,40.3,-100.00,North,-999,-999.0,-999.0,95,-99.99,,,-99.99,1.0,HOBO +U30 +Weather +,2013-04-14 09:12:00,
2013-04-14 05:13:00,41.4,40.2,-100.00,North,-999,-999.0,-999.0,95,-99.99,,,-99.99,1.0,HOBO +U30 +Weather +,2013-04-14 09:13:00,
2013-04-14 05:14:00,41.5,40.3,-100.00,North,-999,-999.0,-999.0,95,-99.99,,,-99.99,1.0,HOBO +U30 +Weather +,2013-04-14 09:14:00,
2013-04-14 05:15:00,41.5,40.3,-100.00,North,-999,-999.0,-999.0,95,-99.99,,,-99.99,1.0,HOBO +U30 +Weather +,2013-04-14 09:15:00,
2013-04-14 05:16:00,41.5,40.3,-100.00,North,-999,-999.0,-999.0,95,-99.99,,,-99.99,1.0,HOBO +U30 +Weather +,2013-04-14 09:16:00,
2013-04-14 05:17:00,41.5,40.3,-100.00,North,-999,-999.0,-999.0,95,-99.99,,,-99.99,1.0,HOBO +U30 +Weather +,2013-04-14 09:17:00,
2013-04-14 05:18:00,41.5,40.3,-100.00,North,-999,-999.0,-999.0,95,-99.99,,,-99.99,1.0,HOBO +U30 +Weather +,2013-04-14 09:18:00,
2013-04-14 05:19:00,41.5,40.3,-100.00,North,-999,-999.0,-999.0,95,-99.99,,,-99.99,1.0,HOBO +U30 +Weather +,2013-04-14 09:19:00,
2013-04-14 05:20:00,41.5,40.3,-100.00,North,-999,-999.0,-999.0,95,-99.99,,,-99.99,1.0,HOBO +U30 +Weather +,2013-04-14 09:20:00,
2013-04-14 05:21:00,41.5,40.3,-100.00,North,-999,-999.0,-999.0,95,-99.99,,,-99.99,1.0,HOBO +U30 +Weather +,2013-04-14 09:21:00,
2013-04-14 05:22:00,41.5,40.3,-100.00,North,-999,-999.0,-999.0,95,-99.99,,,-99.99,1.0,HOBO +U30 +Weather +,2013-04-14 09:22:00,
2013-04-14 05:23:00,41.5,40.3,-100.00,North,-999,-999.0,-999.0,95,-99.99,,,-99.99,1.0,HOBO +U30 +Weather +,2013-04-14 09:23:00,
2013-04-14 05:24:00,41.5,40.3,-100.00,North,-999,-999.0,-999.0,95,-99.99,,,-99.99,1.0,HOBO +U30 +Weather +,2013-04-14 09:24:00,
2013-04-14 05:25:00,41.5,40.3,-100.00,North,-999,-999.0,-999.0,95,-99.99,,,-99.99,1.0,HOBO +U30 +Weather +,2013-04-14 09:25:00,
2013-04-14 05:26:00,41.4,40.2,-100.00,North,-999,-999.0,-999.0,95,-99.99,,,-99.99,1.0,HOBO +U30 +Weather +,2013-04-14 09:26:00,
2013-04-14 05:27:00,41.4,40.2,-100.00,North,-999,-999.0,-999.0,95,-99.99,,,-99.99,1.0,HOBO +U30 +Weather +,2013-04-14 09:27:00,
2013-04-14 05:28:00,41.4,40.1,-100.00,North,-999,-999.0,-999.0,95,-99.99,,,-99.99,1.0,HOBO +U30 +Weather +,2013-04-14 09:28:00,
2013-04-14 05:29:00,41.4,40.2,-100.00,North,-999,-999.0,-999.0,95,-99.99,,,-99.99,1.0,HOBO +U30 +Weather +,2013-04-14 09:29:00,
2013-04-14 05:30:00,41.3,40.1,-100.00,North,-999,-999.0,-999.0,95,-99.99,,,-99.99,1.0,HOBO +U30 +Weather +,2013-04-14 09:30:00,
2013-04-14 05:31:00,41.3,40.1,-100.00,North,-999,-999.0,-999.0,95,-99.99,,,-99.99,1.0,HOBO +U30 +Weather +,2013-04-14 09:31:00,
2013-04-14 05:32:00,41.3,40.1,-100.00,North,-999,-999.0,-999.0,95,-99.99,,,-99.99,2.0,HOBO +U30 +Weather +,2013-04-14 09:32:00,
2013-04-14 05:33:00,41.2,40.0,-100.00,North,-999,-999.0,-999.0,95,-99.99,,,-99.99,2.0,HOBO +U30 +Weather +,2013-04-14 09:33:00,
2013-04-14 05:34:00,41.2,40.0,-100.00,North,-999,-999.0,-999.0,95,-99.99,,,-99.99,2.0,HOBO +U30 +Weather +,2013-04-14 09:34:00,
2013-04-14 05:35:00,41.2,40.0,-100.00,North,-999,-999.0,-999.0,95,-99.99,,,-99.99,2.0,HOBO +U30 +Weather +,2013-04-14 09:35:00,
2013-04-14 05:36:00,41.2,40.0,-100.00,North,-999,-999.0,-999.0,95,-99.99,,,-99.99,2.0,HOBO +U30 +Weather +,2013-04-14 09:36:00,
2013-04-14 05:37:00,41.2,40.0,-100.00,North,-999,-999.0,-999.0,95,-99.99,,,-99.99,2.0,HOBO +U30 +Weather +,2013-04-14 09:37:00,
2013-04-14 05:38:00,41.1,40.0,-100.00,North,-999,-999.0,-999.0,95,-99.99,,,-99.99,2.0,HOBO +U30 +Weather +,2013-04-14 09:38:00,
2013-04-14 05:39:00,40.9,39.7,-100.00,North,-999,-999.0,-999.0,95,-99.99,,,-99.99,3.0,HOBO +U30 +Weather +,2013-04-14 09:39:00,
2013-04-14 05:40:00,40.9,39.6,-100.00,North,-999,-999.0,-999.0,95,-99.99,,,-99.99,3.0,HOBO +U30 +Weather +,2013-04-14 09:40:00,
2013-04-14 05:41:00,40.8,39.6,-100.00,North,-999,-999.0,-999.0,95,-99.99,,,-99.99,4.0,HOBO +U30 +Weather +,2013-04-14 09:41:00,
2013-04-14 05:42:00,40.8,39.6,-100.00,North,-999,-999.0,-999.0,95,-99.99,,,-99.99,4.0,HOBO +U30 +Weather +,2013-04-14 09:42:00,
2013-04-14 05:43:00,40.8,39.6,-100.00,North,-999,-999.0,-999.0,95,-99.99,,,-99.99,7.0,HOBO +U30 +Weather +,2013-04-14 09:43:00,
2013-04-14 05:44:00,40.7,39.5,-100.00,North,-999,-999.0,-999.0,95,-99.99,,,-99.99,8.0,HOBO +U30 +Weather +,2013-04-14 09:44:00,
2013-04-14 05:45:00,40.7,39.5,-100.00,North,-999,-999.0,-999.0,95,-99.99,,,-99.99,8.0,HOBO +U30 +Weather +,2013-04-14 09:45:00,
2013-04-14 05:46:00,40.7,39.5,-100.00,North,-999,-999.0,-999.0,95,-99.99,,,-99.99,8.0,HOBO +U30 +Weather +,2013-04-14 09:46:00,
2013-04-14 05:47:00,40.7,39.5,-100.00,North,-999,-999.0,-999.0,95,-99.99,,,-99.99,7.0,HOBO +U30 +Weather +,2013-04-14 09:47:00,
2013-04-14 05:48:00,40.7,39.5,-100.00,North,-999,-999.0,-999.0,95,-99.99,,,-99.99,6.0,HOBO +U30 +Weather +,2013-04-14 09:48:00,
2013-04-14 05:49:00,40.7,39.5,-100.00,North,-999,-999.0,-999.0,95,-99.99,,,-99.99,6.0,HOBO +U30 +Weather +,2013-04-14 09:49:00,
2013-04-14 05:50:00,40.7,39.5,-100.00,North,-999,-999.0,-999.0,95,-99.99,,,-99.99,7.0,HOBO +U30 +Weather +,2013-04-14 09:50:00,
2013-04-14 05:51:00,40.6,39.5,-100.00,North,-999,-999.0,-999.0,95,-99.99,,,-99.99,8.0,HOBO +U30 +Weather +,2013-04-14 09:51:00,
2013-04-14 05:52:00,40.6,39.5,-100.00,North,-999,-999.0,-999.0,95,-99.99,,,-99.99,11.0,HOBO +U30 +Weather +,2013-04-14 09:52:00,
2013-04-14 05:53:00,40.6,39.5,-100.00,North,-999,-999.0,-999.0,95,-99.99,,,-99.99,12.0,HOBO +U30 +Weather +,2013-04-14 09:53:00,
2013-04-14 05:54:00,40.6,39.5,-100.00,North,-999,-999.0,-999.0,95,-99.99,,,-99.99,12.0,HOBO +U30 +Weather +,2013-04-14 09:54:00,
2013-04-14 05:55:00,40.6,39.5,-100.00,North,-999,-999.0,-999.0,95,-99.99,,,-99.99,11.0,HOBO +U30 +Weather +,2013-04-14 09:55:00,
2013-04-14 05:56:00,40.6,39.5,-100.00,North,-999,-999.0,-999.0,95,-99.99,,,-99.99,11.0,HOBO +U30 +Weather +,2013-04-14 09:56:00,
2013-04-14 05:57:00,40.6,39.5,-100.00,North,-999,-999.0,-999.0,95,-99.99,,,-99.99,9.0,HOBO +U30 +Weather +,2013-04-14 09:57:00,
2013-04-14 05:58:00,40.7,39.5,-100.00,North,-999,-999.0,-999.0,95,-99.99,,,-99.99,9.0,HOBO +U30 +Weather +,2013-04-14 09:58:00,
2013-04-14 05:59:00,40.7,39.6,-100.00,North,-999,-999.0,-999.0,95,-99.99,,,-99.99,11.0,HOBO +U30 +Weather +,2013-04-14 09:59:00,
2013-04-14 06:00:00,40.7,39.6,-100.00,North,-999,-999.0,-999.0,95,-99.99,,,-99.99,13.0,HOBO +U30 +Weather +,2013-04-14 10:00:00,
2013-04-14 06:01:00,40.7,39.5,-100.00,North,-999,-999.0,-999.0,95,-99.99,,,-99.99,17.0,HOBO +U30 +Weather +,2013-04-14 10:01:00,
2013-04-14 06:02:00,40.7,39.6,-100.00,North,-999,-999.0,-999.0,95,-99.99,,,-99.99,21.0,HOBO +U30 +Weather +,2013-04-14 10:02:00,
2013-04-14 06:03:00,40.7,39.6,-100.00,North,-999,-999.0,-999.0,95,-99.99,,,-99.99,23.0,HOBO +U30 +Weather +,2013-04-14 10:03:00,
2013-04-14 06:04:00,40.8,39.7,-100.00,North,-999,-999.0,-999.0,95,-99.99,,,-99.99,23.0,HOBO +U30 +Weather +,2013-04-14 10:04:00,
2013-04-14 06:05:00,40.8,39.7,-100.00,North,-999,-999.0,-999.0,95,-99.99,,,-99.99,21.0,HOBO +U30 +Weather +,2013-04-14 10:05:00,
2013-04-14 06:06:00,40.8,39.7,-100.00,North,-999,-999.0,-999.0,95,-99.99,,,-99.99,19.0,HOBO +U30 +Weather +,2013-04-14 10:06:00,
2013-04-14 06:07:00,40.8,39.7,-100.00,North,-999,-999.0,-999.0,95,-99.99,,,-99.99,21.0,HOBO +U30 +Weather +,2013-04-14 10:07:00,
2013-04-14 06:08:00,40.9,39.8,-100.00,North,-999,-999.0,-999.0,95,-99.99,,,-99.99,22.0,HOBO +U30 +Weather +,2013-04-14 10:08:00,
2013-04-14 06:09:00,40.9,39.8,-100.00,North,-999,-999.0,-999.0,95,-99.99,,,-99.99,21.0,HOBO +U30 +Weather +,2013-04-14 10:09:00,
2013-04-14 06:10:00,40.9,39.8,-100.00,North,-999,-999.0,-999.0,95,-99.99,,,-99.99,22.0,HOBO +U30 +Weather +,2013-04-14 10:10:00,
2013-04-14 06:11:00,40.9,39.8,-100.00,North,-999,-999.0,-999.0,95,-99.99,,,-99.99,23.0,HOBO +U30 +Weather +,2013-04-14 10:11:00,
2013-04-14 06:12:00,40.9,39.8,-100.00,North,-999,-999.0,-999.0,95,-99.99,,,-99.99,24.0,HOBO +U30 +Weather +,2013-04-14 10:12:00,
2013-04-14 06:13:00,40.9,39.9,-100.00,North,-999,-999.0,-999.0,95,-99.99,,,-99.99,26.0,HOBO +U30 +Weather +,2013-04-14 10:13:00,
2013-04-14 06:14:00,40.9,39.9,-100.00,North,-999,-999.0,-999.0,96,-99.99,,,-99.99,31.0,HOBO +U30 +Weather +,2013-04-14 10:14:00,
2013-04-14 06:15:00,41.0,40.0,-100.00,North,-999,-999.0,-999.0,96,-99.99,,,-99.99,38.0,HOBO +U30 +Weather +,2013-04-14 10:15:00,
2013-04-14 06:16:00,41.0,40.0,-100.00,North,-999,-999.0,-999.0,96,-99.99,,,-99.99,42.0,HOBO +U30 +Weather +,2013-04-14 10:16:00,
2013-04-14 06:17:00,41.0,40.0,-100.00,North,-999,-999.0,-999.0,96,-99.99,,,-99.99,42.0,HOBO +U30 +Weather +,2013-04-14 10:17:00,
2013-04-14 06:18:00,41.1,40.1,-100.00,North,-999,-999.0,-999.0,96,-99.99,,,-99.99,39.0,HOBO +U30 +Weather +,2013-04-14 10:18:00,
2013-04-14 06:19:00,41.1,40.1,-100.00,North,-999,-999.0,-999.0,96,-99.99,,,-99.99,36.0,HOBO +U30 +Weather +,2013-04-14 10:19:00,
2013-04-14 06:20:00,41.2,40.2,-100.00,North,-999,-999.0,-999.0,96,-99.99,,,-99.99,31.0,HOBO +U30 +Weather +,2013-04-14 10:20:00,
2013-04-14 06:21:00,41.2,40.2,-100.00,North,-999,-999.0,-999.0,96,-99.99,,,-99.99,29.0,HOBO +U30 +Weather +,2013-04-14 10:21:00,
2013-04-14 06:22:00,41.2,40.2,-100.00,North,-999,-999.0,-999.0,96,-99.99,,,-99.99,33.0,HOBO +U30 +Weather +,2013-04-14 10:22:00,
2013-04-14 06:23:00,41.1,40.1,-100.00,North,-999,-999.0,-999.0,96,-99.99,,,-99.99,39.0,HOBO +U30 +Weather +,2013-04-14 10:23:00,
2013-04-14 06:24:00,41.1,40.1,-100.00,North,-999,-999.0,-999.0,96,-99.99,,,-99.99,44.0,HOBO +U30 +Weather +,2013-04-14 10:24:00,
2013-04-14 06:25:00,41.1,40.0,-100.00,North,-999,-999.0,-999.0,96,-99.99,,,-99.99,49.0,HOBO +U30 +Weather +,2013-04-14 10:25:00,
2013-04-14 06:26:00,41.1,40.0,-100.00,North,-999,-999.0,-999.0,96,-99.99,,,-99.99,53.0,HOBO +U30 +Weather +,2013-04-14 10:26:00,
2013-04-14 06:27:00,41.0,40.0,-100.00,North,-999,-999.0,-999.0,96,-99.99,,,-99.99,51.0,HOBO +U30 +Weather +,2013-04-14 10:27:00,
2013-04-14 06:28:00,41.0,40.0,-100.00,North,-999,-999.0,-999.0,96,-99.99,,,-99.99,44.0,HOBO +U30 +Weather +,2013-04-14 10:28:00,
2013-04-14 06:29:00,41.1,40.1,-100.00,North,-999,-999.0,-999.0,96,-99.99,,,-99.99,41.0,HOBO +U30 +Weather +,2013-04-14 10:29:00,
2013-04-14 06:30:00,41.1,40.0,-100.00,North,-999,-999.0,-999.0,96,-99.99,,,-99.99,39.0,HOBO +U30 +Weather +,2013-04-14 10:30:00,
2013-04-14 06:31:00,41.1,40.1,-100.00,North,-999,-999.0,-999.0,96,-99.99,,,-99.99,44.0,HOBO +U30 +Weather +,2013-04-14 10:31:00,
2013-04-14 06:32:00,41.2,40.2,-100.00,North,-999,-999.0,-999.0,96,-99.99,,,-99.99,51.0,HOBO +U30 +Weather +,2013-04-14 10:32:00,
2013-04-14 06:33:00,41.3,40.3,-100.00,North,-999,-999.0,-999.0,96,-99.99,,,-99.99,68.0,HOBO +U30 +Weather +,2013-04-14 10:33:00,
2013-04-14 06:34:00,41.3,40.3,-100.00,North,-999,-999.0,-999.0,96,-99.99,,,-99.99,82.0,HOBO +U30 +Weather +,2013-04-14 10:34:00,
2013-04-14 06:35:00,41.4,40.4,-100.00,North,-999,-999.0,-999.0,96,-99.99,,,-99.99,92.0,HOBO +U30 +Weather +,2013-04-14 10:35:00,
2013-04-14 06:36:00,41.5,40.5,-100.00,North,-999,-999.0,-999.0,96,-99.99,,,-99.99,98.0,HOBO +U30 +Weather +,2013-04-14 10:36:00,
2013-04-14 06:37:00,41.6,40.6,-100.00,North,-999,-999.0,-999.0,96,-99.99,,,-99.99,101.0,HOBO +U30 +Weather +,2013-04-14 10:37:00,
2013-04-14 06:38:00,41.7,40.7,-100.00,North,-999,-999.0,-999.0,96,-99.99,,,-99.99,103.0,HOBO +U30 +Weather +,2013-04-14 10:38:00,
2013-04-14 06:39:00,42.0,41.0,-100.00,North,-999,-999.0,-999.0,96,-99.99,,,-99.99,99.0,HOBO +U30 +Weather +,2013-04-14 10:39:00,
2013-04-14 06:40:00,42.2,41.2,-100.00,North,-999,-999.0,-999.0,96,-99.99,,,-99.99,101.0,HOBO +U30 +Weather +,2013-04-14 10:40:00,
2013-04-14 06:41:00,42.4,41.5,-100.00,North,-999,-999.0,-999.0,96,-99.99,,,-99.99,102.0,HOBO +U30 +Weather +,2013-04-14 10:41:00,
2013-04-14 06:42:00,42.6,41.6,-100.00,North,-999,-999.0,-999.0,96,-99.99,,,-99.99,97.0,HOBO +U30 +Weather +,2013-04-14 10:42:00,
2013-04-14 06:43:00,42.8,41.8,-100.00,North,-999,-999.0,-999.0,96,-99.99,,,-99.99,83.0,HOBO +U30 +Weather +,2013-04-14 10:43:00,
2013-04-14 06:44:00,42.9,41.8,-100.00,North,-999,-999.0,-999.0,96,-99.99,,,-99.99,78.0,HOBO +U30 +Weather +,2013-04-14 10:44:00,
2013-04-14 06:45:00,42.9,41.8,-100.00,North,-999,-999.0,-999.0,96,-99.99,,,-99.99,86.0,HOBO +U30 +Weather +,2013-04-14 10:45:00,
2013-04-14 06:46:00,42.9,41.9,-100.00,North,-999,-999.0,-999.0,96,-99.99,,,-99.99,89.0,HOBO +U30 +Weather +,2013-04-14 10:46:00,
2013-04-14 06:47:00,43.0,42.0,-100.00,North,-999,-999.0,-999.0,96,-99.99,,,-99.99,87.0,HOBO +U30 +Weather +,2013-04-14 10:47:00,
2013-04-14 06:48:00,43.1,42.1,-100.00,North,-999,-999.0,-999.0,96,-99.99,,,-99.99,88.0,HOBO +U30 +Weather +,2013-04-14 10:48:00,
2013-04-14 06:49:00,43.1,42.1,-100.00,North,-999,-999.0,-999.0,96,-99.99,,,-99.99,96.0,HOBO +U30 +Weather +,2013-04-14 10:49:00,
2013-04-14 06:50:00,43.3,42.2,-100.00,North,-999,-999.0,-999.0,96,-99.99,,,-99.99,102.0,HOBO +U30 +Weather +,2013-04-14 10:50:00,
2013-04-14 06:51:00,43.3,42.2,-100.00,North,-999,-999.0,-999.0,96,-99.99,,,-99.99,117.0,HOBO +U30 +Weather +,2013-04-14 10:51:00,
2013-04-14 06:52:00,43.4,42.3,-100.00,North,-999,-999.0,-999.0,96,-99.99,,,-99.99,127.0,HOBO +U30 +Weather +,2013-04-14 10:52:00,
2013-04-14 06:53:00,43.5,42.4,-100.00,North,-999,-999.0,-999.0,96,-99.99,,,-99.99,127.0,HOBO +U30 +Weather +,2013-04-14 10:53:00,
2013-04-14 06:54:00,43.7,42.7,-100.00,North,-999,-999.0,-999.0,96,-99.99,,,-99.99,122.0,HOBO +U30 +Weather +,2013-04-14 10:54:00,
2013-04-14 06:55:00,44.0,43.0,-100.00,North,-999,-999.0,-999.0,96,-99.99,,,-99.99,113.0,HOBO +U30 +Weather +,2013-04-14 10:55:00,
2013-04-14 06:56:00,44.1,43.1,-100.00,North,-999,-999.0,-999.0,95,-99.99,,,-99.99,104.0,HOBO +U30 +Weather +,2013-04-14 10:56:00,
2013-04-14 06:57:00,44.2,43.1,-100.00,North,-999,-999.0,-999.0,95,-99.99,,,-99.99,96.0,HOBO +U30 +Weather +,2013-04-14 10:57:00,
2013-04-14 06:58:00,44.3,43.2,-100.00,North,-999,-999.0,-999.0,95,-99.99,,,-99.99,89.0,HOBO +U30 +Weather +,2013-04-14 10:58:00,
2013-04-14 06:59:00,44.6,43.5,-100.00,North,-999,-999.0,-999.0,95,-99.99,,,-99.99,84.0,HOBO +U30 +Weather +,2013-04-14 10:59:00,
2013-04-14 07:00:00,44.7,43.6,-100.00,North,-999,-999.0,-999.0,95,-99.99,,,-99.99,89.0,HOBO +U30 +Weather +,2013-04-14 11:00:00,
2013-04-14 07:01:00,44.8,43.6,-100.00,North,-999,-999.0,-999.0,95,-99.99,,,-99.99,94.0,HOBO +U30 +Weather +,2013-04-14 11:01:00,
2013-04-14 07:02:00,44.8,43.6,-100.00,North,-999,-999.0,-999.0,95,-99.99,,,-99.99,93.0,HOBO +U30 +Weather +,2013-04-14 11:02:00,
2013-04-14 07:03:00,44.8,43.6,-100.00,North,-999,-999.0,-999.0,95,-99.99,,,-99.99,91.0,HOBO +U30 +Weather +,2013-04-14 11:03:00,
2013-04-14 07:04:00,44.9,43.6,-100.00,North,-999,-999.0,-999.0,95,-99.99,,,-99.99,89.0,HOBO +U30 +Weather +,2013-04-14 11:04:00,
2013-04-14 07:05:00,44.9,43.6,-100.00,North,-999,-999.0,-999.0,95,-99.99,,,-99.99,91.0,HOBO +U30 +Weather +,2013-04-14 11:05:00,
2013-04-14 07:06:00,45.0,43.6,-100.00,North,-999,-999.0,-999.0,94,-99.99,,,-99.99,89.0,HOBO +U30 +Weather +,2013-04-14 11:06:00,
2013-04-14 07:07:00,45.1,43.7,-100.00,North,-999,-999.0,-999.0,94,-99.99,,,-99.99,88.0,HOBO +U30 +Weather +,2013-04-14 11:07:00,
2013-04-14 07:08:00,45.2,43.7,-100.00,North,-999,-999.0,-999.0,94,-99.99,,,-99.99,97.0,HOBO +U30 +Weather +,2013-04-14 11:08:00,
2013-04-14 07:09:00,45.2,43.7,-100.00,North,-999,-999.0,-999.0,94,-99.99,,,-99.99,102.0,HOBO +U30 +Weather +,2013-04-14 11:09:00,
2013-04-14 07:10:00,45.3,43.7,-100.00,North,-999,-999.0,-999.0,94,-99.99,,,-99.99,94.0,HOBO +U30 +Weather +,2013-04-14 11:10:00,
2013-04-14 07:11:00,45.4,43.7,-100.00,North,-999,-999.0,-999.0,93,-99.99,,,-99.99,97.0,HOBO +U30 +Weather +,2013-04-14 11:11:00,
2013-04-14 07:12:00,45.4,43.7,-100.00,North,-999,-999.0,-999.0,93,-99.99,,,-99.99,103.0,HOBO +U30 +Weather +,2013-04-14 11:12:00,
2013-04-14 07:13:00,45.5,43.7,-100.00,North,-999,-999.0,-999.0,93,-99.99,,,-99.99,97.0,HOBO +U30 +Weather +,2013-04-14 11:13:00,
2013-04-14 07:14:00,45.5,43.7,-100.00,North,-999,-999.0,-999.0,93,-99.99,,,-99.99,89.0,HOBO +U30 +Weather +,2013-04-14 11:14:00,
2013-04-14 07:15:00,45.6,43.7,-100.00,North,-999,-999.0,-999.0,93,-99.99,,,-99.99,84.0,HOBO +U30 +Weather +,2013-04-14 11:15:00,
2013-04-14 07:16:00,45.7,43.7,-100.00,North,-999,-999.0,-999.0,92,-99.99,,,-99.99,78.0,HOBO +U30 +Weather +,2013-04-14 11:16:00,
2013-04-14 07:17:00,45.7,43.8,-100.00,North,-999,-999.0,-999.0,92,-99.99,,,-99.99,74.0,HOBO +U30 +Weather +,2013-04-14 11:17:00,
2013-04-14 07:18:00,45.7,43.8,-100.00,North,-999,-999.0,-999.0,92,-99.99,,,-99.99,73.0,HOBO +U30 +Weather +,2013-04-14 11:18:00,
2013-04-14 07:19:00,45.8,43.8,-100.00,North,-999,-999.0,-999.0,92,-99.99,,,-99.99,72.0,HOBO +U30 +Weather +,2013-04-14 11:19:00,
2013-04-14 07:20:00,45.8,43.8,-100.00,North,-999,-999.0,-999.0,92,-99.99,,,-99.99,73.0,HOBO +U30 +Weather +,2013-04-14 11:20:00,
2013-04-14 07:21:00,45.8,43.7,-100.00,North,-999,-999.0,-999.0,92,-99.99,,,-99.99,74.0,HOBO +U30 +Weather +,2013-04-14 11:21:00,
2013-04-14 07:22:00,45.8,43.7,-100.00,North,-999,-999.0,-999.0,92,-99.99,,,-99.99,77.0,HOBO +U30 +Weather +,2013-04-14 11:22:00,
2013-04-14 07:23:00,45.8,43.6,-100.00,North,-999,-999.0,-999.0,92,-99.99,,,-99.99,79.0,HOBO +U30 +Weather +,2013-04-14 11:23:00,
2013-04-14 07:24:00,45.8,43.6,-100.00,North,-999,-999.0,-999.0,91,-99.99,,,-99.99,82.0,HOBO +U30 +Weather +,2013-04-14 11:24:00,
2013-04-14 07:25:00,45.9,43.7,-100.00,North,-999,-999.0,-999.0,91,-99.99,,,-99.99,84.0,HOBO +U30 +Weather +,2013-04-14 11:25:00,
2013-04-14 07:26:00,45.9,43.7,-100.00,North,-999,-999.0,-999.0,91,-99.99,,,-99.99,84.0,HOBO +U30 +Weather +,2013-04-14 11:26:00,
2013-04-14 07:27:00,46.0,43.7,-100.00,North,-999,-999.0,-999.0,91,-99.99,,,-99.99,81.0,HOBO +U30 +Weather +,2013-04-14 11:27:00,
2013-04-14 07:28:00,46.0,43.6,-100.00,North,-999,-999.0,-999.0,91,-99.99,,,-99.99,73.0,HOBO +U30 +Weather +,2013-04-14 11:28:00,
2013-04-14 07:29:00,46.0,43.6,-100.00,North,-999,-999.0,-999.0,91,-99.99,,,-99.99,71.0,HOBO +U30 +Weather +,2013-04-14 11:29:00,
2013-04-14 07:30:00,46.0,43.5,-100.00,North,-999,-999.0,-999.0,90,-99.99,,,-99.99,72.0,HOBO +U30 +Weather +,2013-04-14 11:30:00,
2013-04-14 07:31:00,46.0,43.5,-100.00,North,-999,-999.0,-999.0,90,-99.99,,,-99.99,73.0,HOBO +U30 +Weather +,2013-04-14 11:31:00,
2013-04-14 07:32:00,46.0,43.3,-100.00,North,-999,-999.0,-999.0,90,-99.99,,,-99.99,72.0,HOBO +U30 +Weather +,2013-04-14 11:32:00,
2013-04-14 07:33:00,46.1,43.3,-100.00,North,-999,-999.0,-999.0,89,-99.99,,,-99.99,72.0,HOBO +U30 +Weather +,2013-04-14 11:33:00,
2013-04-14 07:34:00,46.1,43.3,-100.00,North,-999,-999.0,-999.0,89,-99.99,,,-99.99,73.0,HOBO +U30 +Weather +,2013-04-14 11:34:00,
2013-04-14 07:35:00,46.2,43.3,-100.00,North,-999,-999.0,-999.0,89,-99.99,,,-99.99,78.0,HOBO +U30 +Weather +,2013-04-14 11:35:00,
2013-04-14 07:36:00,46.3,43.0,-100.00,North,-999,-999.0,-999.0,88,-99.99,,,-99.99,83.0,HOBO +U30 +Weather +,2013-04-14 11:36:00,
2013-04-14 07:37:00,46.3,43.1,-100.00,North,-999,-999.0,-999.0,88,-99.99,,,-99.99,89.0,HOBO +U30 +Weather +,2013-04-14 11:37:00,
2013-04-14 07:38:00,46.4,43.2,-100.00,North,-999,-999.0,-999.0,88,-99.99,,,-99.99,99.0,HOBO +U30 +Weather +,2013-04-14 11:38:00,
2013-04-14 07:39:00,46.4,43.3,-100.00,North,-999,-999.0,-999.0,88,-99.99,,,-99.99,108.0,HOBO +U30 +Weather +,2013-04-14 11:39:00,
2013-04-14 07:40:00,46.4,43.2,-100.00,North,-999,-999.0,-999.0,88,-99.99,,,-99.99,109.0,HOBO +U30 +Weather +,2013-04-14 11:40:00,
2013-04-14 07:41:00,46.5,43.3,-100.00,North,-999,-999.0,-999.0,88,-99.99,,,-99.99,108.0,HOBO +U30 +Weather +,2013-04-14 11:41:00,
2013-04-14 07:42:00,46.6,43.5,-100.00,North,-999,-999.0,-999.0,88,-99.99,,,-99.99,116.0,HOBO +U30 +Weather +,2013-04-14 11:42:00,
2013-04-14 07:43:00,46.7,43.5,-100.00,North,-999,-999.0,-999.0,88,-99.99,,,-99.99,124.0,HOBO +U30 +Weather +,2013-04-14 11:43:00,
2013-04-14 07:44:00,46.7,43.5,-100.00,North,-999,-999.0,-999.0,88,-99.99,,,-99.99,127.0,HOBO +U30 +Weather +,2013-04-14 11:44:00,
2013-04-14 07:45:00,46.7,43.6,-100.00,North,-999,-999.0,-999.0,88,-99.99,,,-99.99,126.0,HOBO +U30 +Weather +,2013-04-14 11:45:00,
2013-04-14 07:46:00,46.8,43.6,-100.00,North,-999,-999.0,-999.0,88,-99.99,,,-99.99,127.0,HOBO +U30 +Weather +,2013-04-14 11:46:00,
2013-04-14 07:47:00,46.9,43.8,-100.00,North,-999,-999.0,-999.0,88,-99.99,,,-99.99,137.0,HOBO +U30 +Weather +,2013-04-14 11:47:00,
2013-04-14 07:48:00,47.0,43.7,-100.00,North,-999,-999.0,-999.0,88,-99.99,,,-99.99,148.0,HOBO +U30 +Weather +,2013-04-14 11:48:00,
2013-04-14 07:49:00,47.0,43.8,-100.00,North,-999,-999.0,-999.0,88,-99.99,,,-99.99,144.0,HOBO +U30 +Weather +,2013-04-14 11:49:00,
2013-04-14 07:50:00,47.1,43.8,-100.00,North,-999,-999.0,-999.0,88,-99.99,,,-99.99,141.0,HOBO +U30 +Weather +,2013-04-14 11:50:00,
2013-04-14 07:51:00,47.2,44.0,-100.00,North,-999,-999.0,-999.0,88,-99.99,,,-99.99,142.0,HOBO +U30 +Weather +,2013-04-14 11:51:00,
2013-04-14 07:52:00,47.2,44.0,-100.00,North,-999,-999.0,-999.0,88,-99.99,,,-99.99,139.0,HOBO +U30 +Weather +,2013-04-14 11:52:00,
2013-04-14 07:53:00,47.1,43.7,-100.00,North,-999,-999.0,-999.0,87,-99.99,,,-99.99,133.0,HOBO +U30 +Weather +,2013-04-14 11:53:00,
2013-04-14 07:54:00,47.1,43.8,-100.00,North,-999,-999.0,-999.0,88,-99.99,,,-99.99,136.0,HOBO +U30 +Weather +,2013-04-14 11:54:00,
2013-04-14 07:55:00,47.2,43.9,-100.00,North,-999,-999.0,-999.0,88,-99.99,,,-99.99,146.0,HOBO +U30 +Weather +,2013-04-14 11:55:00,
2013-04-14 07:56:00,47.2,44.0,-100.00,North,-999,-999.0,-999.0,88,-99.99,,,-99.99,143.0,HOBO +U30 +Weather +,2013-04-14 11:56:00,
2013-04-14 07:57:00,47.3,43.9,-100.00,North,-999,-999.0,-999.0,88,-99.99,,,-99.99,129.0,HOBO +U30 +Weather +,2013-04-14 11:57:00,
2013-04-14 07:58:00,47.2,43.8,-100.00,North,-999,-999.0,-999.0,87,-99.99,,,-99.99,133.0,HOBO +U30 +Weather +,2013-04-14 11:58:00,
2013-04-14 07:59:00,47.2,43.8,-100.00,North,-999,-999.0,-999.0,87,-99.99,,,-99.99,138.0,HOBO +U30 +Weather +,2013-04-14 11:59:00,
2013-04-14 08:00:00,47.2,43.8,-100.00,North,-999,-999.0,-999.0,87,-99.99,,,-99.99,138.0,HOBO +U30 +Weather +,2013-04-14 12:00:00,
2013-04-14 08:01:00,47.2,43.9,-100.00,North,-999,-999.0,-999.0,88,-99.99,,,-99.99,139.0,HOBO +U30 +Weather +,2013-04-14 12:01:00,
2013-04-14 08:02:00,47.3,43.9,-100.00,North,-999,-999.0,-999.0,88,-99.99,,,-99.99,147.0,HOBO +U30 +Weather +,2013-04-14 12:02:00,
2013-04-14 08:03:00,47.3,43.9,-100.00,North,-999,-999.0,-999.0,87,-99.99,,,-99.99,153.0,HOBO +U30 +Weather +,2013-04-14 12:03:00,
2013-04-14 08:04:00,47.3,43.9,-100.00,North,-999,-999.0,-999.0,87,-99.99,,,-99.99,156.0,HOBO +U30 +Weather +,2013-04-14 12:04:00,
2013-04-14 08:05:00,47.3,44.0,-100.00,North,-999,-999.0,-999.0,87,-99.99,,,-99.99,158.0,HOBO +U30 +Weather +,2013-04-14 12:05:00,
2013-04-14 08:06:00,47.5,44.1,-100.00,North,-999,-999.0,-999.0,88,-99.99,,,-99.99,159.0,HOBO +U30 +Weather +,2013-04-14 12:06:00,
2013-04-14 08:07:00,47.5,44.1,-100.00,North,-999,-999.0,-999.0,87,-99.99,,,-99.99,152.0,HOBO +U30 +Weather +,2013-04-14 12:07:00,
2013-04-14 08:08:00,47.6,44.1,-100.00,North,-999,-999.0,-999.0,87,-99.99,,,-99.99,148.0,HOBO +U30 +Weather +,2013-04-14 12:08:00,
2013-04-14 08:09:00,47.5,44.0,-100.00,North,-999,-999.0,-999.0,87,-99.99,,,-99.99,149.0,HOBO +U30 +Weather +,2013-04-14 12:09:00,
2013-04-14 08:10:00,47.5,43.9,-100.00,North,-999,-999.0,-999.0,87,-99.99,,,-99.99,148.0,HOBO +U30 +Weather +,2013-04-14 12:10:00,
2013-04-14 08:11:00,47.5,43.8,-100.00,North,-999,-999.0,-999.0,86,-99.99,,,-99.99,146.0,HOBO +U30 +Weather +,2013-04-14 12:11:00,
2013-04-14 08:12:00,47.4,43.7,-100.00,North,-999,-999.0,-999.0,86,-99.99,,,-99.99,146.0,HOBO +U30 +Weather +,2013-04-14 12:12:00,
2013-04-14 08:13:00,47.4,43.6,-100.00,North,-999,-999.0,-999.0,86,-99.99,,,-99.99,151.0,HOBO +U30 +Weather +,2013-04-14 12:13:00,
2013-04-14 08:14:00,47.5,43.8,-100.00,North,-999,-999.0,-999.0,86,-99.99,,,-99.99,162.0,HOBO +U30 +Weather +,2013-04-14 12:14:00,
2013-04-14 08:15:00,47.5,43.7,-100.00,North,-999,-999.0,-999.0,86,-99.99,,,-99.99,169.0,HOBO +U30 +Weather +,2013-04-14 12:15:00,
2013-04-14 08:16:00,47.6,43.8,-100.00,North,-999,-999.0,-999.0,86,-99.99,,,-99.99,178.0,HOBO +U30 +Weather +,2013-04-14 12:16:00,
2013-04-14 08:17:00,47.6,43.8,-100.00,North,-999,-999.0,-999.0,86,-99.99,,,-99.99,182.0,HOBO +U30 +Weather +,2013-04-14 12:17:00,
2013-04-14 08:18:00,47.7,43.9,-100.00,North,-999,-999.0,-999.0,86,-99.99,,,-99.99,178.0,HOBO +U30 +Weather +,2013-04-14 12:18:00,
2013-04-14 08:19:00,47.7,43.9,-100.00,North,-999,-999.0,-999.0,86,-99.99,,,-99.99,196.0,HOBO +U30 +Weather +,2013-04-14 12:19:00,
2013-04-14 08:20:00,47.7,43.8,-100.00,North,-999,-999.0,-999.0,86,-99.99,,,-99.99,192.0,HOBO +U30 +Weather +,2013-04-14 12:20:00,
2013-04-14 08:21:00,47.8,44.0,-100.00,North,-999,-999.0,-999.0,86,-99.99,,,-99.99,199.0,HOBO +U30 +Weather +,2013-04-14 12:21:00,
2013-04-14 08:22:00,47.8,44.0,-100.00,North,-999,-999.0,-999.0,86,-99.99,,,-99.99,204.0,HOBO +U30 +Weather +,2013-04-14 12:22:00,
2013-04-14 08:23:00,48.0,44.2,-100.00,North,-999,-999.0,-999.0,86,-99.99,,,-99.99,203.0,HOBO +U30 +Weather +,2013-04-14 12:23:00,
2013-04-14 08:24:00,48.0,44.1,-100.00,North,-999,-999.0,-999.0,86,-99.99,,,-99.99,207.0,HOBO +U30 +Weather +,2013-04-14 12:24:00,
2013-04-14 08:25:00,48.0,44.0,-100.00,North,-999,-999.0,-999.0,85,-99.99,,,-99.99,219.0,HOBO +U30 +Weather +,2013-04-14 12:25:00,
2013-04-14 08:26:00,48.1,44.2,-100.00,North,-999,-999.0,-999.0,86,-99.99,,,-99.99,236.0,HOBO +U30 +Weather +,2013-04-14 12:26:00,
2013-04-14 08:27:00,48.1,44.2,-100.00,North,-999,-999.0,-999.0,85,-99.99,,,-99.99,238.0,HOBO +U30 +Weather +,2013-04-14 12:27:00,
2013-04-14 08:28:00,48.3,44.2,-100.00,North,-999,-999.0,-999.0,85,-99.99,,,-99.99,244.0,HOBO +U30 +Weather +,2013-04-14 12:28:00,
2013-04-14 08:29:00,48.5,44.2,-100.00,North,-999,-999.0,-999.0,85,-99.99,,,-99.99,264.0,HOBO +U30 +Weather +,2013-04-14 12:29:00,
2013-04-14 08:30:00,48.5,44.2,-100.00,North,-999,-999.0,-999.0,84,-99.99,,,-99.99,517.0,HOBO +U30 +Weather +,2013-04-14 12:30:00,
2013-04-14 08:31:00,48.6,44.2,-100.00,North,-999,-999.0,-999.0,84,-99.99,,,-99.99,243.0,HOBO +U30 +Weather +,2013-04-14 12:31:00,
2013-04-14 08:32:00,48.7,44.5,-100.00,North,-999,-999.0,-999.0,85,-99.99,,,-99.99,244.0,HOBO +U30 +Weather +,2013-04-14 12:32:00,
2013-04-14 08:33:00,48.8,44.5,-100.00,North,-999,-999.0,-999.0,84,-99.99,,,-99.99,258.0,HOBO +U30 +Weather +,2013-04-14 12:33:00,
2013-04-14 08:34:00,48.9,44.5,-100.00,North,-999,-999.0,-999.0,84,-99.99,,,-99.99,289.0,HOBO +U30 +Weather +,2013-04-14 12:34:00,
2013-04-14 08:35:00,49.0,44.3,-100.00,North,-999,-999.0,-999.0,83,-99.99,,,-99.99,263.0,HOBO +U30 +Weather +,2013-04-14 12:35:00,
2013-04-14 08:36:00,48.9,44.3,-100.00,North,-999,-999.0,-999.0,83,-99.99,,,-99.99,264.0,HOBO +U30 +Weather +,2013-04-14 12:36:00,
2013-04-14 08:37:00,49.1,44.7,-100.00,North,-999,-999.0,-999.0,84,-99.99,,,-99.99,278.0,HOBO +U30 +Weather +,2013-04-14 12:37:00,
2013-04-14 08:38:00,49.3,44.7,-100.00,North,-999,-999.0,-999.0,84,-99.99,,,-99.99,397.0,HOBO +U30 +Weather +,2013-04-14 12:38:00,
2013-04-14 08:39:00,49.4,44.4,-100.00,North,-999,-999.0,-999.0,82,-99.99,,,-99.99,266.0,HOBO +U30 +Weather +,2013-04-14 12:39:00,
2013-04-14 08:40:00,49.4,44.4,-100.00,North,-999,-999.0,-999.0,82,-99.99,,,-99.99,277.0,HOBO +U30 +Weather +,2013-04-14 12:40:00,
2013-04-14 08:41:00,49.7,44.7,-100.00,North,-999,-999.0,-999.0,82,-99.99,,,-99.99,291.0,HOBO +U30 +Weather +,2013-04-14 12:41:00,
2013-04-14 08:42:00,49.7,44.5,-100.00,North,-999,-999.0,-999.0,82,-99.99,,,-99.99,296.0,HOBO +U30 +Weather +,2013-04-14 12:42:00,
2013-04-14 08:43:00,49.8,44.8,-100.00,North,-999,-999.0,-999.0,82,-99.99,,,-99.99,303.0,HOBO +U30 +Weather +,2013-04-14 12:43:00,
2013-04-14 08:44:00,50.0,45.0,-100.00,North,-999,-999.0,-999.0,82,-99.99,,,-99.99,321.0,HOBO +U30 +Weather +,2013-04-14 12:44:00,
2013-04-14 08:45:00,50.2,45.2,-100.00,North,-999,-999.0,-999.0,82,-99.99,,,-99.99,328.0,HOBO +U30 +Weather +,2013-04-14 12:45:00,
2013-04-14 08:46:00,50.1,45.1,-100.00,North,-999,-999.0,-999.0,82,-99.99,,,-99.99,338.0,HOBO +U30 +Weather +,2013-04-14 12:46:00,
2013-04-14 08:47:00,50.1,45.1,-100.00,North,-999,-999.0,-999.0,82,-99.99,,,-99.99,346.0,HOBO +U30 +Weather +,2013-04-14 12:47:00,
2013-04-14 08:48:00,50.2,45.4,-100.00,North,-999,-999.0,-999.0,83,-99.99,,,-99.99,587.0,HOBO +U30 +Weather +,2013-04-14 12:48:00,
2013-04-14 08:49:00,50.5,45.8,-100.00,North,-999,-999.0,-999.0,83,-99.99,,,-99.99,347.0,HOBO +U30 +Weather +,2013-04-14 12:49:00,
2013-04-14 08:50:00,50.5,45.5,-100.00,North,-999,-999.0,-999.0,83,-99.99,,,-99.99,334.0,HOBO +U30 +Weather +,2013-04-14 12:50:00,
2013-04-14 08:51:00,50.5,45.8,-100.00,North,-999,-999.0,-999.0,83,-99.99,,,-99.99,366.0,HOBO +U30 +Weather +,2013-04-14 12:51:00,
2013-04-14 08:52:00,50.5,45.5,-100.00,North,-999,-999.0,-999.0,83,-99.99,,,-99.99,333.0,HOBO +U30 +Weather +,2013-04-14 12:52:00,
2013-04-14 08:53:00,50.3,45.3,-100.00,North,-999,-999.0,-999.0,82,-99.99,,,-99.99,407.0,HOBO +U30 +Weather +,2013-04-14 12:53:00,
2013-04-14 08:54:00,50.3,45.3,-100.00,North,-999,-999.0,-999.0,82,-99.99,,,-99.99,369.0,HOBO +U30 +Weather +,2013-04-14 12:54:00,
2013-04-14 08:55:00,50.2,45.2,-100.00,North,-999,-999.0,-999.0,82,-99.99,,,-99.99,296.0,HOBO +U30 +Weather +,2013-04-14 12:55:00,
2013-04-14 08:56:00,50.1,45.1,-100.00,North,-999,-999.0,-999.0,82,-99.99,,,-99.99,294.0,HOBO +U30 +Weather +,2013-04-14 12:56:00,
2013-04-14 08:57:00,50.1,45.1,-100.00,North,-999,-999.0,-999.0,82,-99.99,,,-99.99,306.0,HOBO +U30 +Weather +,2013-04-14 12:57:00,
2013-04-14 08:58:00,50.2,45.1,-100.00,North,-999,-999.0,-999.0,82,-99.99,,,-99.99,324.0,HOBO +U30 +Weather +,2013-04-14 12:58:00,
2013-04-14 08:59:00,50.2,45.2,-100.00,North,-999,-999.0,-999.0,82,-99.99,,,-99.99,331.0,HOBO +U30 +Weather +,2013-04-14 12:59:00,
2013-04-14 09:00:00,50.4,45.2,-100.00,North,-999,-999.0,-999.0,82,-99.99,,,-99.99,354.0,HOBO +U30 +Weather +,2013-04-14 13:00:00,
2013-04-14 09:01:00,50.5,45.3,-100.00,North,-999,-999.0,-999.0,82,-99.99,,,-99.99,388.0,HOBO +U30 +Weather +,2013-04-14 13:01:00,
2013-04-14 09:02:00,51.1,46.1,-100.00,North,-999,-999.0,-999.0,83,-99.99,,,-99.99,339.0,HOBO +U30 +Weather +,2013-04-14 13:02:00,
2013-04-14 09:03:00,51.4,45.8,-100.00,North,-999,-999.0,-999.0,81,-99.99,,,-99.99,488.0,HOBO +U30 +Weather +,2013-04-14 13:03:00,
2013-04-14 09:04:00,51.5,45.3,-100.00,North,-999,-999.0,-999.0,79,-99.99,,,-99.99,302.0,HOBO +U30 +Weather +,2013-04-14 13:04:00,
2013-04-14 09:05:00,51.6,45.5,-100.00,North,-999,-999.0,-999.0,79,-99.99,,,-99.99,434.0,HOBO +U30 +Weather +,2013-04-14 13:05:00,
2013-04-14 09:06:00,51.7,45.0,-100.00,North,-999,-999.0,-999.0,77,-99.99,,,-99.99,347.0,HOBO +U30 +Weather +,2013-04-14 13:06:00,
2013-04-14 09:07:00,51.5,44.7,-100.00,North,-999,-999.0,-999.0,77,-99.99,,,-99.99,384.0,HOBO +U30 +Weather +,2013-04-14 13:07:00,
2013-04-14 09:08:00,51.4,44.3,-100.00,North,-999,-999.0,-999.0,76,-99.99,,,-99.99,438.0,HOBO +U30 +Weather +,2013-04-14 13:08:00,
2013-04-14 09:09:00,51.4,44.5,-100.00,North,-999,-999.0,-999.0,77,-99.99,,,-99.99,432.0,HOBO +U30 +Weather +,2013-04-14 13:09:00,
2013-04-14 09:10:00,51.6,44.8,-100.00,North,-999,-999.0,-999.0,77,-99.99,,,-99.99,556.0,HOBO +U30 +Weather +,2013-04-14 13:10:00,
2013-04-14 09:11:00,51.9,44.7,-100.00,North,-999,-999.0,-999.0,76,-99.99,,,-99.99,372.0,HOBO +U30 +Weather +,2013-04-14 13:11:00,
2013-04-14 09:12:00,51.9,44.4,-100.00,North,-999,-999.0,-999.0,75,-99.99,,,-99.99,421.0,HOBO +U30 +Weather +,2013-04-14 13:12:00,
2013-04-14 09:13:00,52.1,45.2,-100.00,North,-999,-999.0,-999.0,77,-99.99,,,-99.99,367.0,HOBO +U30 +Weather +,2013-04-14 13:13:00,
2013-04-14 09:14:00,52.1,45.0,-100.00,North,-999,-999.0,-999.0,76,-99.99,,,-99.99,412.0,HOBO +U30 +Weather +,2013-04-14 13:14:00,
2013-04-14 09:15:00,52.3,44.9,-100.00,North,-999,-999.0,-999.0,75,-99.99,,,-99.99,376.0,HOBO +U30 +Weather +,2013-04-14 13:15:00,
2013-04-14 09:16:00,52.0,44.4,-100.00,North,-999,-999.0,-999.0,75,-99.99,,,-99.99,861.0,HOBO +U30 +Weather +,2013-04-14 13:16:00,
2013-04-14 09:17:00,52.1,44.7,-100.00,North,-999,-999.0,-999.0,75,-99.99,,,-99.99,408.0,HOBO +U30 +Weather +,2013-04-14 13:17:00,
2013-04-14 09:18:00,52.3,44.8,-100.00,North,-999,-999.0,-999.0,75,-99.99,,,-99.99,564.0,HOBO +U30 +Weather +,2013-04-14 13:18:00,
2013-04-14 09:19:00,52.6,45.2,-100.00,North,-999,-999.0,-999.0,75,-99.99,,,-99.99,376.0,HOBO +U30 +Weather +,2013-04-14 13:19:00,
2013-04-14 09:20:00,52.8,44.7,-100.00,North,-999,-999.0,-999.0,73,-99.99,,,-99.99,388.0,HOBO +U30 +Weather +,2013-04-14 13:20:00,
2013-04-14 09:21:00,52.5,44.4,-100.00,North,-999,-999.0,-999.0,74,-99.99,,,-99.99,381.0,HOBO +U30 +Weather +,2013-04-14 13:21:00,
2013-04-14 09:22:00,52.2,44.1,-100.00,North,-999,-999.0,-999.0,73,-99.99,,,-99.99,538.0,HOBO +U30 +Weather +,2013-04-14 13:22:00,
2013-04-14 09:23:00,52.4,44.7,-100.00,North,-999,-999.0,-999.0,74,-99.99,,,-99.99,853.0,HOBO +U30 +Weather +,2013-04-14 13:23:00,
2013-04-14 09:24:00,53.1,45.1,-100.00,North,-999,-999.0,-999.0,74,-99.99,,,-99.99,511.0,HOBO +U30 +Weather +,2013-04-14 13:24:00,
2013-04-14 09:25:00,53.3,44.7,-100.00,North,-999,-999.0,-999.0,72,-99.99,,,-99.99,314.0,HOBO +U30 +Weather +,2013-04-14 13:25:00,
2013-04-14 09:26:00,53.1,44.6,-100.00,North,-999,-999.0,-999.0,72,-99.99,,,-99.99,786.0,HOBO +U30 +Weather +,2013-04-14 13:26:00,
2013-04-14 09:27:00,53.3,44.6,-100.00,North,-999,-999.0,-999.0,72,-99.99,,,-99.99,751.0,HOBO +U30 +Weather +,2013-04-14 13:27:00,
2013-04-14 09:28:00,53.7,44.9,-100.00,North,-999,-999.0,-999.0,72,-99.99,,,-99.99,402.0,HOBO +U30 +Weather +,2013-04-14 13:28:00,
2013-04-14 09:29:00,53.7,44.8,-100.00,North,-999,-999.0,-999.0,71,-99.99,,,-99.99,756.0,HOBO +U30 +Weather +,2013-04-14 13:29:00,
2013-04-14 09:30:00,53.8,44.7,-100.00,North,-999,-999.0,-999.0,71,-99.99,,,-99.99,534.0,HOBO +U30 +Weather +,2013-04-14 13:30:00,
2013-04-14 09:31:00,53.9,44.9,-100.00,North,-999,-999.0,-999.0,71,-99.99,,,-99.99,633.0,HOBO +U30 +Weather +,2013-04-14 13:31:00,
2013-04-14 09:32:00,53.7,44.3,-100.00,North,-999,-999.0,-999.0,70,-99.99,,,-99.99,417.0,HOBO +U30 +Weather +,2013-04-14 13:32:00,
2013-04-14 09:33:00,53.5,44.3,-100.00,North,-999,-999.0,-999.0,70,-99.99,,,-99.99,381.0,HOBO +U30 +Weather +,2013-04-14 13:33:00,
2013-04-14 09:34:00,53.8,45.1,-100.00,North,-999,-999.0,-999.0,72,-99.99,,,-99.99,911.0,HOBO +U30 +Weather +,2013-04-14 13:34:00,
2013-04-14 09:35:00,54.0,44.4,-100.00,North,-999,-999.0,-999.0,69,-99.99,,,-99.99,392.0,HOBO +U30 +Weather +,2013-04-14 13:35:00,
2013-04-14 09:36:00,53.9,44.5,-100.00,North,-999,-999.0,-999.0,70,-99.99,,,-99.99,509.0,HOBO +U30 +Weather +,2013-04-14 13:36:00,
2013-04-14 09:37:00,53.9,44.7,-100.00,North,-999,-999.0,-999.0,70,-99.99,,,-99.99,694.0,HOBO +U30 +Weather +,2013-04-14 13:37:00,
2013-04-14 09:38:00,54.0,44.5,-100.00,North,-999,-999.0,-999.0,70,-99.99,,,-99.99,848.0,HOBO +U30 +Weather +,2013-04-14 13:38:00,
2013-04-14 09:39:00,54.1,44.2,-100.00,North,-999,-999.0,-999.0,69,-99.99,,,-99.99,832.0,HOBO +U30 +Weather +,2013-04-14 13:39:00,
2013-04-14 09:40:00,54.4,44.7,-100.00,North,-999,-999.0,-999.0,69,-99.99,,,-99.99,856.0,HOBO +U30 +Weather +,2013-04-14 13:40:00,
2013-04-14 09:42:00,54.7,44.4,-100.00,North,-999,-999.0,-999.0,67,-99.99,,,-99.99,929.0,HOBO +U30 +Weather +,2013-04-14 13:42:00,
2013-04-14 09:43:00,54.7,44.5,-100.00,North,-999,-999.0,-999.0,68,-99.99,,,-99.99,759.0,HOBO +U30 +Weather +,2013-04-14 13:43:00,
2013-04-14 09:44:00,54.9,44.6,-100.00,North,-999,-999.0,-999.0,68,-99.99,,,-99.99,464.0,HOBO +U30 +Weather +,2013-04-14 13:44:00,
2013-04-14 09:45:00,55.2,44.4,-100.00,North,-999,-999.0,-999.0,67,-99.99,,,-99.99,607.0,HOBO +U30 +Weather +,2013-04-14 13:45:00,
2013-04-14 09:46:00,54.9,44.2,-100.00,North,-999,-999.0,-999.0,66,-99.99,,,-99.99,566.0,HOBO +U30 +Weather +,2013-04-14 13:46:00,
2013-04-14 09:47:00,54.6,43.5,-100.00,North,-999,-999.0,-999.0,65,-99.99,,,-99.99,399.0,HOBO +U30 +Weather +,2013-04-14 13:47:00,
2013-04-14 09:48:00,54.1,43.2,-100.00,North,-999,-999.0,-999.0,66,-99.99,,,-99.99,466.0,HOBO +U30 +Weather +,2013-04-14 13:48:00,
2013-04-14 09:49:00,53.9,42.8,-100.00,North,-999,-999.0,-999.0,65,-99.99,,,-99.99,397.0,HOBO +U30 +Weather +,2013-04-14 13:49:00,
2013-04-14 09:50:00,54.0,43.0,-100.00,North,-999,-999.0,-999.0,66,-99.99,,,-99.99,396.0,HOBO +U30 +Weather +,2013-04-14 13:50:00,
2013-04-14 09:51:00,53.8,43.1,-100.00,North,-999,-999.0,-999.0,67,-99.99,,,-99.99,456.0,HOBO +U30 +Weather +,2013-04-14 13:51:00,
2013-04-14 09:52:00,53.9,43.0,-100.00,North,-999,-999.0,-999.0,66,-99.99,,,-99.99,382.0,HOBO +U30 +Weather +,2013-04-14 13:52:00,
2013-04-14 09:53:00,53.9,43.0,-100.00,North,-999,-999.0,-999.0,66,-99.99,,,-99.99,387.0,HOBO +U30 +Weather +,2013-04-14 13:53:00,
2013-04-14 09:54:00,54.1,43.2,-100.00,North,-999,-999.0,-999.0,66,-99.99,,,-99.99,379.0,HOBO +U30 +Weather +,2013-04-14 13:54:00,
2013-04-14 09:55:00,54.0,42.9,-100.00,North,-999,-999.0,-999.0,65,-99.99,,,-99.99,364.0,HOBO +U30 +Weather +,2013-04-14 13:55:00,
2013-04-14 09:56:00,54.1,43.1,-100.00,North,-999,-999.0,-999.0,66,-99.99,,,-99.99,352.0,HOBO +U30 +Weather +,2013-04-14 13:56:00,
2013-04-14 09:57:00,54.2,43.3,-100.00,North,-999,-999.0,-999.0,66,-99.99,,,-99.99,361.0,HOBO +U30 +Weather +,2013-04-14 13:57:00,
2013-04-14 09:58:00,54.1,43.2,-100.00,North,-999,-999.0,-999.0,66,-99.99,,,-99.99,444.0,HOBO +U30 +Weather +,2013-04-14 13:58:00,
2013-04-14 09:59:00,53.9,43.2,-100.00,North,-999,-999.0,-999.0,67,-99.99,,,-99.99,362.0,HOBO +U30 +Weather +,2013-04-14 13:59:00,
2013-04-14 10:00:00,53.9,43.5,-100.00,North,-999,-999.0,-999.0,67,-99.99,,,-99.99,379.0,HOBO +U30 +Weather +,2013-04-14 14:00:00,
2013-04-14 10:01:00,53.7,43.4,-100.00,North,-999,-999.0,-999.0,67,-99.99,,,-99.99,363.0,HOBO +U30 +Weather +,2013-04-14 14:01:00,
2013-04-14 10:02:00,53.9,44.1,-100.00,North,-999,-999.0,-999.0,69,-99.99,,,-99.99,372.0,HOBO +U30 +Weather +,2013-04-14 14:02:00,
2013-04-14 10:03:00,54.3,44.1,-100.00,North,-999,-999.0,-999.0,68,-99.99,,,-99.99,371.0,HOBO +U30 +Weather +,2013-04-14 14:03:00,
2013-04-14 10:04:00,54.6,44.4,-100.00,North,-999,-999.0,-999.0,68,-99.99,,,-99.99,368.0,HOBO +U30 +Weather +,2013-04-14 14:04:00,
2013-04-14 10:05:00,54.8,44.4,-100.00,North,-999,-999.0,-999.0,67,-99.99,,,-99.99,363.0,HOBO +U30 +Weather +,2013-04-14 14:05:00,
2013-04-14 10:06:00,54.5,43.6,-100.00,North,-999,-999.0,-999.0,66,-99.99,,,-99.99,358.0,HOBO +U30 +Weather +,2013-04-14 14:06:00,
2013-04-14 10:07:00,54.6,43.8,-100.00,North,-999,-999.0,-999.0,66,-99.99,,,-99.99,394.0,HOBO +U30 +Weather +,2013-04-14 14:07:00,
2013-04-14 10:08:00,54.9,43.8,-100.00,North,-999,-999.0,-999.0,66,-99.99,,,-99.99,356.0,HOBO +U30 +Weather +,2013-04-14 14:08:00,
2013-04-14 10:09:00,54.8,43.9,-100.00,North,-999,-999.0,-999.0,66,-99.99,,,-99.99,354.0,HOBO +U30 +Weather +,2013-04-14 14:09:00,
2013-04-14 10:10:00,54.8,44.2,-100.00,North,-999,-999.0,-999.0,67,-99.99,,,-99.99,351.0,HOBO +U30 +Weather +,2013-04-14 14:10:00,
2013-04-14 10:11:00,54.8,43.9,-100.00,North,-999,-999.0,-999.0,66,-99.99,,,-99.99,341.0,HOBO +U30 +Weather +,2013-04-14 14:11:00,
2013-04-14 10:12:00,54.9,43.8,-100.00,North,-999,-999.0,-999.0,66,-99.99,,,-99.99,798.0,HOBO +U30 +Weather +,2013-04-14 14:12:00,
2013-04-14 10:13:00,54.7,43.4,-100.00,North,-999,-999.0,-999.0,65,-99.99,,,-99.99,337.0,HOBO +U30 +Weather +,2013-04-14 14:13:00,
2013-04-14 10:14:00,54.4,43.0,-100.00,North,-999,-999.0,-999.0,65,-99.99,,,-99.99,337.0,HOBO +U30 +Weather +,2013-04-14 14:14:00,
2013-04-14 10:15:00,53.9,43.1,-100.00,North,-999,-999.0,-999.0,66,-99.99,,,-99.99,309.0,HOBO +U30 +Weather +,2013-04-14 14:15:00,
2013-04-14 10:16:00,53.8,43.4,-100.00,North,-999,-999.0,-999.0,67,-99.99,,,-99.99,306.0,HOBO +U30 +Weather +,2013-04-14 14:16:00,
2013-04-14 10:17:00,53.7,43.0,-100.00,North,-999,-999.0,-999.0,66,-99.99,,,-99.99,327.0,HOBO +U30 +Weather +,2013-04-14 14:17:00,
2013-04-14 10:18:00,53.8,43.6,-100.00,North,-999,-999.0,-999.0,68,-99.99,,,-99.99,333.0,HOBO +U30 +Weather +,2013-04-14 14:18:00,
2013-04-14 10:19:00,53.7,43.3,-100.00,North,-999,-999.0,-999.0,67,-99.99,,,-99.99,254.0,HOBO +U30 +Weather +,2013-04-14 14:19:00,
2013-04-14 10:20:00,53.3,43.2,-100.00,North,-999,-999.0,-999.0,68,-99.99,,,-99.99,363.0,HOBO +U30 +Weather +,2013-04-14 14:20:00,
2013-04-14 10:21:00,53.1,43.4,-100.00,North,-999,-999.0,-999.0,69,-99.99,,,-99.99,212.0,HOBO +U30 +Weather +,2013-04-14 14:21:00,
2013-04-14 10:22:00,53.0,43.3,-100.00,North,-999,-999.0,-999.0,69,-99.99,,,-99.99,261.0,HOBO +U30 +Weather +,2013-04-14 14:22:00,
2013-04-14 10:23:00,53.0,43.4,-100.00,North,-999,-999.0,-999.0,69,-99.99,,,-99.99,531.0,HOBO +U30 +Weather +,2013-04-14 14:23:00,
2013-04-14 10:24:00,52.8,43.5,-100.00,North,-999,-999.0,-999.0,70,-99.99,,,-99.99,416.0,HOBO +U30 +Weather +,2013-04-14 14:24:00,
2013-04-14 10:25:00,53.0,43.5,-100.00,North,-999,-999.0,-999.0,70,-99.99,,,-99.99,294.0,HOBO +U30 +Weather +,2013-04-14 14:25:00,
2013-04-14 10:26:00,52.6,43.5,-100.00,North,-999,-999.0,-999.0,71,-99.99,,,-99.99,261.0,HOBO +U30 +Weather +,2013-04-14 14:26:00,
2013-04-14 10:27:00,52.7,43.9,-100.00,North,-999,-999.0,-999.0,71,-99.99,,,-99.99,262.0,HOBO +U30 +Weather +,2013-04-14 14:27:00,
2013-04-14 10:28:00,52.5,43.8,-100.00,North,-999,-999.0,-999.0,72,-99.99,,,-99.99,263.0,HOBO +U30 +Weather +,2013-04-14 14:28:00,
2013-04-14 10:29:00,52.1,43.6,-100.00,North,-999,-999.0,-999.0,72,-99.99,,,-99.99,296.0,HOBO +U30 +Weather +,2013-04-14 14:29:00,
2013-04-14 10:30:00,52.2,43.9,-100.00,North,-999,-999.0,-999.0,73,-99.99,,,-99.99,261.0,HOBO +U30 +Weather +,2013-04-14 14:30:00,
2013-04-14 10:31:00,51.9,43.4,-100.00,North,-999,-999.0,-999.0,72,-99.99,,,-99.99,391.0,HOBO +U30 +Weather +,2013-04-14 14:31:00,
2013-04-14 10:32:00,51.9,43.3,-100.00,North,-999,-999.0,-999.0,72,-99.99,,,-99.99,284.0,HOBO +U30 +Weather +,2013-04-14 14:32:00,
2013-04-14 10:33:00,52.2,43.9,-100.00,North,-999,-999.0,-999.0,73,-99.99,,,-99.99,852.0,HOBO +U30 +Weather +,2013-04-14 14:33:00,
2013-04-14 10:34:00,52.6,44.0,-100.00,North,-999,-999.0,-999.0,72,-99.99,,,-99.99,246.0,HOBO +U30 +Weather +,2013-04-14 14:34:00,
2013-04-14 10:35:00,52.6,44.0,-100.00,North,-999,-999.0,-999.0,72,-99.99,,,-99.99,298.0,HOBO +U30 +Weather +,2013-04-14 14:35:00,
2013-04-14 10:36:00,52.6,44.0,-100.00,North,-999,-999.0,-999.0,72,-99.99,,,-99.99,311.0,HOBO +U30 +Weather +,2013-04-14 14:36:00,
2013-04-14 10:37:00,52.6,44.2,-100.00,North,-999,-999.0,-999.0,73,-99.99,,,-99.99,376.0,HOBO +U30 +Weather +,2013-04-14 14:37:00,
2013-04-14 10:38:00,53.2,45.0,-100.00,North,-999,-999.0,-999.0,73,-99.99,,,-99.99,844.0,HOBO +U30 +Weather +,2013-04-14 14:38:00,
2013-04-14 10:39:00,53.2,44.7,-100.00,North,-999,-999.0,-999.0,72,-99.99,,,-99.99,707.0,HOBO +U30 +Weather +,2013-04-14 14:39:00,
2013-04-14 10:40:00,53.1,44.9,-100.00,North,-999,-999.0,-999.0,73,-99.99,,,-99.99,807.0,HOBO +U30 +Weather +,2013-04-14 14:40:00,
2013-04-14 10:41:00,53.2,44.7,-100.00,North,-999,-999.0,-999.0,72,-99.99,,,-99.99,778.0,HOBO +U30 +Weather +,2013-04-14 14:41:00,
2013-04-14 10:42:00,53.3,45.0,-100.00,North,-999,-999.0,-999.0,73,-99.99,,,-99.99,778.0,HOBO +U30 +Weather +,2013-04-14 14:42:00,
2013-04-14 10:43:00,53.5,45.3,-100.00,North,-999,-999.0,-999.0,73,-99.99,,,-99.99,777.0,HOBO +U30 +Weather +,2013-04-14 14:43:00,
2013-04-14 10:44:00,53.7,44.9,-100.00,North,-999,-999.0,-999.0,72,-99.99,,,-99.99,769.0,HOBO +U30 +Weather +,2013-04-14 14:44:00,
2013-04-14 10:45:00,53.2,44.8,-100.00,North,-999,-999.0,-999.0,73,-99.99,,,-99.99,803.0,HOBO +U30 +Weather +,2013-04-14 14:45:00,
2013-04-14 10:46:00,53.3,44.9,-100.00,North,-999,-999.0,-999.0,72,-99.99,,,-99.99,833.0,HOBO +U30 +Weather +,2013-04-14 14:46:00,
2013-04-14 10:47:00,53.4,45.3,-100.00,North,-999,-999.0,-999.0,73,-99.99,,,-99.99,344.0,HOBO +U30 +Weather +,2013-04-14 14:47:00,
2013-04-14 10:48:00,53.9,45.3,-100.00,North,-999,-999.0,-999.0,72,-99.99,,,-99.99,236.0,HOBO +U30 +Weather +,2013-04-14 14:48:00,
2013-04-14 10:49:00,53.6,45.0,-100.00,North,-999,-999.0,-999.0,72,-99.99,,,-99.99,919.0,HOBO +U30 +Weather +,2013-04-14 14:49:00,
2013-04-14 10:50:00,53.9,45.3,-100.00,North,-999,-999.0,-999.0,72,-99.99,,,-99.99,387.0,HOBO +U30 +Weather +,2013-04-14 14:50:00,
2013-04-14 10:51:00,53.8,45.1,-100.00,North,-999,-999.0,-999.0,72,-99.99,,,-99.99,349.0,HOBO +U30 +Weather +,2013-04-14 14:51:00,
2013-04-14 10:52:00,53.5,44.8,-100.00,North,-999,-999.0,-999.0,72,-99.99,,,-99.99,293.0,HOBO +U30 +Weather +,2013-04-14 14:52:00,
2013-04-14 10:53:00,53.3,44.8,-100.00,North,-999,-999.0,-999.0,72,-99.99,,,-99.99,977.0,HOBO +U30 +Weather +,2013-04-14 14:53:00,
2013-04-14 10:54:00,53.3,44.8,-100.00,North,-999,-999.0,-999.0,72,-99.99,,,-99.99,956.0,HOBO +U30 +Weather +,2013-04-14 14:54:00,
2013-04-14 10:55:00,54.2,45.9,-100.00,North,-999,-999.0,-999.0,73,-99.99,,,-99.99,927.0,HOBO +U30 +Weather +,2013-04-14 14:55:00,
2013-04-14 10:56:00,55.0,46.3,-100.00,North,-999,-999.0,-999.0,72,-99.99,,,-99.99,883.0,HOBO +U30 +Weather +,2013-04-14 14:56:00,
2013-04-14 10:57:00,56.1,46.5,-100.00,North,-999,-999.0,-999.0,70,-99.99,,,-99.99,873.0,HOBO +U30 +Weather +,2013-04-14 14:57:00,
2013-04-14 10:58:00,56.3,45.9,-100.00,North,-999,-999.0,-999.0,67,-99.99,,,-99.99,858.0,HOBO +U30 +Weather +,2013-04-14 14:58:00,
2013-04-14 10:59:00,56.7,46.3,-100.00,North,-999,-999.0,-999.0,67,-99.99,,,-99.99,866.0,HOBO +U30 +Weather +,2013-04-14 14:59:00,
2013-04-14 11:00:00,56.5,44.8,-100.00,North,-999,-999.0,-999.0,64,-99.99,,,-99.99,884.0,HOBO +U30 +Weather +,2013-04-14 15:00:00,
2013-04-14 11:01:00,56.6,45.6,-100.00,North,-999,-999.0,-999.0,66,-99.99,,,-99.99,922.0,HOBO +U30 +Weather +,2013-04-14 15:01:00,
2013-04-14 11:02:00,56.6,45.2,-100.00,North,-999,-999.0,-999.0,65,-99.99,,,-99.99,922.0,HOBO +U30 +Weather +,2013-04-14 15:02:00,
2013-04-14 11:03:00,56.0,44.6,-100.00,North,-999,-999.0,-999.0,65,-99.99,,,-99.99,924.0,HOBO +U30 +Weather +,2013-04-14 15:03:00,
2013-04-14 11:04:00,56.0,45.1,-100.00,North,-999,-999.0,-999.0,66,-99.99,,,-99.99,942.0,HOBO +U30 +Weather +,2013-04-14 15:04:00,
2013-04-14 11:05:00,56.1,45.4,-100.00,North,-999,-999.0,-999.0,67,-99.99,,,-99.99,951.0,HOBO +U30 +Weather +,2013-04-14 15:05:00,
2013-04-14 11:06:00,56.4,45.8,-100.00,North,-999,-999.0,-999.0,67,-99.99,,,-99.99,959.0,HOBO +U30 +Weather +,2013-04-14 15:06:00,
2013-04-14 11:07:00,56.9,45.6,-100.00,North,-999,-999.0,-999.0,65,-99.99,,,-99.99,983.0,HOBO +U30 +Weather +,2013-04-14 15:07:00,
2013-04-14 11:08:00,56.9,45.9,-100.00,North,-999,-999.0,-999.0,66,-99.99,,,-99.99,992.0,HOBO +U30 +Weather +,2013-04-14 15:08:00,
2013-04-14 11:09:00,56.6,45.2,-100.00,North,-999,-999.0,-999.0,65,-99.99,,,-99.99,1018.0,HOBO +U30 +Weather +,2013-04-14 15:09:00,
2013-04-14 11:10:00,56.9,45.2,-100.00,North,-999,-999.0,-999.0,65,-99.99,,,-99.99,1036.0,HOBO +U30 +Weather +,2013-04-14 15:10:00,
2013-04-14 11:11:00,57.6,46.3,-100.00,North,-999,-999.0,-999.0,66,-99.99,,,-99.99,1058.0,HOBO +U30 +Weather +,2013-04-14 15:11:00,
2013-04-14 11:12:00,58.3,45.6,-100.00,North,-999,-999.0,-999.0,62,-99.99,,,-99.99,1061.0,HOBO +U30 +Weather +,2013-04-14 15:12:00,
2013-04-14 11:13:00,58.1,46.5,-100.00,North,-999,-999.0,-999.0,65,-99.99,,,-99.99,1061.0,HOBO +U30 +Weather +,2013-04-14 15:13:00,
2013-04-14 11:14:00,58.5,46.4,-100.00,North,-999,-999.0,-999.0,64,-99.99,,,-99.99,992.0,HOBO +U30 +Weather +,2013-04-14 15:14:00,
2013-04-14 11:15:00,57.8,45.2,-100.00,North,-999,-999.0,-999.0,62,-99.99,,,-99.99,286.0,HOBO +U30 +Weather +,2013-04-14 15:15:00,
2013-04-14 11:16:00,56.6,44.5,-100.00,North,-999,-999.0,-999.0,63,-99.99,,,-99.99,277.0,HOBO +U30 +Weather +,2013-04-14 15:16:00,
2013-04-14 11:17:00,55.6,43.8,-100.00,North,-999,-999.0,-999.0,64,-99.99,,,-99.99,281.0,HOBO +U30 +Weather +,2013-04-14 15:17:00,
2013-04-14 11:18:00,54.8,43.8,-100.00,North,-999,-999.0,-999.0,66,-99.99,,,-99.99,304.0,HOBO +U30 +Weather +,2013-04-14 15:18:00,
2013-04-14 11:19:00,54.4,43.3,-100.00,North,-999,-999.0,-999.0,66,-99.99,,,-99.99,306.0,HOBO +U30 +Weather +,2013-04-14 15:19:00,
2013-04-14 11:20:00,54.2,43.1,-100.00,North,-999,-999.0,-999.0,66,-99.99,,,-99.99,282.0,HOBO +U30 +Weather +,2013-04-14 15:20:00,
2013-04-14 11:21:00,54.1,43.6,-100.00,North,-999,-999.0,-999.0,67,-99.99,,,-99.99,281.0,HOBO +U30 +Weather +,2013-04-14 15:21:00,
2013-04-14 11:22:00,54.0,43.3,-100.00,North,-999,-999.0,-999.0,66,-99.99,,,-99.99,287.0,HOBO +U30 +Weather +,2013-04-14 15:22:00,
2013-04-14 11:23:00,53.8,43.0,-100.00,North,-999,-999.0,-999.0,66,-99.99,,,-99.99,287.0,HOBO +U30 +Weather +,2013-04-14 15:23:00,
2013-04-14 11:24:00,53.6,43.1,-100.00,North,-999,-999.0,-999.0,67,-99.99,,,-99.99,273.0,HOBO +U30 +Weather +,2013-04-14 15:24:00,
2013-04-14 11:25:00,53.4,42.9,-100.00,North,-999,-999.0,-999.0,67,-99.99,,,-99.99,279.0,HOBO +U30 +Weather +,2013-04-14 15:25:00,
2013-04-14 11:26:00,53.3,43.1,-100.00,North,-999,-999.0,-999.0,68,-99.99,,,-99.99,269.0,HOBO +U30 +Weather +,2013-04-14 15:26:00,
2013-04-14 11:27:00,53.2,42.9,-100.00,North,-999,-999.0,-999.0,68,-99.99,,,-99.99,253.0,HOBO +U30 +Weather +,2013-04-14 15:27:00,
2013-04-14 11:28:00,53.1,42.8,-100.00,North,-999,-999.0,-999.0,68,-99.99,,,-99.99,263.0,HOBO +U30 +Weather +,2013-04-14 15:28:00,
2013-04-14 11:29:00,53.2,43.2,-100.00,North,-999,-999.0,-999.0,68,-99.99,,,-99.99,287.0,HOBO +U30 +Weather +,2013-04-14 15:29:00,
2013-04-14 11:30:00,53.3,42.7,-100.00,North,-999,-999.0,-999.0,67,-99.99,,,-99.99,301.0,HOBO +U30 +Weather +,2013-04-14 15:30:00,
2013-04-14 11:31:00,53.3,42.6,-100.00,North,-999,-999.0,-999.0,66,-99.99,,,-99.99,289.0,HOBO +U30 +Weather +,2013-04-14 15:31:00,
2013-04-14 11:32:00,53.3,43.1,-100.00,North,-999,-999.0,-999.0,67,-99.99,,,-99.99,263.0,HOBO +U30 +Weather +,2013-04-14 15:32:00,
2013-04-14 11:33:00,53.4,43.1,-100.00,North,-999,-999.0,-999.0,67,-99.99,,,-99.99,242.0,HOBO +U30 +Weather +,2013-04-14 15:33:00,
2013-04-14 11:34:00,53.6,43.5,-100.00,North,-999,-999.0,-999.0,68,-99.99,,,-99.99,228.0,HOBO +U30 +Weather +,2013-04-14 15:34:00,
2013-04-14 11:35:00,53.8,43.4,-100.00,North,-999,-999.0,-999.0,67,-99.99,,,-99.99,221.0,HOBO +U30 +Weather +,2013-04-14 15:35:00,
2013-04-14 11:36:00,53.7,43.4,-100.00,North,-999,-999.0,-999.0,68,-99.99,,,-99.99,219.0,HOBO +U30 +Weather +,2013-04-14 15:36:00,
2013-04-14 11:37:00,53.2,42.9,-100.00,North,-999,-999.0,-999.0,68,-99.99,,,-99.99,217.0,HOBO +U30 +Weather +,2013-04-14 15:37:00,
2013-04-14 11:38:00,52.7,43.4,-100.00,North,-999,-999.0,-999.0,70,-99.99,,,-99.99,214.0,HOBO +U30 +Weather +,2013-04-14 15:38:00,
2013-04-14 11:39:00,52.3,43.5,-100.00,North,-999,-999.0,-999.0,71,-99.99,,,-99.99,211.0,HOBO +U30 +Weather +,2013-04-14 15:39:00,
2013-04-14 11:40:00,51.7,43.2,-100.00,North,-999,-999.0,-999.0,72,-99.99,,,-99.99,209.0,HOBO +U30 +Weather +,2013-04-14 15:40:00,
2013-04-14 11:41:00,51.0,43.2,-100.00,North,-999,-999.0,-999.0,74,-99.99,,,-99.99,211.0,HOBO +U30 +Weather +,2013-04-14 15:41:00,
2013-04-14 11:42:00,50.5,43.1,-100.00,North,-999,-999.0,-999.0,75,-99.99,,,-99.99,216.0,HOBO +U30 +Weather +,2013-04-14 15:42:00,
2013-04-14 11:43:00,50.1,43.0,-100.00,North,-999,-999.0,-999.0,76,-99.99,,,-99.99,224.0,HOBO +U30 +Weather +,2013-04-14 15:43:00,
2013-04-14 11:44:00,50.0,43.1,-100.00,North,-999,-999.0,-999.0,77,-99.99,,,-99.99,231.0,HOBO +U30 +Weather +,2013-04-14 15:44:00,
2013-04-14 11:45:00,50.0,43.3,-100.00,North,-999,-999.0,-999.0,77,-99.99,,,-99.99,232.0,HOBO +U30 +Weather +,2013-04-14 15:45:00,
2013-04-14 11:46:00,50.1,43.3,-100.00,North,-999,-999.0,-999.0,77,-99.99,,,-99.99,231.0,HOBO +U30 +Weather +,2013-04-14 15:46:00,
2013-04-14 11:47:00,50.0,43.4,-100.00,North,-999,-999.0,-999.0,77,-99.99,,,-99.99,233.0,HOBO +U30 +Weather +,2013-04-14 15:47:00,
2013-04-14 11:48:00,50.0,43.6,-100.00,North,-999,-999.0,-999.0,78,-99.99,,,-99.99,239.0,HOBO +U30 +Weather +,2013-04-14 15:48:00,
2013-04-14 11:49:00,49.9,43.3,-100.00,North,-999,-999.0,-999.0,78,-99.99,,,-99.99,244.0,HOBO +U30 +Weather +,2013-04-14 15:49:00,
2013-04-14 11:50:00,49.9,43.6,-100.00,North,-999,-999.0,-999.0,78,-99.99,,,-99.99,237.0,HOBO +U30 +Weather +,2013-04-14 15:50:00,
2013-04-14 11:51:00,50.1,43.7,-100.00,North,-999,-999.0,-999.0,78,-99.99,,,-99.99,222.0,HOBO +U30 +Weather +,2013-04-14 15:51:00,
2013-04-14 11:52:00,49.9,43.6,-100.00,North,-999,-999.0,-999.0,78,-99.99,,,-99.99,199.0,HOBO +U30 +Weather +,2013-04-14 15:52:00,
2013-04-14 11:53:00,49.6,43.5,-100.00,North,-999,-999.0,-999.0,79,-99.99,,,-99.99,171.0,HOBO +U30 +Weather +,2013-04-14 15:53:00,
2013-04-14 11:54:00,49.5,43.4,-100.00,North,-999,-999.0,-999.0,79,-99.99,,,-99.99,153.0,HOBO +U30 +Weather +,2013-04-14 15:54:00,
2013-04-14 11:55:00,49.3,43.3,-100.00,North,-999,-999.0,-999.0,79,-99.99,,,-99.99,144.0,HOBO +U30 +Weather +,2013-04-14 15:55:00,
2013-04-14 11:56:00,49.3,43.5,-100.00,North,-999,-999.0,-999.0,80,-99.99,,,-99.99,127.0,HOBO +U30 +Weather +,2013-04-14 15:56:00,
2013-04-14 11:57:00,49.4,43.7,-100.00,North,-999,-999.0,-999.0,80,-99.99,,,-99.99,114.0,HOBO +U30 +Weather +,2013-04-14 15:57:00,
2013-04-14 11:58:00,49.3,43.5,-100.00,North,-999,-999.0,-999.0,80,-99.99,,,-99.99,103.0,HOBO +U30 +Weather +,2013-04-14 15:58:00,
2013-04-14 11:59:00,49.3,43.5,-100.00,North,-999,-999.0,-999.0,80,-99.99,,,-99.99,98.0,HOBO +U30 +Weather +,2013-04-14 15:59:00,
2013-04-14 12:00:00,49.3,43.7,-100.00,North,-999,-999.0,-999.0,80,-99.99,,,-99.99,91.0,HOBO +U30 +Weather +,2013-04-14 16:00:00,
2013-04-14 12:01:00,49.2,43.4,-100.00,North,-999,-999.0,-999.0,80,-99.99,,,-99.99,77.0,HOBO +U30 +Weather +,2013-04-14 16:01:00,
2013-04-14 12:02:00,49.2,43.5,-100.00,North,-999,-999.0,-999.0,80,-99.99,,,-99.99,61.0,HOBO +U30 +Weather +,2013-04-14 16:02:00,
2013-04-14 12:03:00,49.1,43.5,-100.00,North,-999,-999.0,-999.0,80,-99.99,,,-99.99,53.0,HOBO +U30 +Weather +,2013-04-14 16:03:00,
2013-04-14 12:04:00,49.1,43.3,-100.00,North,-999,-999.0,-999.0,80,-99.99,,,-99.99,53.0,HOBO +U30 +Weather +,2013-04-14 16:04:00,
2013-04-14 12:05:00,49.0,43.4,-100.00,North,-999,-999.0,-999.0,80,-99.99,,,-99.99,58.0,HOBO +U30 +Weather +,2013-04-14 16:05:00,
2013-04-14 12:06:00,49.1,43.4,-100.00,North,-999,-999.0,-999.0,80,-99.99,,,-99.99,71.0,HOBO +U30 +Weather +,2013-04-14 16:06:00,
2013-04-14 12:07:00,49.1,43.3,-100.00,North,-999,-999.0,-999.0,80,-99.99,,,-99.99,89.0,HOBO +U30 +Weather +,2013-04-14 16:07:00,
2013-04-14 12:08:00,49.1,43.4,-100.00,North,-999,-999.0,-999.0,80,-99.99,,,-99.99,114.0,HOBO +U30 +Weather +,2013-04-14 16:08:00,
2013-04-14 12:09:00,49.1,43.4,-100.00,North,-999,-999.0,-999.0,80,-99.99,,,-99.99,137.0,HOBO +U30 +Weather +,2013-04-14 16:09:00,
2013-04-14 12:10:00,49.1,43.5,-100.00,North,-999,-999.0,-999.0,80,-99.99,,,-99.99,138.0,HOBO +U30 +Weather +,2013-04-14 16:10:00,
2013-04-14 12:11:00,49.1,43.6,-100.00,North,-999,-999.0,-999.0,81,-99.99,,,-99.99,128.0,HOBO +U30 +Weather +,2013-04-14 16:11:00,
2013-04-14 12:12:00,49.1,43.6,-100.00,North,-999,-999.0,-999.0,81,-99.99,,,-99.99,114.0,HOBO +U30 +Weather +,2013-04-14 16:12:00,
2013-04-14 12:13:00,49.1,43.7,-100.00,North,-999,-999.0,-999.0,81,-99.99,,,-99.99,99.0,HOBO +U30 +Weather +,2013-04-14 16:13:00,
2013-04-14 12:14:00,49.0,43.4,-100.00,North,-999,-999.0,-999.0,80,-99.99,,,-99.99,84.0,HOBO +U30 +Weather +,2013-04-14 16:14:00,
2013-04-14 12:15:00,48.9,43.2,-100.00,North,-999,-999.0,-999.0,80,-99.99,,,-99.99,72.0,HOBO +U30 +Weather +,2013-04-14 16:15:00,
2013-04-14 12:16:00,48.8,43.1,-100.00,North,-999,-999.0,-999.0,80,-99.99,,,-99.99,66.0,HOBO +U30 +Weather +,2013-04-14 16:16:00,
2013-04-14 12:17:00,48.8,43.0,-100.00,North,-999,-999.0,-999.0,80,-99.99,,,-99.99,64.0,HOBO +U30 +Weather +,2013-04-14 16:17:00,
2013-04-14 12:18:00,48.8,42.9,-100.00,North,-999,-999.0,-999.0,80,-99.99,,,-99.99,62.0,HOBO +U30 +Weather +,2013-04-14 16:18:00,
2013-04-14 12:19:00,48.8,42.9,-100.00,North,-999,-999.0,-999.0,80,-99.99,,,-99.99,59.0,HOBO +U30 +Weather +,2013-04-14 16:19:00,
2013-04-14 12:20:00,48.8,42.9,-100.00,North,-999,-999.0,-999.0,80,-99.99,,,-99.99,56.0,HOBO +U30 +Weather +,2013-04-14 16:20:00,
2013-04-14 12:21:00,48.8,43.0,-100.00,North,-999,-999.0,-999.0,80,-99.99,,,-99.99,54.0,HOBO +U30 +Weather +,2013-04-14 16:21:00,
2013-04-14 12:22:00,48.8,43.1,-100.00,North,-999,-999.0,-999.0,80,-99.99,,,-99.99,57.0,HOBO +U30 +Weather +,2013-04-14 16:22:00,
2013-04-14 12:23:00,48.7,43.0,-100.00,North,-999,-999.0,-999.0,80,-99.99,,,-99.99,61.0,HOBO +U30 +Weather +,2013-04-14 16:23:00,
2013-04-14 12:24:00,48.7,43.0,-100.00,North,-999,-999.0,-999.0,80,-99.99,,,-99.99,67.0,HOBO +U30 +Weather +,2013-04-14 16:24:00,
2013-04-14 12:25:00,48.7,43.1,-100.00,North,-999,-999.0,-999.0,81,-99.99,,,-99.99,69.0,HOBO +U30 +Weather +,2013-04-14 16:25:00,
2013-04-14 12:26:00,48.7,43.3,-100.00,North,-999,-999.0,-999.0,81,-99.99,,,-99.99,69.0,HOBO +U30 +Weather +,2013-04-14 16:26:00,
2013-04-14 12:27:00,48.8,43.6,-100.00,North,-999,-999.0,-999.0,82,-99.99,,,-99.99,69.0,HOBO +U30 +Weather +,2013-04-14 16:27:00,
2013-04-14 12:28:00,48.8,43.6,-100.00,North,-999,-999.0,-999.0,82,-99.99,,,-99.99,69.0,HOBO +U30 +Weather +,2013-04-14 16:28:00,
2013-04-14 12:29:00,48.8,43.3,-100.00,North,-999,-999.0,-999.0,81,-99.99,,,-99.99,67.0,HOBO +U30 +Weather +,2013-04-14 16:29:00,
2013-04-14 12:30:00,48.7,43.3,-100.00,North,-999,-999.0,-999.0,81,-99.99,,,-99.99,64.0,HOBO +U30 +Weather +,2013-04-14 16:30:00,
2013-04-14 12:31:00,48.7,43.4,-100.00,North,-999,-999.0,-999.0,81,-99.99,,,-99.99,64.0,HOBO +U30 +Weather +,2013-04-14 16:31:00,
2013-04-14 12:32:00,48.7,43.5,-100.00,North,-999,-999.0,-999.0,81,-99.99,,,-99.99,66.0,HOBO +U30 +Weather +,2013-04-14 16:32:00,
2013-04-14 12:33:00,48.7,43.5,-100.00,North,-999,-999.0,-999.0,82,-99.99,,,-99.99,69.0,HOBO +U30 +Weather +,2013-04-14 16:33:00,
2013-04-14 12:34:00,48.8,43.3,-100.00,North,-999,-999.0,-999.0,81,-99.99,,,-99.99,73.0,HOBO +U30 +Weather +,2013-04-14 16:34:00,
2013-04-14 12:35:00,48.8,43.4,-100.00,North,-999,-999.0,-999.0,81,-99.99,,,-99.99,78.0,HOBO +U30 +Weather +,2013-04-14 16:35:00,
2013-04-14 12:36:00,48.8,43.6,-100.00,North,-999,-999.0,-999.0,81,-99.99,,,-99.99,79.0,HOBO +U30 +Weather +,2013-04-14 16:36:00,
2013-04-14 12:37:00,48.9,43.5,-100.00,North,-999,-999.0,-999.0,81,-99.99,,,-99.99,78.0,HOBO +U30 +Weather +,2013-04-14 16:37:00,
2013-04-14 12:38:00,48.9,43.4,-100.00,North,-999,-999.0,-999.0,81,-99.99,,,-99.99,76.0,HOBO +U30 +Weather +,2013-04-14 16:38:00,
2013-04-14 12:39:00,49.0,43.5,-100.00,North,-999,-999.0,-999.0,81,-99.99,,,-99.99,74.0,HOBO +U30 +Weather +,2013-04-14 16:39:00,
2013-04-14 12:40:00,49.0,43.4,-100.00,North,-999,-999.0,-999.0,80,-99.99,,,-99.99,77.0,HOBO +U30 +Weather +,2013-04-14 16:40:00,
2013-04-14 12:41:00,49.1,43.6,-100.00,North,-999,-999.0,-999.0,81,-99.99,,,-99.99,79.0,HOBO +U30 +Weather +,2013-04-14 16:41:00,
2013-04-14 12:42:00,49.2,43.6,-100.00,North,-999,-999.0,-999.0,81,-99.99,,,-99.99,84.0,HOBO +U30 +Weather +,2013-04-14 16:42:00,
2013-04-14 12:43:00,49.2,43.4,-100.00,North,-999,-999.0,-999.0,80,-99.99,,,-99.99,92.0,HOBO +U30 +Weather +,2013-04-14 16:43:00,
2013-04-14 12:44:00,49.3,43.5,-100.00,North,-999,-999.0,-999.0,80,-99.99,,,-99.99,104.0,HOBO +U30 +Weather +,2013-04-14 16:44:00,
2013-04-14 12:45:00,49.4,43.5,-100.00,North,-999,-999.0,-999.0,80,-99.99,,,-99.99,122.0,HOBO +U30 +Weather +,2013-04-14 16:45:00,
2013-04-14 12:46:00,49.5,43.6,-100.00,North,-999,-999.0,-999.0,80,-99.99,,,-99.99,147.0,HOBO +U30 +Weather +,2013-04-14 16:46:00,
2013-04-14 12:47:00,49.6,43.7,-100.00,North,-999,-999.0,-999.0,79,-99.99,,,-99.99,178.0,HOBO +U30 +Weather +,2013-04-14 16:47:00,
2013-04-14 12:48:00,49.8,43.6,-100.00,North,-999,-999.0,-999.0,78,-99.99,,,-99.99,216.0,HOBO +U30 +Weather +,2013-04-14 16:48:00,
2013-04-14 12:49:00,50.1,43.5,-100.00,North,-999,-999.0,-999.0,78,-99.99,,,-99.99,263.0,HOBO +U30 +Weather +,2013-04-14 16:49:00,
2013-04-14 12:50:00,50.5,44.2,-100.00,North,-999,-999.0,-999.0,79,-99.99,,,-99.99,364.0,HOBO +U30 +Weather +,2013-04-14 16:50:00,
2013-04-14 12:51:00,50.7,44.0,-100.00,North,-999,-999.0,-999.0,77,-99.99,,,-99.99,347.0,HOBO +U30 +Weather +,2013-04-14 16:51:00,
2013-04-14 12:52:00,51.1,44.3,-100.00,North,-999,-999.0,-999.0,77,-99.99,,,-99.99,376.0,HOBO +U30 +Weather +,2013-04-14 16:52:00,
2013-04-14 12:53:00,51.4,43.6,-100.00,North,-999,-999.0,-999.0,74,-99.99,,,-99.99,416.0,HOBO +U30 +Weather +,2013-04-14 16:53:00,
2013-04-14 12:54:00,51.9,43.5,-100.00,North,-999,-999.0,-999.0,72,-99.99,,,-99.99,481.0,HOBO +U30 +Weather +,2013-04-14 16:54:00,
2013-04-14 12:55:00,52.4,43.6,-100.00,North,-999,-999.0,-999.0,72,-99.99,,,-99.99,554.0,HOBO +U30 +Weather +,2013-04-14 16:55:00,
2013-04-14 12:56:00,52.9,43.4,-100.00,North,-999,-999.0,-999.0,69,-99.99,,,-99.99,496.0,HOBO +U30 +Weather +,2013-04-14 16:56:00,
2013-04-14 12:57:00,53.3,43.1,-100.00,North,-999,-999.0,-999.0,68,-99.99,,,-99.99,454.0,HOBO +U30 +Weather +,2013-04-14 16:57:00,
2013-04-14 12:58:00,53.5,42.6,-100.00,North,-999,-999.0,-999.0,66,-99.99,,,-99.99,453.0,HOBO +U30 +Weather +,2013-04-14 16:58:00,
2013-04-14 12:59:00,53.5,42.3,-100.00,North,-999,-999.0,-999.0,65,-99.99,,,-99.99,389.0,HOBO +U30 +Weather +,2013-04-14 16:59:00,
2013-04-14 13:00:00,53.3,42.1,-100.00,North,-999,-999.0,-999.0,65,-99.99,,,-99.99,349.0,HOBO +U30 +Weather +,2013-04-14 17:00:00,
2013-04-14 13:01:00,53.4,42.8,-100.00,North,-999,-999.0,-999.0,67,-99.99,,,-99.99,298.0,HOBO +U30 +Weather +,2013-04-14 17:01:00,
2013-04-14 13:02:00,53.4,42.3,-100.00,North,-999,-999.0,-999.0,65,-99.99,,,-99.99,266.0,HOBO +U30 +Weather +,2013-04-14 17:02:00,
2013-04-14 13:03:00,53.3,41.7,-100.00,North,-999,-999.0,-999.0,64,-99.99,,,-99.99,242.0,HOBO +U30 +Weather +,2013-04-14 17:03:00,
2013-04-14 13:04:00,53.1,41.4,-100.00,North,-999,-999.0,-999.0,64,-99.99,,,-99.99,213.0,HOBO +U30 +Weather +,2013-04-14 17:04:00,
2013-04-14 13:05:00,53.0,41.6,-100.00,North,-999,-999.0,-999.0,65,-99.99,,,-99.99,197.0,HOBO +U30 +Weather +,2013-04-14 17:05:00,
2013-04-14 13:06:00,52.8,41.0,-100.00,North,-999,-999.0,-999.0,64,-99.99,,,-99.99,188.0,HOBO +U30 +Weather +,2013-04-14 17:06:00,
2013-04-14 13:07:00,52.7,41.3,-100.00,North,-999,-999.0,-999.0,64,-99.99,,,-99.99,176.0,HOBO +U30 +Weather +,2013-04-14 17:07:00,
2013-04-14 13:08:00,52.6,41.5,-100.00,North,-999,-999.0,-999.0,65,-99.99,,,-99.99,163.0,HOBO +U30 +Weather +,2013-04-14 17:08:00,
2013-04-14 13:09:00,52.6,41.3,-100.00,North,-999,-999.0,-999.0,65,-99.99,,,-99.99,157.0,HOBO +U30 +Weather +,2013-04-14 17:09:00,
2013-04-14 13:10:00,52.6,41.3,-100.00,North,-999,-999.0,-999.0,65,-99.99,,,-99.99,154.0,HOBO +U30 +Weather +,2013-04-14 17:10:00,
2013-04-14 13:11:00,52.6,41.1,-100.00,North,-999,-999.0,-999.0,64,-99.99,,,-99.99,156.0,HOBO +U30 +Weather +,2013-04-14 17:11:00,
2013-04-14 13:12:00,52.5,41.1,-100.00,North,-999,-999.0,-999.0,65,-99.99,,,-99.99,159.0,HOBO +U30 +Weather +,2013-04-14 17:12:00,
2013-04-14 13:13:00,52.5,40.9,-100.00,North,-999,-999.0,-999.0,64,-99.99,,,-99.99,169.0,HOBO +U30 +Weather +,2013-04-14 17:13:00,
2013-04-14 13:14:00,52.3,40.3,-100.00,North,-999,-999.0,-999.0,63,-99.99,,,-99.99,182.0,HOBO +U30 +Weather +,2013-04-14 17:14:00,
2013-04-14 13:15:00,52.3,40.3,-100.00,North,-999,-999.0,-999.0,63,-99.99,,,-99.99,204.0,HOBO +U30 +Weather +,2013-04-14 17:15:00,
2013-04-14 13:16:00,52.2,40.3,-100.00,North,-999,-999.0,-999.0,63,-99.99,,,-99.99,238.0,HOBO +U30 +Weather +,2013-04-14 17:16:00,
2013-04-14 13:17:00,52.2,40.4,-100.00,North,-999,-999.0,-999.0,63,-99.99,,,-99.99,268.0,HOBO +U30 +Weather +,2013-04-14 17:17:00,
2013-04-14 13:18:00,52.3,40.3,-100.00,North,-999,-999.0,-999.0,63,-99.99,,,-99.99,271.0,HOBO +U30 +Weather +,2013-04-14 17:18:00,
2013-04-14 13:19:00,52.4,40.7,-100.00,North,-999,-999.0,-999.0,64,-99.99,,,-99.99,238.0,HOBO +U30 +Weather +,2013-04-14 17:19:00,
2013-04-14 13:20:00,52.2,40.0,-100.00,North,-999,-999.0,-999.0,62,-99.99,,,-99.99,226.0,HOBO +U30 +Weather +,2013-04-14 17:20:00,
2013-04-14 13:21:00,52.1,39.7,-100.00,North,-999,-999.0,-999.0,62,-99.99,,,-99.99,223.0,HOBO +U30 +Weather +,2013-04-14 17:21:00,
2013-04-14 13:22:00,52.1,40.1,-100.00,North,-999,-999.0,-999.0,63,-99.99,,,-99.99,202.0,HOBO +U30 +Weather +,2013-04-14 17:22:00,
2013-04-14 13:23:00,52.0,39.8,-100.00,North,-999,-999.0,-999.0,63,-99.99,,,-99.99,179.0,HOBO +U30 +Weather +,2013-04-14 17:23:00,
2013-04-14 13:24:00,52.0,39.7,-100.00,North,-999,-999.0,-999.0,62,-99.99,,,-99.99,177.0,HOBO +U30 +Weather +,2013-04-14 17:24:00,
2013-04-14 13:25:00,51.9,39.6,-100.00,North,-999,-999.0,-999.0,62,-99.99,,,-99.99,177.0,HOBO +U30 +Weather +,2013-04-14 17:25:00,
2013-04-14 13:26:00,51.9,39.7,-100.00,North,-999,-999.0,-999.0,63,-99.99,,,-99.99,157.0,HOBO +U30 +Weather +,2013-04-14 17:26:00,
2013-04-14 13:27:00,51.9,39.5,-100.00,North,-999,-999.0,-999.0,62,-99.99,,,-99.99,139.0,HOBO +U30 +Weather +,2013-04-14 17:27:00,
2013-04-14 13:28:00,51.8,39.4,-100.00,North,-999,-999.0,-999.0,62,-99.99,,,-99.99,143.0,HOBO +U30 +Weather +,2013-04-14 17:28:00,
2013-04-14 13:29:00,51.8,39.6,-100.00,North,-999,-999.0,-999.0,62,-99.99,,,-99.99,168.0,HOBO +U30 +Weather +,2013-04-14 17:29:00,
2013-04-14 13:30:00,51.8,40.0,-100.00,North,-999,-999.0,-999.0,63,-99.99,,,-99.99,209.0,HOBO +U30 +Weather +,2013-04-14 17:30:00,
2013-04-14 13:31:00,51.9,39.7,-100.00,North,-999,-999.0,-999.0,63,-99.99,,,-99.99,263.0,HOBO +U30 +Weather +,2013-04-14 17:31:00,
2013-04-14 13:32:00,51.9,39.3,-100.00,North,-999,-999.0,-999.0,62,-99.99,,,-99.99,309.0,HOBO +U30 +Weather +,2013-04-14 17:32:00,
2013-04-14 13:33:00,51.8,39.2,-100.00,North,-999,-999.0,-999.0,62,-99.99,,,-99.99,344.0,HOBO +U30 +Weather +,2013-04-14 17:33:00,
2013-04-14 13:34:00,51.9,39.8,-100.00,North,-999,-999.0,-999.0,63,-99.99,,,-99.99,356.0,HOBO +U30 +Weather +,2013-04-14 17:34:00,
2013-04-14 13:35:00,52.2,39.7,-100.00,North,-999,-999.0,-999.0,62,-99.99,,,-99.99,343.0,HOBO +U30 +Weather +,2013-04-14 17:35:00,
2013-04-14 13:36:00,52.4,40.2,-100.00,North,-999,-999.0,-999.0,62,-99.99,,,-99.99,332.0,HOBO +U30 +Weather +,2013-04-14 17:36:00,
2013-04-14 13:37:00,52.9,40.7,-100.00,North,-999,-999.0,-999.0,63,-99.99,,,-99.99,321.0,HOBO +U30 +Weather +,2013-04-14 17:37:00,
2013-04-14 13:38:00,53.0,40.4,-100.00,North,-999,-999.0,-999.0,62,-99.99,,,-99.99,304.0,HOBO +U30 +Weather +,2013-04-14 17:38:00,
2013-04-14 13:39:00,53.1,40.6,-100.00,North,-999,-999.0,-999.0,62,-99.99,,,-99.99,281.0,HOBO +U30 +Weather +,2013-04-14 17:39:00,
2013-04-14 13:40:00,53.2,40.4,-100.00,North,-999,-999.0,-999.0,61,-99.99,,,-99.99,243.0,HOBO +U30 +Weather +,2013-04-14 17:40:00,
2013-04-14 13:41:00,53.0,40.2,-100.00,North,-999,-999.0,-999.0,61,-99.99,,,-99.99,214.0,HOBO +U30 +Weather +,2013-04-14 17:41:00,
2013-04-14 13:42:00,53.0,40.0,-100.00,North,-999,-999.0,-999.0,61,-99.99,,,-99.99,222.0,HOBO +U30 +Weather +,2013-04-14 17:42:00,
2013-04-14 13:43:00,52.9,39.4,-100.00,North,-999,-999.0,-999.0,60,-99.99,,,-99.99,258.0,HOBO +U30 +Weather +,2013-04-14 17:43:00,
2013-04-14 13:44:00,52.8,39.8,-100.00,North,-999,-999.0,-999.0,61,-99.99,,,-99.99,283.0,HOBO +U30 +Weather +,2013-04-14 17:44:00,
2013-04-14 13:45:00,53.0,39.7,-100.00,North,-999,-999.0,-999.0,60,-99.99,,,-99.99,299.0,HOBO +U30 +Weather +,2013-04-14 17:45:00,
2013-04-14 13:46:00,52.7,39.4,-100.00,North,-999,-999.0,-999.0,60,-99.99,,,-99.99,288.0,HOBO +U30 +Weather +,2013-04-14 17:46:00,
2013-04-14 13:47:00,52.7,40.4,-100.00,North,-999,-999.0,-999.0,62,-99.99,,,-99.99,282.0,HOBO +U30 +Weather +,2013-04-14 17:47:00,
2013-04-14 13:48:00,52.9,39.7,-100.00,North,-999,-999.0,-999.0,60,-99.99,,,-99.99,277.0,HOBO +U30 +Weather +,2013-04-14 17:48:00,
2013-04-14 13:49:00,52.6,39.3,-100.00,North,-999,-999.0,-999.0,60,-99.99,,,-99.99,257.0,HOBO +U30 +Weather +,2013-04-14 17:49:00,
2013-04-14 13:50:00,52.5,39.5,-100.00,North,-999,-999.0,-999.0,61,-99.99,,,-99.99,208.0,HOBO +U30 +Weather +,2013-04-14 17:50:00,
2013-04-14 13:51:00,52.5,39.4,-100.00,North,-999,-999.0,-999.0,60,-99.99,,,-99.99,166.0,HOBO +U30 +Weather +,2013-04-14 17:51:00,
2013-04-14 13:52:00,52.5,39.7,-100.00,North,-999,-999.0,-999.0,61,-99.99,,,-99.99,143.0,HOBO +U30 +Weather +,2013-04-14 17:52:00,
2013-04-14 13:53:00,52.6,40.0,-100.00,North,-999,-999.0,-999.0,62,-99.99,,,-99.99,131.0,HOBO +U30 +Weather +,2013-04-14 17:53:00,
2013-04-14 13:54:00,52.6,39.4,-100.00,North,-999,-999.0,-999.0,60,-99.99,,,-99.99,122.0,HOBO +U30 +Weather +,2013-04-14 17:54:00,
2013-04-14 13:55:00,52.4,39.2,-100.00,North,-999,-999.0,-999.0,60,-99.99,,,-99.99,118.0,HOBO +U30 +Weather +,2013-04-14 17:55:00,
2013-04-14 13:56:00,52.2,38.9,-100.00,North,-999,-999.0,-999.0,60,-99.99,,,-99.99,118.0,HOBO +U30 +Weather +,2013-04-14 17:56:00,
2013-04-14 13:57:00,52.1,39.1,-100.00,North,-999,-999.0,-999.0,61,-99.99,,,-99.99,124.0,HOBO +U30 +Weather +,2013-04-14 17:57:00,
2013-04-14 13:58:00,52.1,39.4,-100.00,North,-999,-999.0,-999.0,61,-99.99,,,-99.99,136.0,HOBO +U30 +Weather +,2013-04-14 17:58:00,
2013-04-14 13:59:00,52.2,39.1,-100.00,North,-999,-999.0,-999.0,61,-99.99,,,-99.99,152.0,HOBO +U30 +Weather +,2013-04-14 17:59:00,
2013-04-14 14:00:00,52.2,39.3,-100.00,North,-999,-999.0,-999.0,61,-99.99,,,-99.99,183.0,HOBO +U30 +Weather +,2013-04-14 18:00:00,
2013-04-14 14:01:00,52.3,39.1,-100.00,North,-999,-999.0,-999.0,60,-99.99,,,-99.99,238.0,HOBO +U30 +Weather +,2013-04-14 18:01:00,
2013-04-14 14:02:00,52.3,38.6,-100.00,North,-999,-999.0,-999.0,59,-99.99,,,-99.99,298.0,HOBO +U30 +Weather +,2013-04-14 18:02:00,
2013-04-14 14:03:00,52.4,38.7,-100.00,North,-999,-999.0,-999.0,59,-99.99,,,-99.99,357.0,HOBO +U30 +Weather +,2013-04-14 18:03:00,
2013-04-14 14:04:00,52.6,38.8,-100.00,North,-999,-999.0,-999.0,59,-99.99,,,-99.99,408.0,HOBO +U30 +Weather +,2013-04-14 18:04:00,
2013-04-14 14:05:00,53.1,39.8,-100.00,North,-999,-999.0,-999.0,60,-99.99,,,-99.99,614.0,HOBO +U30 +Weather +,2013-04-14 18:05:00,
2013-04-14 14:06:00,53.7,39.8,-100.00,North,-999,-999.0,-999.0,59,-99.99,,,-99.99,398.0,HOBO +U30 +Weather +,2013-04-14 18:06:00,
2013-04-14 14:07:00,54.2,40.7,-100.00,North,-999,-999.0,-999.0,60,-99.99,,,-99.99,374.0,HOBO +U30 +Weather +,2013-04-14 18:07:00,
2013-04-14 14:08:00,54.2,39.2,-100.00,North,-999,-999.0,-999.0,56,-99.99,,,-99.99,364.0,HOBO +U30 +Weather +,2013-04-14 18:08:00,
2013-04-14 14:09:00,54.2,39.7,-100.00,North,-999,-999.0,-999.0,57,-99.99,,,-99.99,373.0,HOBO +U30 +Weather +,2013-04-14 18:09:00,
2013-04-14 14:10:00,54.3,39.7,-100.00,North,-999,-999.0,-999.0,57,-99.99,,,-99.99,331.0,HOBO +U30 +Weather +,2013-04-14 18:10:00,
2013-04-14 14:11:00,54.3,39.3,-100.00,North,-999,-999.0,-999.0,56,-99.99,,,-99.99,298.0,HOBO +U30 +Weather +,2013-04-14 18:11:00,
2013-04-14 14:12:00,54.3,39.4,-100.00,North,-999,-999.0,-999.0,56,-99.99,,,-99.99,269.0,HOBO +U30 +Weather +,2013-04-14 18:12:00,
2013-04-14 14:13:00,54.2,39.2,-100.00,North,-999,-999.0,-999.0,56,-99.99,,,-99.99,247.0,HOBO +U30 +Weather +,2013-04-14 18:13:00,
2013-04-14 14:14:00,54.1,38.9,-100.00,North,-999,-999.0,-999.0,56,-99.99,,,-99.99,233.0,HOBO +U30 +Weather +,2013-04-14 18:14:00,
2013-04-14 14:15:00,53.9,38.4,-100.00,North,-999,-999.0,-999.0,55,-99.99,,,-99.99,217.0,HOBO +U30 +Weather +,2013-04-14 18:15:00,
2013-04-14 14:16:00,53.7,38.8,-100.00,North,-999,-999.0,-999.0,56,-99.99,,,-99.99,193.0,HOBO +U30 +Weather +,2013-04-14 18:16:00,
2013-04-14 14:17:00,53.7,38.7,-100.00,North,-999,-999.0,-999.0,56,-99.99,,,-99.99,173.0,HOBO +U30 +Weather +,2013-04-14 18:17:00,
2013-04-14 14:18:00,53.6,38.4,-100.00,North,-999,-999.0,-999.0,56,-99.99,,,-99.99,158.0,HOBO +U30 +Weather +,2013-04-14 18:18:00,
2013-04-14 14:19:00,53.4,38.3,-100.00,North,-999,-999.0,-999.0,56,-99.99,,,-99.99,143.0,HOBO +U30 +Weather +,2013-04-14 18:19:00,
2013-04-14 14:20:00,53.3,38.2,-100.00,North,-999,-999.0,-999.0,56,-99.99,,,-99.99,131.0,HOBO +U30 +Weather +,2013-04-14 18:20:00,
2013-04-14 14:21:00,53.2,38.3,-100.00,North,-999,-999.0,-999.0,56,-99.99,,,-99.99,119.0,HOBO +U30 +Weather +,2013-04-14 18:21:00,
2013-04-14 14:22:00,53.0,37.5,-100.00,North,-999,-999.0,-999.0,55,-99.99,,,-99.99,114.0,HOBO +U30 +Weather +,2013-04-14 18:22:00,
2013-04-14 14:23:00,52.8,37.8,-100.00,North,-999,-999.0,-999.0,56,-99.99,,,-99.99,116.0,HOBO +U30 +Weather +,2013-04-14 18:23:00,
2013-04-14 14:24:00,52.7,37.5,-100.00,North,-999,-999.0,-999.0,56,-99.99,,,-99.99,124.0,HOBO +U30 +Weather +,2013-04-14 18:24:00,
2013-04-14 14:25:00,52.6,37.4,-100.00,North,-999,-999.0,-999.0,56,-99.99,,,-99.99,143.0,HOBO +U30 +Weather +,2013-04-14 18:25:00,
2013-04-14 14:26:00,52.5,37.1,-100.00,North,-999,-999.0,-999.0,55,-99.99,,,-99.99,163.0,HOBO +U30 +Weather +,2013-04-14 18:26:00,
2013-04-14 14:27:00,52.4,37.1,-100.00,North,-999,-999.0,-999.0,55,-99.99,,,-99.99,182.0,HOBO +U30 +Weather +,2013-04-14 18:27:00,
2013-04-14 14:28:00,52.3,37.4,-100.00,North,-999,-999.0,-999.0,56,-99.99,,,-99.99,194.0,HOBO +U30 +Weather +,2013-04-14 18:28:00,
2013-04-14 14:29:00,52.3,37.2,-100.00,North,-999,-999.0,-999.0,56,-99.99,,,-99.99,199.0,HOBO +U30 +Weather +,2013-04-14 18:29:00,
2013-04-14 14:30:00,52.2,37.4,-100.00,North,-999,-999.0,-999.0,56,-99.99,,,-99.99,203.0,HOBO +U30 +Weather +,2013-04-14 18:30:00,
2013-04-14 14:31:00,52.2,37.3,-100.00,North,-999,-999.0,-999.0,56,-99.99,,,-99.99,209.0,HOBO +U30 +Weather +,2013-04-14 18:31:00,
2013-04-14 14:32:00,52.2,37.4,-100.00,North,-999,-999.0,-999.0,56,-99.99,,,-99.99,218.0,HOBO +U30 +Weather +,2013-04-14 18:32:00,
2013-04-14 14:33:00,52.2,37.4,-100.00,North,-999,-999.0,-999.0,56,-99.99,,,-99.99,227.0,HOBO +U30 +Weather +,2013-04-14 18:33:00,
2013-04-14 14:34:00,52.2,37.6,-100.00,North,-999,-999.0,-999.0,57,-99.99,,,-99.99,227.0,HOBO +U30 +Weather +,2013-04-14 18:34:00,
2013-04-14 14:35:00,52.3,37.7,-100.00,North,-999,-999.0,-999.0,57,-99.99,,,-99.99,218.0,HOBO +U30 +Weather +,2013-04-14 18:35:00,
2013-04-14 14:36:00,52.3,37.7,-100.00,North,-999,-999.0,-999.0,57,-99.99,,,-99.99,209.0,HOBO +U30 +Weather +,2013-04-14 18:36:00,
2013-04-14 14:37:00,52.2,37.4,-100.00,North,-999,-999.0,-999.0,56,-99.99,,,-99.99,204.0,HOBO +U30 +Weather +,2013-04-14 18:37:00,
2013-04-14 14:38:00,52.2,37.7,-100.00,North,-999,-999.0,-999.0,57,-99.99,,,-99.99,208.0,HOBO +U30 +Weather +,2013-04-14 18:38:00,
2013-04-14 14:39:00,52.2,37.9,-100.00,North,-999,-999.0,-999.0,58,-99.99,,,-99.99,219.0,HOBO +U30 +Weather +,2013-04-14 18:39:00,
2013-04-14 14:40:00,52.2,37.4,-100.00,North,-999,-999.0,-999.0,56,-99.99,,,-99.99,241.0,HOBO +U30 +Weather +,2013-04-14 18:40:00,
2013-04-14 14:41:00,52.1,37.7,-100.00,North,-999,-999.0,-999.0,57,-99.99,,,-99.99,271.0,HOBO +U30 +Weather +,2013-04-14 18:41:00,
2013-04-14 14:42:00,52.3,38.1,-100.00,North,-999,-999.0,-999.0,58,-99.99,,,-99.99,312.0,HOBO +U30 +Weather +,2013-04-14 18:42:00,
2013-04-14 14:43:00,52.6,38.2,-100.00,North,-999,-999.0,-999.0,57,-99.99,,,-99.99,367.0,HOBO +U30 +Weather +,2013-04-14 18:43:00,
2013-04-14 14:44:00,52.8,38.3,-100.00,North,-999,-999.0,-999.0,57,-99.99,,,-99.99,373.0,HOBO +U30 +Weather +,2013-04-14 18:44:00,
2013-04-14 14:45:00,53.2,38.6,-100.00,North,-999,-999.0,-999.0,57,-99.99,,,-99.99,439.0,HOBO +U30 +Weather +,2013-04-14 18:45:00,
2013-04-14 14:46:00,53.6,39.2,-100.00,North,-999,-999.0,-999.0,58,-99.99,,,-99.99,356.0,HOBO +U30 +Weather +,2013-04-14 18:46:00,
2013-04-14 14:47:00,53.7,38.3,-100.00,North,-999,-999.0,-999.0,55,-99.99,,,-99.99,256.0,HOBO +U30 +Weather +,2013-04-14 18:47:00,
2013-04-14 14:48:00,53.7,38.7,-100.00,North,-999,-999.0,-999.0,56,-99.99,,,-99.99,257.0,HOBO +U30 +Weather +,2013-04-14 18:48:00,
2013-04-14 14:49:00,53.8,38.3,-100.00,North,-999,-999.0,-999.0,55,-99.99,,,-99.99,268.0,HOBO +U30 +Weather +,2013-04-14 18:49:00,
2013-04-14 14:50:00,53.9,38.7,-100.00,North,-999,-999.0,-999.0,56,-99.99,,,-99.99,296.0,HOBO +U30 +Weather +,2013-04-14 18:50:00,
2013-04-14 14:51:00,53.9,38.2,-100.00,North,-999,-999.0,-999.0,55,-99.99,,,-99.99,356.0,HOBO +U30 +Weather +,2013-04-14 18:51:00,
2013-04-14 14:52:00,54.0,39.0,-100.00,North,-999,-999.0,-999.0,56,-99.99,,,-99.99,321.0,HOBO +U30 +Weather +,2013-04-14 18:52:00,
2013-04-14 14:53:00,53.9,38.6,-100.00,North,-999,-999.0,-999.0,56,-99.99,,,-99.99,296.0,HOBO +U30 +Weather +,2013-04-14 18:53:00,
2013-04-14 14:54:00,53.9,38.7,-100.00,North,-999,-999.0,-999.0,56,-99.99,,,-99.99,277.0,HOBO +U30 +Weather +,2013-04-14 18:54:00,
2013-04-14 14:55:00,53.8,38.6,-100.00,North,-999,-999.0,-999.0,56,-99.99,,,-99.99,254.0,HOBO +U30 +Weather +,2013-04-14 18:55:00,
2013-04-14 14:56:00,53.7,37.8,-100.00,North,-999,-999.0,-999.0,54,-99.99,,,-99.99,229.0,HOBO +U30 +Weather +,2013-04-14 18:56:00,
2013-04-14 14:57:00,53.4,37.6,-100.00,North,-999,-999.0,-999.0,54,-99.99,,,-99.99,211.0,HOBO +U30 +Weather +,2013-04-14 18:57:00,
2013-04-14 14:58:00,53.3,37.7,-100.00,North,-999,-999.0,-999.0,55,-99.99,,,-99.99,197.0,HOBO +U30 +Weather +,2013-04-14 18:58:00,
2013-04-14 14:59:00,53.0,37.3,-100.00,North,-999,-999.0,-999.0,55,-99.99,,,-99.99,192.0,HOBO +U30 +Weather +,2013-04-14 18:59:00,
2013-04-14 15:00:00,52.7,37.2,-100.00,North,-999,-999.0,-999.0,55,-99.99,,,-99.99,188.0,HOBO +U30 +Weather +,2013-04-14 19:00:00,
2013-04-14 15:01:00,52.6,37.0,-100.00,North,-999,-999.0,-999.0,55,-99.99,,,-99.99,181.0,HOBO +U30 +Weather +,2013-04-14 19:01:00,
2013-04-14 15:02:00,52.6,37.3,-100.00,North,-999,-999.0,-999.0,55,-99.99,,,-99.99,172.0,HOBO +U30 +Weather +,2013-04-14 19:02:00,
2013-04-14 15:03:00,52.6,37.3,-100.00,North,-999,-999.0,-999.0,55,-99.99,,,-99.99,168.0,HOBO +U30 +Weather +,2013-04-14 19:03:00,
2013-04-14 15:04:00,52.6,37.2,-100.00,North,-999,-999.0,-999.0,55,-99.99,,,-99.99,174.0,HOBO +U30 +Weather +,2013-04-14 19:04:00,
2013-04-14 15:05:00,52.6,37.2,-100.00,North,-999,-999.0,-999.0,55,-99.99,,,-99.99,183.0,HOBO +U30 +Weather +,2013-04-14 19:05:00,
2013-04-14 15:06:00,52.6,37.1,-100.00,North,-999,-999.0,-999.0,55,-99.99,,,-99.99,189.0,HOBO +U30 +Weather +,2013-04-14 19:06:00,
2013-04-14 15:07:00,52.6,37.1,-100.00,North,-999,-999.0,-999.0,55,-99.99,,,-99.99,186.0,HOBO +U30 +Weather +,2013-04-14 19:07:00,
2013-04-14 15:08:00,52.5,36.9,-100.00,North,-999,-999.0,-999.0,55,-99.99,,,-99.99,178.0,HOBO +U30 +Weather +,2013-04-14 19:08:00,
2013-04-14 15:09:00,52.4,36.8,-100.00,North,-999,-999.0,-999.0,55,-99.99,,,-99.99,176.0,HOBO +U30 +Weather +,2013-04-14 19:09:00,
2013-04-14 15:10:00,52.3,36.6,-100.00,North,-999,-999.0,-999.0,54,-99.99,,,-99.99,177.0,HOBO +U30 +Weather +,2013-04-14 19:10:00,
2013-04-14 15:11:00,52.3,36.9,-100.00,North,-999,-999.0,-999.0,55,-99.99,,,-99.99,182.0,HOBO +U30 +Weather +,2013-04-14 19:11:00,
2013-04-14 15:12:00,52.3,36.6,-100.00,North,-999,-999.0,-999.0,54,-99.99,,,-99.99,191.0,HOBO +U30 +Weather +,2013-04-14 19:12:00,
2013-04-14 15:13:00,52.3,36.7,-100.00,North,-999,-999.0,-999.0,55,-99.99,,,-99.99,204.0,HOBO +U30 +Weather +,2013-04-14 19:13:00,
2013-04-14 15:14:00,52.4,36.6,-100.00,North,-999,-999.0,-999.0,54,-99.99,,,-99.99,218.0,HOBO +U30 +Weather +,2013-04-14 19:14:00,
2013-04-14 15:15:00,52.4,36.7,-100.00,North,-999,-999.0,-999.0,54,-99.99,,,-99.99,236.0,HOBO +U30 +Weather +,2013-04-14 19:15:00,
2013-04-14 15:16:00,52.5,36.5,-100.00,North,-999,-999.0,-999.0,54,-99.99,,,-99.99,247.0,HOBO +U30 +Weather +,2013-04-14 19:16:00,
2013-04-14 15:17:00,52.6,36.6,-100.00,North,-999,-999.0,-999.0,54,-99.99,,,-99.99,259.0,HOBO +U30 +Weather +,2013-04-14 19:17:00,
2013-04-14 15:18:00,52.7,36.3,-100.00,North,-999,-999.0,-999.0,53,-99.99,,,-99.99,273.0,HOBO +U30 +Weather +,2013-04-14 19:18:00,
2013-04-14 15:19:00,52.8,36.9,-100.00,North,-999,-999.0,-999.0,54,-99.99,,,-99.99,283.0,HOBO +U30 +Weather +,2013-04-14 19:19:00,
2013-04-14 15:20:00,52.9,36.5,-100.00,North,-999,-999.0,-999.0,53,-99.99,,,-99.99,302.0,HOBO +U30 +Weather +,2013-04-14 19:20:00,
2013-04-14 15:21:00,53.0,37.0,-100.00,North,-999,-999.0,-999.0,54,-99.99,,,-99.99,336.0,HOBO +U30 +Weather +,2013-04-14 19:21:00,
2013-04-14 15:22:00,53.1,36.4,-100.00,North,-999,-999.0,-999.0,52,-99.99,,,-99.99,359.0,HOBO +U30 +Weather +,2013-04-14 19:22:00,
2013-04-14 15:23:00,53.3,37.2,-100.00,North,-999,-999.0,-999.0,54,-99.99,,,-99.99,396.0,HOBO +U30 +Weather +,2013-04-14 19:23:00,
2013-04-14 15:24:00,53.5,36.9,-100.00,North,-999,-999.0,-999.0,53,-99.99,,,-99.99,653.0,HOBO +U30 +Weather +,2013-04-14 19:24:00,
2013-04-14 15:25:00,53.9,37.9,-100.00,North,-999,-999.0,-999.0,54,-99.99,,,-99.99,444.0,HOBO +U30 +Weather +,2013-04-14 19:25:00,
2013-04-14 15:26:00,54.5,37.8,-100.00,North,-999,-999.0,-999.0,53,-99.99,,,-99.99,469.0,HOBO +U30 +Weather +,2013-04-14 19:26:00,
2013-04-14 15:27:00,54.3,36.8,-100.00,North,-999,-999.0,-999.0,51,-99.99,,,-99.99,432.0,HOBO +U30 +Weather +,2013-04-14 19:27:00,
2013-04-14 15:28:00,53.9,36.8,-100.00,North,-999,-999.0,-999.0,52,-99.99,,,-99.99,466.0,HOBO +U30 +Weather +,2013-04-14 19:28:00,
2013-04-14 15:29:00,53.9,37.2,-100.00,North,-999,-999.0,-999.0,53,-99.99,,,-99.99,633.0,HOBO +U30 +Weather +,2013-04-14 19:29:00,
2013-04-14 15:30:00,54.6,37.5,-100.00,North,-999,-999.0,-999.0,52,-99.99,,,-99.99,842.0,HOBO +U30 +Weather +,2013-04-14 19:30:00,
2013-04-14 15:31:00,55.3,38.4,-100.00,North,-999,-999.0,-999.0,52,-99.99,,,-99.99,901.0,HOBO +U30 +Weather +,2013-04-14 19:31:00,
2013-04-14 15:32:00,56.3,38.8,-100.00,North,-999,-999.0,-999.0,51,-99.99,,,-99.99,847.0,HOBO +U30 +Weather +,2013-04-14 19:32:00,
2013-04-14 15:33:00,55.8,37.8,-100.00,North,-999,-999.0,-999.0,50,-99.99,,,-99.99,361.0,HOBO +U30 +Weather +,2013-04-14 19:33:00,
2013-04-14 15:34:00,55.2,37.6,-100.00,North,-999,-999.0,-999.0,51,-99.99,,,-99.99,333.0,HOBO +U30 +Weather +,2013-04-14 19:34:00,
2013-04-14 15:35:00,55.2,37.4,-100.00,North,-999,-999.0,-999.0,51,-99.99,,,-99.99,583.0,HOBO +U30 +Weather +,2013-04-14 19:35:00,
2013-04-14 15:36:00,54.9,37.1,-100.00,North,-999,-999.0,-999.0,50,-99.99,,,-99.99,273.0,HOBO +U30 +Weather +,2013-04-14 19:36:00,
2013-04-14 15:37:00,54.6,36.9,-100.00,North,-999,-999.0,-999.0,51,-99.99,,,-99.99,277.0,HOBO +U30 +Weather +,2013-04-14 19:37:00,
2013-04-14 15:38:00,54.2,36.1,-100.00,North,-999,-999.0,-999.0,50,-99.99,,,-99.99,281.0,HOBO +U30 +Weather +,2013-04-14 19:38:00,
2013-04-14 15:39:00,53.9,36.1,-100.00,North,-999,-999.0,-999.0,50,-99.99,,,-99.99,432.0,HOBO +U30 +Weather +,2013-04-14 19:39:00,
2013-04-14 15:40:00,53.8,36.3,-100.00,North,-999,-999.0,-999.0,51,-99.99,,,-99.99,331.0,HOBO +U30 +Weather +,2013-04-14 19:40:00,
2013-04-14 15:41:00,53.8,35.9,-100.00,North,-999,-999.0,-999.0,50,-99.99,,,-99.99,339.0,HOBO +U30 +Weather +,2013-04-14 19:41:00,
2013-04-14 15:42:00,53.6,35.9,-100.00,North,-999,-999.0,-999.0,50,-99.99,,,-99.99,352.0,HOBO +U30 +Weather +,2013-04-14 19:42:00,
2013-04-14 15:43:00,53.7,36.1,-100.00,North,-999,-999.0,-999.0,51,-99.99,,,-99.99,322.0,HOBO +U30 +Weather +,2013-04-14 19:43:00,
2013-04-14 15:44:00,53.8,36.3,-100.00,North,-999,-999.0,-999.0,51,-99.99,,,-99.99,301.0,HOBO +U30 +Weather +,2013-04-14 19:44:00,
2013-04-14 15:45:00,53.9,36.2,-100.00,North,-999,-999.0,-999.0,50,-99.99,,,-99.99,291.0,HOBO +U30 +Weather +,2013-04-14 19:45:00,
2013-04-14 15:46:00,53.7,35.9,-100.00,North,-999,-999.0,-999.0,50,-99.99,,,-99.99,283.0,HOBO +U30 +Weather +,2013-04-14 19:46:00,
2013-04-14 15:47:00,53.7,35.6,-100.00,North,-999,-999.0,-999.0,50,-99.99,,,-99.99,282.0,HOBO +U30 +Weather +,2013-04-14 19:47:00,
2013-04-14 15:48:00,53.4,35.5,-100.00,North,-999,-999.0,-999.0,50,-99.99,,,-99.99,286.0,HOBO +U30 +Weather +,2013-04-14 19:48:00,
2013-04-14 15:49:00,53.6,36.0,-100.00,North,-999,-999.0,-999.0,51,-99.99,,,-99.99,277.0,HOBO +U30 +Weather +,2013-04-14 19:49:00,
2013-04-14 15:50:00,53.7,35.6,-100.00,North,-999,-999.0,-999.0,50,-99.99,,,-99.99,264.0,HOBO +U30 +Weather +,2013-04-14 19:50:00,
2013-04-14 15:51:00,53.6,35.3,-100.00,North,-999,-999.0,-999.0,49,-99.99,,,-99.99,264.0,HOBO +U30 +Weather +,2013-04-14 19:51:00,
2013-04-14 15:52:00,53.6,35.5,-100.00,North,-999,-999.0,-999.0,50,-99.99,,,-99.99,268.0,HOBO +U30 +Weather +,2013-04-14 19:52:00,
2013-04-14 15:53:00,53.5,35.8,-100.00,North,-999,-999.0,-999.0,50,-99.99,,,-99.99,271.0,HOBO +U30 +Weather +,2013-04-14 19:53:00,
2013-04-14 15:54:00,53.6,35.6,-100.00,North,-999,-999.0,-999.0,50,-99.99,,,-99.99,261.0,HOBO +U30 +Weather +,2013-04-14 19:54:00,
2013-04-14 15:55:00,53.6,35.8,-100.00,North,-999,-999.0,-999.0,50,-99.99,,,-99.99,251.0,HOBO +U30 +Weather +,2013-04-14 19:55:00,
2013-04-14 15:56:00,53.6,35.2,-100.00,North,-999,-999.0,-999.0,49,-99.99,,,-99.99,247.0,HOBO +U30 +Weather +,2013-04-14 19:56:00,
2013-04-14 15:57:00,53.5,35.6,-100.00,North,-999,-999.0,-999.0,50,-99.99,,,-99.99,253.0,HOBO +U30 +Weather +,2013-04-14 19:57:00,
2013-04-14 15:58:00,53.5,35.3,-100.00,North,-999,-999.0,-999.0,49,-99.99,,,-99.99,264.0,HOBO +U30 +Weather +,2013-04-14 19:58:00,
2013-04-14 15:59:00,53.5,35.5,-100.00,North,-999,-999.0,-999.0,50,-99.99,,,-99.99,277.0,HOBO +U30 +Weather +,2013-04-14 19:59:00,
2013-04-14 16:00:00,53.5,35.3,-100.00,North,-999,-999.0,-999.0,49,-99.99,,,-99.99,288.0,HOBO +U30 +Weather +,2013-04-14 20:00:00,
2013-04-14 16:01:00,53.5,35.7,-100.00,North,-999,-999.0,-999.0,50,-99.99,,,-99.99,308.0,HOBO +U30 +Weather +,2013-04-14 20:01:00,
2013-04-14 16:02:00,53.6,35.2,-100.00,North,-999,-999.0,-999.0,49,-99.99,,,-99.99,307.0,HOBO +U30 +Weather +,2013-04-14 20:02:00,
2013-04-14 16:03:00,53.6,35.2,-100.00,North,-999,-999.0,-999.0,49,-99.99,,,-99.99,272.0,HOBO +U30 +Weather +,2013-04-14 20:03:00,
2013-04-14 16:04:00,53.7,35.3,-100.00,North,-999,-999.0,-999.0,49,-99.99,,,-99.99,258.0,HOBO +U30 +Weather +,2013-04-14 20:04:00,
2013-04-14 16:05:00,53.4,35.0,-100.00,North,-999,-999.0,-999.0,49,-99.99,,,-99.99,352.0,HOBO +U30 +Weather +,2013-04-14 20:05:00,
2013-04-14 16:06:00,53.8,35.8,-100.00,North,-999,-999.0,-999.0,50,-99.99,,,-99.99,662.0,HOBO +U30 +Weather +,2013-04-14 20:06:00,
2013-04-14 16:07:00,54.5,36.5,-100.00,North,-999,-999.0,-999.0,50,-99.99,,,-99.99,677.0,HOBO +U30 +Weather +,2013-04-14 20:07:00,
2013-04-14 16:08:00,55.1,36.6,-100.00,North,-999,-999.0,-999.0,49,-99.99,,,-99.99,533.0,HOBO +U30 +Weather +,2013-04-14 20:08:00,
2013-04-14 16:09:00,55.3,36.6,-100.00,North,-999,-999.0,-999.0,49,-99.99,,,-99.99,337.0,HOBO +U30 +Weather +,2013-04-14 20:09:00,
2013-04-14 16:10:00,54.8,35.2,-100.00,North,-999,-999.0,-999.0,47,-99.99,,,-99.99,182.0,HOBO +U30 +Weather +,2013-04-14 20:10:00,
2013-04-14 16:11:00,54.0,34.7,-100.00,North,-999,-999.0,-999.0,47,-99.99,,,-99.99,187.0,HOBO +U30 +Weather +,2013-04-14 20:11:00,
2013-04-14 16:12:00,53.8,34.6,-100.00,North,-999,-999.0,-999.0,48,-99.99,,,-99.99,193.0,HOBO +U30 +Weather +,2013-04-14 20:12:00,
2013-04-14 16:13:00,53.7,34.8,-100.00,North,-999,-999.0,-999.0,48,-99.99,,,-99.99,238.0,HOBO +U30 +Weather +,2013-04-14 20:13:00,
2013-04-14 16:14:00,53.6,34.9,-100.00,North,-999,-999.0,-999.0,48,-99.99,,,-99.99,212.0,HOBO +U30 +Weather +,2013-04-14 20:14:00,
2013-04-14 16:15:00,53.8,35.0,-100.00,North,-999,-999.0,-999.0,48,-99.99,,,-99.99,608.0,HOBO +U30 +Weather +,2013-04-14 20:15:00,
2013-04-14 16:16:00,54.1,35.6,-100.00,North,-999,-999.0,-999.0,49,-99.99,,,-99.99,212.0,HOBO +U30 +Weather +,2013-04-14 20:16:00,
2013-04-14 16:17:00,54.0,34.8,-100.00,North,-999,-999.0,-999.0,47,-99.99,,,-99.99,309.0,HOBO +U30 +Weather +,2013-04-14 20:17:00,
2013-04-14 16:18:00,54.0,35.3,-100.00,North,-999,-999.0,-999.0,48,-99.99,,,-99.99,578.0,HOBO +U30 +Weather +,2013-04-14 20:18:00,
2013-04-14 16:19:00,54.5,35.4,-100.00,North,-999,-999.0,-999.0,48,-99.99,,,-99.99,566.0,HOBO +U30 +Weather +,2013-04-14 20:19:00,
2013-04-14 16:20:00,54.6,35.1,-100.00,North,-999,-999.0,-999.0,47,-99.99,,,-99.99,542.0,HOBO +U30 +Weather +,2013-04-14 20:20:00,
2013-04-14 16:21:00,54.9,35.5,-100.00,North,-999,-999.0,-999.0,47,-99.99,,,-99.99,182.0,HOBO +U30 +Weather +,2013-04-14 20:21:00,
2013-04-14 16:22:00,54.9,35.7,-100.00,North,-999,-999.0,-999.0,48,-99.99,,,-99.99,92.0,HOBO +U30 +Weather +,2013-04-14 20:22:00,
2013-04-14 16:23:00,54.7,35.7,-100.00,North,-999,-999.0,-999.0,48,-99.99,,,-99.99,81.0,HOBO +U30 +Weather +,2013-04-14 20:23:00,
2013-04-14 16:24:00,54.2,35.1,-100.00,North,-999,-999.0,-999.0,48,-99.99,,,-99.99,78.0,HOBO +U30 +Weather +,2013-04-14 20:24:00,
2013-04-14 16:25:00,53.4,34.3,-100.00,North,-999,-999.0,-999.0,48,-99.99,,,-99.99,83.0,HOBO +U30 +Weather +,2013-04-14 20:25:00,
2013-04-14 16:26:00,52.9,34.1,-100.00,North,-999,-999.0,-999.0,48,-99.99,,,-99.99,94.0,HOBO +U30 +Weather +,2013-04-14 20:26:00,
2013-04-14 16:27:00,52.6,34.2,-100.00,North,-999,-999.0,-999.0,49,-99.99,,,-99.99,108.0,HOBO +U30 +Weather +,2013-04-14 20:27:00,
2013-04-14 16:28:00,52.4,34.3,-100.00,North,-999,-999.0,-999.0,49,-99.99,,,-99.99,164.0,HOBO +U30 +Weather +,2013-04-14 20:28:00,
2013-04-14 16:29:00,52.6,34.8,-100.00,North,-999,-999.0,-999.0,50,-99.99,,,-99.99,536.0,HOBO +U30 +Weather +,2013-04-14 20:29:00,
2013-04-14 16:30:00,53.2,34.8,-100.00,North,-999,-999.0,-999.0,49,-99.99,,,-99.99,543.0,HOBO +U30 +Weather +,2013-04-14 20:30:00,
2013-04-14 16:31:00,53.5,35.1,-100.00,North,-999,-999.0,-999.0,49,-99.99,,,-99.99,156.0,HOBO +U30 +Weather +,2013-04-14 20:31:00,
2013-04-14 16:32:00,53.5,35.3,-100.00,North,-999,-999.0,-999.0,50,-99.99,,,-99.99,147.0,HOBO +U30 +Weather +,2013-04-14 20:32:00,
2013-04-14 16:33:00,53.4,34.8,-100.00,North,-999,-999.0,-999.0,49,-99.99,,,-99.99,143.0,HOBO +U30 +Weather +,2013-04-14 20:33:00,
2013-04-14 16:34:00,53.3,35.1,-100.00,North,-999,-999.0,-999.0,49,-99.99,,,-99.99,142.0,HOBO +U30 +Weather +,2013-04-14 20:34:00,
2013-04-14 16:35:00,53.0,34.8,-100.00,North,-999,-999.0,-999.0,49,-99.99,,,-99.99,144.0,HOBO +U30 +Weather +,2013-04-14 20:35:00,
2013-04-14 16:36:00,52.8,34.4,-100.00,North,-999,-999.0,-999.0,49,-99.99,,,-99.99,153.0,HOBO +U30 +Weather +,2013-04-14 20:36:00,
2013-04-14 16:37:00,52.6,34.3,-100.00,North,-999,-999.0,-999.0,49,-99.99,,,-99.99,167.0,HOBO +U30 +Weather +,2013-04-14 20:37:00,
2013-04-14 16:38:00,52.5,34.2,-100.00,North,-999,-999.0,-999.0,49,-99.99,,,-99.99,183.0,HOBO +U30 +Weather +,2013-04-14 20:38:00,
2013-04-14 16:39:00,52.4,34.8,-100.00,North,-999,-999.0,-999.0,50,-99.99,,,-99.99,194.0,HOBO +U30 +Weather +,2013-04-14 20:39:00,
2013-04-14 16:40:00,52.5,34.4,-100.00,North,-999,-999.0,-999.0,49,-99.99,,,-99.99,192.0,HOBO +U30 +Weather +,2013-04-14 20:40:00,
2013-04-14 16:41:00,52.6,34.6,-100.00,North,-999,-999.0,-999.0,50,-99.99,,,-99.99,183.0,HOBO +U30 +Weather +,2013-04-14 20:41:00,
2013-04-14 16:42:00,52.6,34.4,-100.00,North,-999,-999.0,-999.0,49,-99.99,,,-99.99,174.0,HOBO +U30 +Weather +,2013-04-14 20:42:00,
2013-04-14 16:43:00,52.6,34.2,-100.00,North,-999,-999.0,-999.0,49,-99.99,,,-99.99,169.0,HOBO +U30 +Weather +,2013-04-14 20:43:00,
2013-04-14 16:44:00,52.6,34.4,-100.00,North,-999,-999.0,-999.0,49,-99.99,,,-99.99,179.0,HOBO +U30 +Weather +,2013-04-14 20:44:00,
2013-04-14 16:45:00,52.7,34.6,-100.00,North,-999,-999.0,-999.0,50,-99.99,,,-99.99,533.0,HOBO +U30 +Weather +,2013-04-14 20:45:00,
2013-04-14 16:46:00,53.2,35.2,-100.00,North,-999,-999.0,-999.0,50,-99.99,,,-99.99,543.0,HOBO +U30 +Weather +,2013-04-14 20:46:00,
2013-04-14 16:47:00,53.7,35.0,-100.00,North,-999,-999.0,-999.0,48,-99.99,,,-99.99,544.0,HOBO +U30 +Weather +,2013-04-14 20:47:00,
2013-04-14 16:48:00,54.1,35.4,-100.00,North,-999,-999.0,-999.0,49,-99.99,,,-99.99,338.0,HOBO +U30 +Weather +,2013-04-14 20:48:00,
2013-04-14 16:49:00,53.9,34.8,-100.00,North,-999,-999.0,-999.0,48,-99.99,,,-99.99,196.0,HOBO +U30 +Weather +,2013-04-14 20:49:00,
2013-04-14 16:50:00,53.7,34.9,-100.00,North,-999,-999.0,-999.0,48,-99.99,,,-99.99,172.0,HOBO +U30 +Weather +,2013-04-14 20:50:00,
2013-04-14 16:51:00,53.3,34.3,-100.00,North,-999,-999.0,-999.0,48,-99.99,,,-99.99,157.0,HOBO +U30 +Weather +,2013-04-14 20:51:00,
2013-04-14 16:52:00,53.0,34.3,-100.00,North,-999,-999.0,-999.0,48,-99.99,,,-99.99,151.0,HOBO +U30 +Weather +,2013-04-14 20:52:00,
2013-04-14 16:53:00,53.0,34.4,-100.00,North,-999,-999.0,-999.0,49,-99.99,,,-99.99,141.0,HOBO +U30 +Weather +,2013-04-14 20:53:00,
2013-04-14 16:54:00,52.9,34.6,-100.00,North,-999,-999.0,-999.0,49,-99.99,,,-99.99,126.0,HOBO +U30 +Weather +,2013-04-14 20:54:00,
2013-04-14 16:55:00,53.0,34.9,-100.00,North,-999,-999.0,-999.0,50,-99.99,,,-99.99,118.0,HOBO +U30 +Weather +,2013-04-14 20:55:00,
2013-04-14 16:56:00,53.0,34.9,-100.00,North,-999,-999.0,-999.0,50,-99.99,,,-99.99,103.0,HOBO +U30 +Weather +,2013-04-14 20:56:00,
2013-04-14 16:57:00,52.9,34.8,-100.00,North,-999,-999.0,-999.0,50,-99.99,,,-99.99,96.0,HOBO +U30 +Weather +,2013-04-14 20:57:00,
2013-04-14 16:58:00,52.8,34.8,-100.00,North,-999,-999.0,-999.0,50,-99.99,,,-99.99,93.0,HOBO +U30 +Weather +,2013-04-14 20:58:00,
2013-04-14 16:59:00,52.6,34.5,-100.00,North,-999,-999.0,-999.0,49,-99.99,,,-99.99,98.0,HOBO +U30 +Weather +,2013-04-14 20:59:00,
2013-04-14 17:00:00,52.4,34.3,-100.00,North,-999,-999.0,-999.0,49,-99.99,,,-99.99,106.0,HOBO +U30 +Weather +,2013-04-14 21:00:00,
2013-04-14 17:01:00,52.3,34.3,-100.00,North,-999,-999.0,-999.0,50,-99.99,,,-99.99,121.0,HOBO +U30 +Weather +,2013-04-14 21:01:00,
2013-04-14 17:02:00,52.2,33.9,-100.00,North,-999,-999.0,-999.0,49,-99.99,,,-99.99,219.0,HOBO +U30 +Weather +,2013-04-14 21:02:00,
2013-04-14 17:03:00,52.4,34.3,-100.00,North,-999,-999.0,-999.0,49,-99.99,,,-99.99,399.0,HOBO +U30 +Weather +,2013-04-14 21:03:00,
2013-04-14 17:04:00,52.7,34.4,-100.00,North,-999,-999.0,-999.0,49,-99.99,,,-99.99,439.0,HOBO +U30 +Weather +,2013-04-14 21:04:00,
2013-04-14 17:05:00,53.1,34.4,-100.00,North,-999,-999.0,-999.0,48,-99.99,,,-99.99,437.0,HOBO +U30 +Weather +,2013-04-14 21:05:00,
2013-04-14 17:06:00,53.6,34.9,-100.00,North,-999,-999.0,-999.0,49,-99.99,,,-99.99,427.0,HOBO +U30 +Weather +,2013-04-14 21:06:00,
2013-04-14 17:07:00,53.9,35.2,-100.00,North,-999,-999.0,-999.0,49,-99.99,,,-99.99,422.0,HOBO +U30 +Weather +,2013-04-14 21:07:00,
2013-04-14 17:08:00,54.3,35.0,-100.00,North,-999,-999.0,-999.0,47,-99.99,,,-99.99,412.0,HOBO +U30 +Weather +,2013-04-14 21:08:00,
2013-04-14 17:09:00,54.6,35.2,-100.00,North,-999,-999.0,-999.0,47,-99.99,,,-99.99,403.0,HOBO +U30 +Weather +,2013-04-14 21:09:00,
2013-04-14 17:10:00,54.6,35.3,-100.00,North,-999,-999.0,-999.0,47,-99.99,,,-99.99,386.0,HOBO +U30 +Weather +,2013-04-14 21:10:00,
2013-04-14 17:11:00,54.6,34.9,-100.00,North,-999,-999.0,-999.0,47,-99.99,,,-99.99,387.0,HOBO +U30 +Weather +,2013-04-14 21:11:00,
2013-04-14 17:12:00,54.6,34.8,-100.00,North,-999,-999.0,-999.0,47,-99.99,,,-99.99,113.0,HOBO +U30 +Weather +,2013-04-14 21:12:00,
2013-04-14 17:13:00,54.3,34.4,-100.00,North,-999,-999.0,-999.0,46,-99.99,,,-99.99,106.0,HOBO +U30 +Weather +,2013-04-14 21:13:00,
2013-04-14 17:14:00,53.8,34.7,-100.00,North,-999,-999.0,-999.0,48,-99.99,,,-99.99,98.0,HOBO +U30 +Weather +,2013-04-14 21:14:00,
2013-04-14 17:15:00,53.4,34.1,-100.00,North,-999,-999.0,-999.0,47,-99.99,,,-99.99,93.0,HOBO +U30 +Weather +,2013-04-14 21:15:00,
2013-04-14 17:16:00,53.0,33.6,-100.00,North,-999,-999.0,-999.0,47,-99.99,,,-99.99,89.0,HOBO +U30 +Weather +,2013-04-14 21:16:00,
2013-04-14 17:17:00,52.6,33.4,-100.00,North,-999,-999.0,-999.0,47,-99.99,,,-99.99,89.0,HOBO +U30 +Weather +,2013-04-14 21:17:00,
2013-04-14 17:18:00,52.4,33.5,-100.00,North,-999,-999.0,-999.0,48,-99.99,,,-99.99,102.0,HOBO +U30 +Weather +,2013-04-14 21:18:00,
2013-04-14 17:19:00,52.4,33.3,-100.00,North,-999,-999.0,-999.0,48,-99.99,,,-99.99,94.0,HOBO +U30 +Weather +,2013-04-14 21:19:00,
2013-04-14 17:20:00,52.2,33.2,-100.00,North,-999,-999.0,-999.0,48,-99.99,,,-99.99,154.0,HOBO +U30 +Weather +,2013-04-14 21:20:00,
2013-04-14 17:21:00,52.2,33.1,-100.00,North,-999,-999.0,-999.0,47,-99.99,,,-99.99,249.0,HOBO +U30 +Weather +,2013-04-14 21:21:00,
2013-04-14 17:22:00,52.5,33.5,-100.00,North,-999,-999.0,-999.0,48,-99.99,,,-99.99,332.0,HOBO +U30 +Weather +,2013-04-14 21:22:00,
2013-04-14 17:23:00,52.7,33.6,-100.00,North,-999,-999.0,-999.0,48,-99.99,,,-99.99,327.0,HOBO +U30 +Weather +,2013-04-14 21:23:00,
2013-04-14 17:24:00,53.0,34.5,-100.00,North,-999,-999.0,-999.0,49,-99.99,,,-99.99,328.0,HOBO +U30 +Weather +,2013-04-14 21:24:00,
2013-04-14 17:25:00,53.3,34.2,-100.00,North,-999,-999.0,-999.0,48,-99.99,,,-99.99,327.0,HOBO +U30 +Weather +,2013-04-14 21:25:00,
2013-04-14 17:26:00,53.4,33.9,-100.00,North,-999,-999.0,-999.0,47,-99.99,,,-99.99,318.0,HOBO +U30 +Weather +,2013-04-14 21:26:00,
2013-04-14 17:27:00,53.1,33.8,-100.00,North,-999,-999.0,-999.0,47,-99.99,,,-99.99,327.0,HOBO +U30 +Weather +,2013-04-14 21:27:00,
2013-04-14 17:28:00,53.0,33.6,-100.00,North,-999,-999.0,-999.0,47,-99.99,,,-99.99,121.0,HOBO +U30 +Weather +,2013-04-14 21:28:00,
2013-04-14 17:29:00,53.0,33.9,-100.00,North,-999,-999.0,-999.0,48,-99.99,,,-99.99,304.0,HOBO +U30 +Weather +,2013-04-14 21:29:00,
2013-04-14 17:30:00,52.9,33.4,-100.00,North,-999,-999.0,-999.0,47,-99.99,,,-99.99,93.0,HOBO +U30 +Weather +,2013-04-14 21:30:00,
2013-04-14 17:31:00,52.7,33.5,-100.00,North,-999,-999.0,-999.0,47,-99.99,,,-99.99,91.0,HOBO +U30 +Weather +,2013-04-14 21:31:00,
2013-04-14 17:32:00,52.6,33.4,-100.00,North,-999,-999.0,-999.0,47,-99.99,,,-99.99,94.0,HOBO +U30 +Weather +,2013-04-14 21:32:00,
2013-04-14 17:33:00,52.6,33.6,-100.00,North,-999,-999.0,-999.0,48,-99.99,,,-99.99,79.0,HOBO +U30 +Weather +,2013-04-14 21:33:00,
2013-04-14 17:34:00,52.4,32.8,-100.00,North,-999,-999.0,-999.0,47,-99.99,,,-99.99,76.0,HOBO +U30 +Weather +,2013-04-14 21:34:00,
2013-04-14 17:35:00,52.2,32.6,-100.00,North,-999,-999.0,-999.0,47,-99.99,,,-99.99,76.0,HOBO +U30 +Weather +,2013-04-14 21:35:00,
2013-04-14 17:36:00,51.9,32.3,-100.00,North,-999,-999.0,-999.0,46,-99.99,,,-99.99,74.0,HOBO +U30 +Weather +,2013-04-14 21:36:00,
2013-04-14 17:37:00,51.7,32.1,-100.00,North,-999,-999.0,-999.0,46,-99.99,,,-99.99,79.0,HOBO +U30 +Weather +,2013-04-14 21:37:00,
2013-04-14 17:38:00,51.7,32.2,-100.00,North,-999,-999.0,-999.0,47,-99.99,,,-99.99,69.0,HOBO +U30 +Weather +,2013-04-14 21:38:00,
2013-04-14 17:39:00,51.6,32.1,-100.00,North,-999,-999.0,-999.0,47,-99.99,,,-99.99,64.0,HOBO +U30 +Weather +,2013-04-14 21:39:00,
2013-04-14 17:40:00,51.5,31.9,-100.00,North,-999,-999.0,-999.0,46,-99.99,,,-99.99,63.0,HOBO +U30 +Weather +,2013-04-14 21:40:00,
2013-04-14 17:41:00,51.4,32.0,-100.00,North,-999,-999.0,-999.0,47,-99.99,,,-99.99,62.0,HOBO +U30 +Weather +,2013-04-14 21:41:00,
2013-04-14 17:42:00,51.3,31.8,-100.00,North,-999,-999.0,-999.0,47,-99.99,,,-99.99,61.0,HOBO +U30 +Weather +,2013-04-14 21:42:00,
2013-04-14 17:43:00,51.2,31.9,-100.00,North,-999,-999.0,-999.0,47,-99.99,,,-99.99,62.0,HOBO +U30 +Weather +,2013-04-14 21:43:00,
2013-04-14 17:44:00,51.2,31.8,-100.00,North,-999,-999.0,-999.0,47,-99.99,,,-99.99,63.0,HOBO +U30 +Weather +,2013-04-14 21:44:00,
2013-04-14 17:45:00,51.1,32.1,-100.00,North,-999,-999.0,-999.0,48,-99.99,,,-99.99,64.0,HOBO +U30 +Weather +,2013-04-14 21:45:00,
2013-04-14 17:46:00,51.0,32.5,-100.00,North,-999,-999.0,-999.0,48,-99.99,,,-99.99,62.0,HOBO +U30 +Weather +,2013-04-14 21:46:00,
2013-04-14 17:47:00,51.0,32.1,-100.00,North,-999,-999.0,-999.0,48,-99.99,,,-99.99,59.0,HOBO +U30 +Weather +,2013-04-14 21:47:00,
2013-04-14 17:48:00,51.0,32.5,-100.00,North,-999,-999.0,-999.0,49,-99.99,,,-99.99,57.0,HOBO +U30 +Weather +,2013-04-14 21:48:00,
2013-04-14 17:49:00,50.9,32.4,-100.00,North,-999,-999.0,-999.0,48,-99.99,,,-99.99,56.0,HOBO +U30 +Weather +,2013-04-14 21:49:00,
2013-04-14 17:50:00,50.9,32.5,-100.00,North,-999,-999.0,-999.0,49,-99.99,,,-99.99,56.0,HOBO +U30 +Weather +,2013-04-14 21:50:00,
2013-04-14 17:51:00,50.9,32.4,-100.00,North,-999,-999.0,-999.0,49,-99.99,,,-99.99,54.0,HOBO +U30 +Weather +,2013-04-14 21:51:00,
2013-04-14 17:52:00,50.9,32.4,-100.00,North,-999,-999.0,-999.0,48,-99.99,,,-99.99,54.0,HOBO +U30 +Weather +,2013-04-14 21:52:00,
2013-04-14 17:53:00,50.9,32.4,-100.00,North,-999,-999.0,-999.0,48,-99.99,,,-99.99,56.0,HOBO +U30 +Weather +,2013-04-14 21:53:00,
2013-04-14 17:54:00,50.9,32.4,-100.00,North,-999,-999.0,-999.0,48,-99.99,,,-99.99,57.0,HOBO +U30 +Weather +,2013-04-14 21:54:00,
2013-04-14 17:55:00,50.9,32.3,-100.00,North,-999,-999.0,-999.0,48,-99.99,,,-99.99,57.0,HOBO +U30 +Weather +,2013-04-14 21:55:00,
2013-04-14 17:56:00,50.9,32.4,-100.00,North,-999,-999.0,-999.0,48,-99.99,,,-99.99,56.0,HOBO +U30 +Weather +,2013-04-14 21:56:00,
2013-04-14 17:57:00,51.0,32.4,-100.00,North,-999,-999.0,-999.0,48,-99.99,,,-99.99,56.0,HOBO +U30 +Weather +,2013-04-14 21:57:00,
2013-04-14 17:58:00,51.0,32.6,-100.00,North,-999,-999.0,-999.0,49,-99.99,,,-99.99,56.0,HOBO +U30 +Weather +,2013-04-14 21:58:00,
2013-04-14 17:59:00,51.0,32.6,-100.00,North,-999,-999.0,-999.0,49,-99.99,,,-99.99,56.0,HOBO +U30 +Weather +,2013-04-14 21:59:00,
2013-04-14 18:00:00,51.0,32.4,-100.00,North,-999,-999.0,-999.0,48,-99.99,,,-99.99,56.0,HOBO +U30 +Weather +,2013-04-14 22:00:00,
2013-04-14 18:01:00,51.0,32.4,-100.00,North,-999,-999.0,-999.0,48,-99.99,,,-99.99,57.0,HOBO +U30 +Weather +,2013-04-14 22:01:00,
2013-04-14 18:02:00,51.0,32.4,-100.00,North,-999,-999.0,-999.0,48,-99.99,,,-99.99,58.0,HOBO +U30 +Weather +,2013-04-14 22:02:00,
2013-04-14 18:03:00,51.0,32.5,-100.00,North,-999,-999.0,-999.0,48,-99.99,,,-99.99,61.0,HOBO +U30 +Weather +,2013-04-14 22:03:00,
2013-04-14 18:04:00,51.0,32.4,-100.00,North,-999,-999.0,-999.0,48,-99.99,,,-99.99,61.0,HOBO +U30 +Weather +,2013-04-14 22:04:00,
2013-04-14 18:05:00,51.0,32.6,-100.00,North,-999,-999.0,-999.0,49,-99.99,,,-99.99,61.0,HOBO +U30 +Weather +,2013-04-14 22:05:00,
2013-04-14 18:06:00,51.0,32.6,-100.00,North,-999,-999.0,-999.0,49,-99.99,,,-99.99,58.0,HOBO +U30 +Weather +,2013-04-14 22:06:00,
2013-04-14 18:07:00,51.0,32.6,-100.00,North,-999,-999.0,-999.0,49,-99.99,,,-99.99,57.0,HOBO +U30 +Weather +,2013-04-14 22:07:00,
2013-04-14 18:08:00,50.9,32.4,-100.00,North,-999,-999.0,-999.0,48,-99.99,,,-99.99,54.0,HOBO +U30 +Weather +,2013-04-14 22:08:00,
2013-04-14 18:09:00,50.9,32.6,-100.00,North,-999,-999.0,-999.0,49,-99.99,,,-99.99,53.0,HOBO +U30 +Weather +,2013-04-14 22:09:00,
2013-04-14 18:10:00,50.8,32.8,-100.00,North,-999,-999.0,-999.0,49,-99.99,,,-99.99,51.0,HOBO +U30 +Weather +,2013-04-14 22:10:00,
2013-04-14 18:11:00,50.8,32.3,-100.00,North,-999,-999.0,-999.0,48,-99.99,,,-99.99,48.0,HOBO +U30 +Weather +,2013-04-14 22:11:00,
2013-04-14 18:12:00,50.8,32.3,-100.00,North,-999,-999.0,-999.0,48,-99.99,,,-99.99,44.0,HOBO +U30 +Weather +,2013-04-14 22:12:00,
2013-04-14 18:13:00,50.8,32.4,-100.00,North,-999,-999.0,-999.0,49,-99.99,,,-99.99,42.0,HOBO +U30 +Weather +,2013-04-14 22:13:00,
2013-04-14 18:14:00,50.8,32.3,-100.00,North,-999,-999.0,-999.0,49,-99.99,,,-99.99,38.0,HOBO +U30 +Weather +,2013-04-14 22:14:00,
2013-04-14 18:15:00,50.8,32.4,-100.00,North,-999,-999.0,-999.0,49,-99.99,,,-99.99,36.0,HOBO +U30 +Weather +,2013-04-14 22:15:00,
2013-04-14 18:16:00,50.7,32.4,-100.00,North,-999,-999.0,-999.0,49,-99.99,,,-99.99,33.0,HOBO +U30 +Weather +,2013-04-14 22:16:00,
2013-04-14 18:17:00,50.7,32.5,-100.00,North,-999,-999.0,-999.0,49,-99.99,,,-99.99,32.0,HOBO +U30 +Weather +,2013-04-14 22:17:00,
2013-04-14 18:18:00,50.6,32.8,-100.00,North,-999,-999.0,-999.0,50,-99.99,,,-99.99,29.0,HOBO +U30 +Weather +,2013-04-14 22:18:00,
2013-04-14 18:19:00,50.5,32.5,-100.00,North,-999,-999.0,-999.0,49,-99.99,,,-99.99,28.0,HOBO +U30 +Weather +,2013-04-14 22:19:00,
2013-04-14 18:20:00,50.5,32.3,-100.00,North,-999,-999.0,-999.0,49,-99.99,,,-99.99,27.0,HOBO +U30 +Weather +,2013-04-14 22:20:00,
2013-04-14 18:21:00,50.5,32.4,-100.00,North,-999,-999.0,-999.0,49,-99.99,,,-99.99,26.0,HOBO +U30 +Weather +,2013-04-14 22:21:00,
2013-04-14 18:22:00,50.4,32.4,-100.00,North,-999,-999.0,-999.0,49,-99.99,,,-99.99,26.0,HOBO +U30 +Weather +,2013-04-14 22:22:00,
2013-04-14 18:23:00,50.5,32.2,-100.00,North,-999,-999.0,-999.0,49,-99.99,,,-99.99,24.0,HOBO +U30 +Weather +,2013-04-14 22:23:00,
2013-04-14 18:24:00,50.4,32.3,-100.00,North,-999,-999.0,-999.0,49,-99.99,,,-99.99,23.0,HOBO +U30 +Weather +,2013-04-14 22:24:00,
2013-04-14 18:25:00,50.4,32.1,-100.00,North,-999,-999.0,-999.0,49,-99.99,,,-99.99,22.0,HOBO +U30 +Weather +,2013-04-14 22:25:00,
2013-04-14 18:26:00,50.4,32.1,-100.00,North,-999,-999.0,-999.0,49,-99.99,,,-99.99,21.0,HOBO +U30 +Weather +,2013-04-14 22:26:00,
2013-04-14 18:27:00,50.4,32.3,-100.00,North,-999,-999.0,-999.0,49,-99.99,,,-99.99,19.0,HOBO +U30 +Weather +,2013-04-14 22:27:00,
2013-04-14 18:28:00,50.4,32.0,-100.00,North,-999,-999.0,-999.0,49,-99.99,,,-99.99,18.0,HOBO +U30 +Weather +,2013-04-14 22:28:00,
2013-04-14 18:29:00,50.4,32.1,-100.00,North,-999,-999.0,-999.0,49,-99.99,,,-99.99,17.0,HOBO +U30 +Weather +,2013-04-14 22:29:00,
2013-04-14 18:30:00,50.4,32.1,-100.00,North,-999,-999.0,-999.0,49,-99.99,,,-99.99,16.0,HOBO +U30 +Weather +,2013-04-14 22:30:00,
2013-04-14 18:31:00,50.4,32.1,-100.00,North,-999,-999.0,-999.0,49,-99.99,,,-99.99,16.0,HOBO +U30 +Weather +,2013-04-14 22:31:00,
2013-04-14 18:32:00,50.3,32.1,-100.00,North,-999,-999.0,-999.0,49,-99.99,,,-99.99,16.0,HOBO +U30 +Weather +,2013-04-14 22:32:00,
2013-04-14 18:33:00,50.3,32.1,-100.00,North,-999,-999.0,-999.0,49,-99.99,,,-99.99,14.0,HOBO +U30 +Weather +,2013-04-14 22:33:00,
2013-04-14 18:34:00,50.3,31.9,-100.00,North,-999,-999.0,-999.0,49,-99.99,,,-99.99,14.0,HOBO +U30 +Weather +,2013-04-14 22:34:00,
2013-04-14 18:35:00,50.3,32.1,-100.00,North,-999,-999.0,-999.0,49,-99.99,,,-99.99,14.0,HOBO +U30 +Weather +,2013-04-14 22:35:00,
2013-04-14 18:36:00,50.3,32.0,-100.00,North,-999,-999.0,-999.0,49,-99.99,,,-99.99,13.0,HOBO +U30 +Weather +,2013-04-14 22:36:00,
2013-04-14 18:37:00,50.3,32.3,-100.00,North,-999,-999.0,-999.0,49,-99.99,,,-99.99,13.0,HOBO +U30 +Weather +,2013-04-14 22:37:00,
2013-04-14 18:38:00,50.2,32.2,-100.00,North,-999,-999.0,-999.0,49,-99.99,,,-99.99,12.0,HOBO +U30 +Weather +,2013-04-14 22:38:00,
2013-04-14 18:39:00,50.2,32.3,-100.00,North,-999,-999.0,-999.0,50,-99.99,,,-99.99,12.0,HOBO +U30 +Weather +,2013-04-14 22:39:00,
2013-04-14 18:40:00,50.1,32.3,-100.00,North,-999,-999.0,-999.0,50,-99.99,,,-99.99,12.0,HOBO +U30 +Weather +,2013-04-14 22:40:00,
2013-04-14 18:41:00,50.1,31.9,-100.00,North,-999,-999.0,-999.0,49,-99.99,,,-99.99,11.0,HOBO +U30 +Weather +,2013-04-14 22:41:00,
2013-04-14 18:42:00,50.1,32.1,-100.00,North,-999,-999.0,-999.0,49,-99.99,,,-99.99,11.0,HOBO +U30 +Weather +,2013-04-14 22:42:00,
2013-04-14 18:43:00,50.1,31.9,-100.00,North,-999,-999.0,-999.0,49,-99.99,,,-99.99,9.0,HOBO +U30 +Weather +,2013-04-14 22:43:00,
2013-04-14 18:44:00,50.1,32.1,-100.00,North,-999,-999.0,-999.0,49,-99.99,,,-99.99,9.0,HOBO +U30 +Weather +,2013-04-14 22:44:00,
2013-04-14 18:45:00,50.0,32.1,-100.00,North,-999,-999.0,-999.0,50,-99.99,,,-99.99,8.0,HOBO +U30 +Weather +,2013-04-14 22:45:00,
2013-04-14 18:46:00,50.0,31.8,-100.00,North,-999,-999.0,-999.0,49,-99.99,,,-99.99,8.0,HOBO +U30 +Weather +,2013-04-14 22:46:00,
2013-04-14 18:47:00,49.9,31.9,-100.00,North,-999,-999.0,-999.0,49,-99.99,,,-99.99,8.0,HOBO +U30 +Weather +,2013-04-14 22:47:00,
2013-04-14 18:48:00,49.9,31.9,-100.00,North,-999,-999.0,-999.0,49,-99.99,,,-99.99,7.0,HOBO +U30 +Weather +,2013-04-14 22:48:00,
2013-04-14 18:49:00,49.8,31.9,-100.00,North,-999,-999.0,-999.0,50,-99.99,,,-99.99,6.0,HOBO +U30 +Weather +,2013-04-14 22:49:00,
2013-04-14 18:50:00,49.7,31.8,-100.00,North,-999,-999.0,-999.0,50,-99.99,,,-99.99,6.0,HOBO +U30 +Weather +,2013-04-14 22:50:00,
2013-04-14 18:51:00,49.6,31.8,-100.00,North,-999,-999.0,-999.0,50,-99.99,,,-99.99,4.0,HOBO +U30 +Weather +,2013-04-14 22:51:00,
2013-04-14 18:52:00,49.6,31.7,-100.00,North,-999,-999.0,-999.0,49,-99.99,,,-99.99,4.0,HOBO +U30 +Weather +,2013-04-14 22:52:00,
2013-04-14 18:53:00,49.6,31.7,-100.00,North,-999,-999.0,-999.0,50,-99.99,,,-99.99,4.0,HOBO +U30 +Weather +,2013-04-14 22:53:00,
2013-04-14 18:54:00,49.5,31.7,-100.00,North,-999,-999.0,-999.0,50,-99.99,,,-99.99,4.0,HOBO +U30 +Weather +,2013-04-14 22:54:00,
2013-04-14 18:55:00,49.4,31.6,-100.00,North,-999,-999.0,-999.0,50,-99.99,,,-99.99,4.0,HOBO +U30 +Weather +,2013-04-14 22:55:00,
2013-04-14 18:56:00,49.4,31.4,-100.00,North,-999,-999.0,-999.0,49,-99.99,,,-99.99,3.0,HOBO +U30 +Weather +,2013-04-14 22:56:00,
2013-04-14 18:57:00,49.3,31.3,-100.00,North,-999,-999.0,-999.0,49,-99.99,,,-99.99,3.0,HOBO +U30 +Weather +,2013-04-14 22:57:00,
2013-04-14 18:58:00,49.2,31.4,-100.00,North,-999,-999.0,-999.0,50,-99.99,,,-99.99,2.0,HOBO +U30 +Weather +,2013-04-14 22:58:00,
2013-04-14 18:59:00,49.1,31.3,-100.00,North,-999,-999.0,-999.0,50,-99.99,,,-99.99,2.0,HOBO +U30 +Weather +,2013-04-14 22:59:00,
2013-04-14 19:00:00,49.0,31.4,-100.00,North,-999,-999.0,-999.0,50,-99.99,,,-99.99,1.0,HOBO +U30 +Weather +,2013-04-14 23:00:00,
2013-04-14 19:01:00,48.9,31.3,-100.00,North,-999,-999.0,-999.0,50,-99.99,,,-99.99,1.0,HOBO +U30 +Weather +,2013-04-14 23:01:00,
2013-04-14 19:02:00,48.8,31.4,-100.00,North,-999,-999.0,-999.0,50,-99.99,,,-99.99,1.0,HOBO +U30 +Weather +,2013-04-14 23:02:00,
2013-04-14 19:03:00,48.7,31.4,-100.00,North,-999,-999.0,-999.0,50,-99.99,,,-99.99,1.0,HOBO +U30 +Weather +,2013-04-14 23:03:00,
2013-04-14 19:04:00,48.7,31.2,-100.00,North,-999,-999.0,-999.0,50,-99.99,,,-99.99,1.0,HOBO +U30 +Weather +,2013-04-14 23:04:00,
2013-04-14 19:05:00,48.6,31.2,-100.00,North,-999,-999.0,-999.0,50,-99.99,,,-99.99,1.0,HOBO +U30 +Weather +,2013-04-14 23:05:00,
2013-04-14 19:06:00,48.6,31.2,-100.00,North,-999,-999.0,-999.0,50,-99.99,,,-99.99,1.0,HOBO +U30 +Weather +,2013-04-14 23:06:00,
2013-04-14 19:07:00,48.5,31.0,-100.00,North,-999,-999.0,-999.0,50,-99.99,,,-99.99,1.0,HOBO +U30 +Weather +,2013-04-14 23:07:00,
2013-04-14 19:08:00,48.5,31.2,-100.00,North,-999,-999.0,-999.0,50,-99.99,,,-99.99,1.0,HOBO +U30 +Weather +,2013-04-14 23:08:00,
2013-04-14 19:09:00,48.5,31.0,-100.00,North,-999,-999.0,-999.0,50,-99.99,,,-99.99,1.0,HOBO +U30 +Weather +,2013-04-14 23:09:00,
2013-04-14 19:10:00,48.5,31.0,-100.00,North,-999,-999.0,-999.0,50,-99.99,,,-99.99,1.0,HOBO +U30 +Weather +,2013-04-14 23:10:00,
2013-04-14 19:11:00,48.4,31.0,-100.00,North,-999,-999.0,-999.0,50,-99.99,,,-99.99,1.0,HOBO +U30 +Weather +,2013-04-14 23:11:00,
2013-04-14 19:12:00,48.3,31.0,-100.00,North,-999,-999.0,-999.0,51,-99.99,,,-99.99,1.0,HOBO +U30 +Weather +,2013-04-14 23:12:00,
2013-04-14 19:13:00,48.3,31.0,-100.00,North,-999,-999.0,-999.0,51,-99.99,,,-99.99,1.0,HOBO +U30 +Weather +,2013-04-14 23:13:00,
2013-04-14 19:14:00,48.2,31.1,-100.00,North,-999,-999.0,-999.0,51,-99.99,,,-99.99,1.0,HOBO +U30 +Weather +,2013-04-14 23:14:00,
2013-04-14 19:15:00,48.1,31.1,-100.00,North,-999,-999.0,-999.0,51,-99.99,,,-99.99,1.0,HOBO +U30 +Weather +,2013-04-14 23:15:00,
2013-04-14 19:16:00,48.1,31.0,-100.00,North,-999,-999.0,-999.0,51,-99.99,,,-99.99,1.0,HOBO +U30 +Weather +,2013-04-14 23:16:00,
2013-04-14 19:17:00,48.1,31.0,-100.00,North,-999,-999.0,-999.0,51,-99.99,,,-99.99,1.0,HOBO +U30 +Weather +,2013-04-14 23:17:00,
2013-04-14 19:18:00,48.0,31.0,-100.00,North,-999,-999.0,-999.0,51,-99.99,,,-99.99,1.0,HOBO +U30 +Weather +,2013-04-14 23:18:00,
2013-04-14 19:19:00,47.9,31.2,-100.00,North,-999,-999.0,-999.0,52,-99.99,,,-99.99,1.0,HOBO +U30 +Weather +,2013-04-14 23:19:00,
2013-04-14 19:20:00,47.8,31.0,-100.00,North,-999,-999.0,-999.0,52,-99.99,,,-99.99,1.0,HOBO +U30 +Weather +,2013-04-14 23:20:00,
2013-04-14 19:21:00,47.7,30.9,-100.00,North,-999,-999.0,-999.0,51,-99.99,,,-99.99,1.0,HOBO +U30 +Weather +,2013-04-14 23:21:00,
2013-04-14 19:22:00,47.7,30.9,-100.00,North,-999,-999.0,-999.0,51,-99.99,,,-99.99,1.0,HOBO +U30 +Weather +,2013-04-14 23:22:00,
2013-04-14 19:23:00,47.8,30.9,-100.00,North,-999,-999.0,-999.0,51,-99.99,,,-99.99,1.0,HOBO +U30 +Weather +,2013-04-14 23:23:00,
2013-04-14 19:24:00,47.7,31.0,-100.00,North,-999,-999.0,-999.0,52,-99.99,,,-99.99,1.0,HOBO +U30 +Weather +,2013-04-14 23:24:00,
2013-04-14 19:25:00,47.6,30.9,-100.00,North,-999,-999.0,-999.0,52,-99.99,,,-99.99,1.0,HOBO +U30 +Weather +,2013-04-14 23:25:00,
2013-04-14 19:26:00,47.5,30.9,-100.00,North,-999,-999.0,-999.0,52,-99.99,,,-99.99,1.0,HOBO +U30 +Weather +,2013-04-14 23:26:00,
2013-04-14 19:27:00,47.5,30.9,-100.00,North,-999,-999.0,-999.0,52,-99.99,,,-99.99,1.0,HOBO +U30 +Weather +,2013-04-14 23:27:00,
2013-04-14 19:28:00,47.5,30.8,-100.00,North,-999,-999.0,-999.0,52,-99.99,,,-99.99,1.0,HOBO +U30 +Weather +,2013-04-14 23:28:00,
2013-04-14 19:29:00,47.5,30.8,-100.00,North,-999,-999.0,-999.0,52,-99.99,,,-99.99,1.0,HOBO +U30 +Weather +,2013-04-14 23:29:00,
2013-04-14 19:30:00,47.6,30.9,-100.00,North,-999,-999.0,-999.0,52,-99.99,,,-99.99,1.0,HOBO +U30 +Weather +,2013-04-14 23:30:00,
2013-04-14 19:31:00,47.5,30.9,-100.00,North,-999,-999.0,-999.0,52,-99.99,,,-99.99,1.0,HOBO +U30 +Weather +,2013-04-14 23:31:00,
2013-04-14 19:32:00,47.3,30.8,-100.00,North,-999,-999.0,-999.0,52,-99.99,,,-99.99,1.0,HOBO +U30 +Weather +,2013-04-14 23:32:00,
2013-04-14 19:33:00,47.3,30.8,-100.00,North,-999,-999.0,-999.0,52,-99.99,,,-99.99,1.0,HOBO +U30 +Weather +,2013-04-14 23:33:00,
2013-04-14 19:34:00,47.2,30.7,-100.00,North,-999,-999.0,-999.0,52,-99.99,,,-99.99,1.0,HOBO +U30 +Weather +,2013-04-14 23:34:00,
2013-04-14 19:35:00,47.2,30.7,-100.00,North,-999,-999.0,-999.0,52,-99.99,,,-99.99,1.0,HOBO +U30 +Weather +,2013-04-14 23:35:00,
2013-04-14 19:36:00,47.2,30.7,-100.00,North,-999,-999.0,-999.0,52,-99.99,,,-99.99,1.0,HOBO +U30 +Weather +,2013-04-14 23:36:00,
2013-04-14 19:37:00,47.1,30.6,-100.00,North,-999,-999.0,-999.0,52,-99.99,,,-99.99,1.0,HOBO +U30 +Weather +,2013-04-14 23:37:00,
2013-04-14 19:38:00,47.1,30.6,-100.00,North,-999,-999.0,-999.0,52,-99.99,,,-99.99,1.0,HOBO +U30 +Weather +,2013-04-14 23:38:00,
2013-04-14 19:39:00,47.0,30.7,-100.00,North,-999,-999.0,-999.0,52,-99.99,,,-99.99,1.0,HOBO +U30 +Weather +,2013-04-14 23:39:00,
2013-04-14 19:40:00,46.9,30.7,-100.00,North,-999,-999.0,-999.0,52,-99.99,,,-99.99,1.0,HOBO +U30 +Weather +,2013-04-14 23:40:00,
2013-04-14 19:41:00,46.8,30.7,-100.00,North,-999,-999.0,-999.0,53,-99.99,,,-99.99,1.0,HOBO +U30 +Weather +,2013-04-14 23:41:00,
2013-04-14 19:42:00,46.7,30.6,-100.00,North,-999,-999.0,-999.0,53,-99.99,,,-99.99,1.0,HOBO +U30 +Weather +,2013-04-14 23:42:00,
2013-04-14 19:43:00,46.7,30.6,-100.00,North,-999,-999.0,-999.0,53,-99.99,,,-99.99,1.0,HOBO +U30 +Weather +,2013-04-14 23:43:00,
2013-04-14 19:44:00,46.7,30.5,-100.00,North,-999,-999.0,-999.0,53,-99.99,,,-99.99,1.0,HOBO +U30 +Weather +,2013-04-14 23:44:00,
2013-04-14 19:45:00,46.8,30.5,-100.00,North,-999,-999.0,-999.0,52,-99.99,,,-99.99,1.0,HOBO +U30 +Weather +,2013-04-14 23:45:00,
2013-04-14 19:46:00,46.8,30.5,-100.00,North,-999,-999.0,-999.0,52,-99.99,,,-99.99,1.0,HOBO +U30 +Weather +,2013-04-14 23:46:00,
2013-04-14 19:47:00,46.7,30.5,-100.00,North,-999,-999.0,-999.0,53,-99.99,,,-99.99,1.0,HOBO +U30 +Weather +,2013-04-14 23:47:00,
2013-04-14 19:48:00,46.6,30.6,-100.00,North,-999,-999.0,-999.0,53,-99.99,,,-99.99,1.0,HOBO +U30 +Weather +,2013-04-14 23:48:00,
2013-04-14 19:49:00,46.5,30.7,-100.00,North,-999,-999.0,-999.0,53,-99.99,,,-99.99,1.0,HOBO +U30 +Weather +,2013-04-14 23:49:00,
2013-04-14 19:50:00,46.4,30.5,-100.00,North,-999,-999.0,-999.0,53,-99.99,,,-99.99,1.0,HOBO +U30 +Weather +,2013-04-14 23:50:00,
2013-04-14 19:51:00,46.3,30.4,-100.00,North,-999,-999.0,-999.0,53,-99.99,,,-99.99,1.0,HOBO +U30 +Weather +,2013-04-14 23:51:00,
2013-04-14 19:52:00,46.4,30.4,-100.00,North,-999,-999.0,-999.0,53,-99.99,,,-99.99,1.0,HOBO +U30 +Weather +,2013-04-14 23:52:00,
2013-04-14 19:53:00,46.5,30.4,-100.00,North,-999,-999.0,-999.0,53,-99.99,,,-99.99,1.0,HOBO +U30 +Weather +,2013-04-14 23:53:00,
2013-04-14 19:54:00,46.4,30.5,-100.00,North,-999,-999.0,-999.0,53,-99.99,,,-99.99,1.0,HOBO +U30 +Weather +,2013-04-14 23:54:00,
2013-04-14 19:55:00,46.3,30.5,-100.00,North,-999,-999.0,-999.0,53,-99.99,,,-99.99,1.0,HOBO +U30 +Weather +,2013-04-14 23:55:00,
2013-04-14 19:56:00,46.3,30.5,-100.00,North,-999,-999.0,-999.0,53,-99.99,,,-99.99,1.0,HOBO +U30 +Weather +,2013-04-14 23:56:00,
2013-04-14 19:57:00,46.3,30.4,-100.00,North,-999,-999.0,-999.0,53,-99.99,,,-99.99,1.0,HOBO +U30 +Weather +,2013-04-14 23:57:00,
2013-04-14 19:58:00,46.3,30.4,-100.00,North,-999,-999.0,-999.0,53,-99.99,,,-99.99,1.0,HOBO +U30 +Weather +,2013-04-14 23:58:00,
2013-04-14 19:59:00,46.3,30.4,-100.00,North,-999,-999.0,-999.0,53,-99.99,,,-99.99,1.0,HOBO +U30 +Weather +,2013-04-14 23:59:00,
2013-04-14 20:00:00,46.3,30.4,-100.00,North,-999,-999.0,-999.0,53,-99.99,,,-99.99,1.0,HOBO +U30 +Weather +,2013-04-15 00:00:00,
2013-04-14 20:01:00,46.3,30.4,-100.00,North,-999,-999.0,-999.0,53,-99.99,,,-99.99,1.0,HOBO +U30 +Weather +,2013-04-15 00:01:00,
2013-04-14 20:02:00,46.3,30.5,-100.00,North,-999,-999.0,-999.0,53,-99.99,,,-99.99,1.0,HOBO +U30 +Weather +,2013-04-15 00:02:00,
2013-04-14 20:03:00,46.3,30.6,-100.00,North,-999,-999.0,-999.0,54,-99.99,,,-99.99,1.0,HOBO +U30 +Weather +,2013-04-15 00:03:00,
2013-04-14 20:04:00,46.2,30.6,-100.00,North,-999,-999.0,-999.0,54,-99.99,,,-99.99,1.0,HOBO +U30 +Weather +,2013-04-15 00:04:00,
2013-04-14 20:05:00,46.1,30.5,-100.00,North,-999,-999.0,-999.0,54,-99.99,,,-99.99,1.0,HOBO +U30 +Weather +,2013-04-15 00:05:00,
2013-04-14 20:06:00,46.1,30.4,-100.00,North,-999,-999.0,-999.0,54,-99.99,,,-99.99,1.0,HOBO +U30 +Weather +,2013-04-15 00:06:00,
2013-04-14 20:07:00,46.1,30.5,-100.00,North,-999,-999.0,-999.0,54,-99.99,,,-99.99,1.0,HOBO +U30 +Weather +,2013-04-15 00:07:00,
2013-04-14 20:08:00,46.1,30.5,-100.00,North,-999,-999.0,-999.0,54,-99.99,,,-99.99,1.0,HOBO +U30 +Weather +,2013-04-15 00:08:00,
2013-04-14 20:09:00,46.0,30.4,-100.00,North,-999,-999.0,-999.0,54,-99.99,,,-99.99,1.0,HOBO +U30 +Weather +,2013-04-15 00:09:00,
2013-04-14 20:10:00,45.9,30.3,-100.00,North,-999,-999.0,-999.0,54,-99.99,,,-99.99,1.0,HOBO +U30 +Weather +,2013-04-15 00:10:00,
2013-04-14 20:11:00,45.9,30.3,-100.00,North,-999,-999.0,-999.0,54,-99.99,,,-99.99,1.0,HOBO +U30 +Weather +,2013-04-15 00:11:00,
2013-04-14 20:12:00,45.9,30.3,-100.00,North,-999,-999.0,-999.0,54,-99.99,,,-99.99,1.0,HOBO +U30 +Weather +,2013-04-15 00:12:00,
2013-04-14 20:13:00,45.9,30.4,-100.00,North,-999,-999.0,-999.0,54,-99.99,,,-99.99,1.0,HOBO +U30 +Weather +,2013-04-15 00:13:00,
2013-04-14 20:14:00,45.8,30.4,-100.00,North,-999,-999.0,-999.0,54,-99.99,,,-99.99,1.0,HOBO +U30 +Weather +,2013-04-15 00:14:00,
2013-04-14 20:15:00,45.8,30.3,-100.00,North,-999,-999.0,-999.0,54,-99.99,,,-99.99,1.0,HOBO +U30 +Weather +,2013-04-15 00:15:00,
2013-04-14 20:16:00,45.8,30.3,-100.00,North,-999,-999.0,-999.0,54,-99.99,,,-99.99,1.0,HOBO +U30 +Weather +,2013-04-15 00:16:00,
2013-04-14 20:17:00,45.7,30.3,-100.00,North,-999,-999.0,-999.0,54,-99.99,,,-99.99,1.0,HOBO +U30 +Weather +,2013-04-15 00:17:00,
2013-04-14 20:18:00,45.7,30.4,-100.00,North,-999,-999.0,-999.0,54,-99.99,,,-99.99,1.0,HOBO +U30 +Weather +,2013-04-15 00:18:00,
2013-04-14 20:19:00,45.5,30.3,-100.00,North,-999,-999.0,-999.0,55,-99.99,,,-99.99,1.0,HOBO +U30 +Weather +,2013-04-15 00:19:00,
2013-04-14 20:20:00,45.4,30.3,-100.00,North,-999,-999.0,-999.0,55,-99.99,,,-99.99,1.0,HOBO +U30 +Weather +,2013-04-15 00:20:00,
2013-04-14 20:21:00,45.4,30.3,-100.00,North,-999,-999.0,-999.0,55,-99.99,,,-99.99,1.0,HOBO +U30 +Weather +,2013-04-15 00:21:00,
2013-04-14 20:22:00,45.4,30.3,-100.00,North,-999,-999.0,-999.0,55,-99.99,,,-99.99,1.0,HOBO +U30 +Weather +,2013-04-15 00:22:00,
2013-04-14 20:23:00,45.3,30.4,-100.00,North,-999,-999.0,-999.0,55,-99.99,,,-99.99,1.0,HOBO +U30 +Weather +,2013-04-15 00:23:00,
2013-04-14 20:24:00,45.2,30.3,-100.00,North,-999,-999.0,-999.0,55,-99.99,,,-99.99,1.0,HOBO +U30 +Weather +,2013-04-15 00:24:00,
2013-04-14 20:25:00,45.2,30.4,-100.00,North,-999,-999.0,-999.0,55,-99.99,,,-99.99,1.0,HOBO +U30 +Weather +,2013-04-15 00:25:00,
2013-04-14 20:26:00,45.3,30.3,-100.00,North,-999,-999.0,-999.0,55,-99.99,,,-99.99,1.0,HOBO +U30 +Weather +,2013-04-15 00:26:00,
2013-04-14 20:27:00,45.4,30.3,-100.00,North,-999,-999.0,-999.0,55,-99.99,,,-99.99,1.0,HOBO +U30 +Weather +,2013-04-15 00:27:00,
2013-04-14 20:28:00,45.3,30.3,-100.00,North,-999,-999.0,-999.0,55,-99.99,,,-99.99,1.0,HOBO +U30 +Weather +,2013-04-15 00:28:00,
2013-04-14 20:29:00,45.2,30.3,-100.00,North,-999,-999.0,-999.0,55,-99.99,,,-99.99,1.0,HOBO +U30 +Weather +,2013-04-15 00:29:00,
2013-04-14 20:30:00,45.1,30.3,-100.00,North,-999,-999.0,-999.0,56,-99.99,,,-99.99,1.0,HOBO +U30 +Weather +,2013-04-15 00:30:00,
2013-04-14 20:31:00,45.0,30.3,-100.00,North,-999,-999.0,-999.0,56,-99.99,,,-99.99,1.0,HOBO +U30 +Weather +,2013-04-15 00:31:00,
2013-04-14 20:32:00,45.0,30.2,-100.00,North,-999,-999.0,-999.0,55,-99.99,,,-99.99,1.0,HOBO +U30 +Weather +,2013-04-15 00:32:00,
2013-04-14 20:33:00,45.0,30.2,-100.00,North,-999,-999.0,-999.0,55,-99.99,,,-99.99,1.0,HOBO +U30 +Weather +,2013-04-15 00:33:00,
2013-04-14 20:34:00,44.9,30.2,-100.00,North,-999,-999.0,-999.0,55,-99.99,,,-99.99,1.0,HOBO +U30 +Weather +,2013-04-15 00:34:00,
2013-04-14 20:35:00,44.9,30.1,-100.00,North,-999,-999.0,-999.0,55,-99.99,,,-99.99,1.0,HOBO +U30 +Weather +,2013-04-15 00:35:00,
2013-04-14 20:36:00,44.9,30.2,-100.00,North,-999,-999.0,-999.0,56,-99.99,,,-99.99,1.0,HOBO +U30 +Weather +,2013-04-15 00:36:00,
2013-04-14 20:37:00,44.9,30.2,-100.00,North,-999,-999.0,-999.0,55,-99.99,,,-99.99,1.0,HOBO +U30 +Weather +,2013-04-15 00:37:00,
2013-04-14 20:38:00,45.0,30.3,-100.00,North,-999,-999.0,-999.0,56,-99.99,,,-99.99,1.0,HOBO +U30 +Weather +,2013-04-15 00:38:00,
2013-04-14 20:39:00,44.9,30.1,-100.00,North,-999,-999.0,-999.0,55,-99.99,,,-99.99,1.0,HOBO +U30 +Weather +,2013-04-15 00:39:00,
2013-04-14 20:40:00,45.0,30.2,-100.00,North,-999,-999.0,-999.0,55,-99.99,,,-99.99,1.0,HOBO +U30 +Weather +,2013-04-15 00:40:00,
2013-04-14 20:41:00,44.9,30.3,-100.00,North,-999,-999.0,-999.0,56,-99.99,,,-99.99,1.0,HOBO +U30 +Weather +,2013-04-15 00:41:00,
2013-04-14 20:42:00,44.9,30.3,-100.00,North,-999,-999.0,-999.0,56,-99.99,,,-99.99,1.0,HOBO +U30 +Weather +,2013-04-15 00:42:00,
2013-04-14 20:43:00,44.8,30.2,-100.00,North,-999,-999.0,-999.0,56,-99.99,,,-99.99,1.0,HOBO +U30 +Weather +,2013-04-15 00:43:00,
2013-04-14 20:44:00,44.7,30.2,-100.00,North,-999,-999.0,-999.0,56,-99.99,,,-99.99,1.0,HOBO +U30 +Weather +,2013-04-15 00:44:00,
2013-04-14 20:45:00,44.7,30.1,-100.00,North,-999,-999.0,-999.0,56,-99.99,,,-99.99,1.0,HOBO +U30 +Weather +,2013-04-15 00:45:00,
2013-04-14 20:46:00,44.6,30.2,-100.00,North,-999,-999.0,-999.0,56,-99.99,,,-99.99,1.0,HOBO +U30 +Weather +,2013-04-15 00:46:00,
2013-04-14 20:47:00,44.6,30.1,-100.00,North,-999,-999.0,-999.0,56,-99.99,,,-99.99,1.0,HOBO +U30 +Weather +,2013-04-15 00:47:00,
2013-04-14 20:48:00,44.6,30.2,-100.00,North,-999,-999.0,-999.0,56,-99.99,,,-99.99,1.0,HOBO +U30 +Weather +,2013-04-15 00:48:00,
2013-04-14 20:49:00,44.7,30.1,-100.00,North,-999,-999.0,-999.0,56,-99.99,,,-99.99,1.0,HOBO +U30 +Weather +,2013-04-15 00:49:00,
2013-04-14 20:50:00,44.8,30.3,-100.00,North,-999,-999.0,-999.0,56,-99.99,,,-99.99,1.0,HOBO +U30 +Weather +,2013-04-15 00:50:00,
2013-04-14 20:51:00,44.8,30.1,-100.00,North,-999,-999.0,-999.0,56,-99.99,,,-99.99,1.0,HOBO +U30 +Weather +,2013-04-15 00:51:00,
2013-04-14 20:52:00,44.7,30.1,-100.00,North,-999,-999.0,-999.0,56,-99.99,,,-99.99,1.0,HOBO +U30 +Weather +,2013-04-15 00:52:00,
2013-04-14 20:53:00,44.6,30.1,-100.00,North,-999,-999.0,-999.0,56,-99.99,,,-99.99,1.0,HOBO +U30 +Weather +,2013-04-15 00:53:00,
2013-04-14 20:54:00,44.5,30.1,-100.00,North,-999,-999.0,-999.0,56,-99.99,,,-99.99,1.0,HOBO +U30 +Weather +,2013-04-15 00:54:00,
2013-04-14 20:55:00,44.3,30.1,-100.00,North,-999,-999.0,-999.0,57,-99.99,,,-99.99,1.0,HOBO +U30 +Weather +,2013-04-15 00:55:00,
2013-04-14 20:56:00,44.2,30.1,-100.00,North,-999,-999.0,-999.0,57,-99.99,,,-99.99,1.0,HOBO +U30 +Weather +,2013-04-15 00:56:00,
2013-04-14 20:57:00,44.1,30.1,-100.00,North,-999,-999.0,-999.0,57,-99.99,,,-99.99,1.0,HOBO +U30 +Weather +,2013-04-15 00:57:00,
2013-04-14 20:58:00,44.0,30.0,-100.00,North,-999,-999.0,-999.0,57,-99.99,,,-99.99,1.0,HOBO +U30 +Weather +,2013-04-15 00:58:00,
2013-04-14 20:59:00,44.0,30.0,-100.00,North,-999,-999.0,-999.0,57,-99.99,,,-99.99,1.0,HOBO +U30 +Weather +,2013-04-15 00:59:00,
2013-04-14 21:00:00,43.9,30.2,-100.00,North,-999,-999.0,-999.0,58,-99.99,,,-99.99,1.0,HOBO +U30 +Weather +,2013-04-15 01:00:00,
2013-04-14 21:01:00,43.9,30.1,-100.00,North,-999,-999.0,-999.0,58,-99.99,,,-99.99,1.0,HOBO +U30 +Weather +,2013-04-15 01:01:00,
2013-04-14 21:02:00,43.8,30.1,-100.00,North,-999,-999.0,-999.0,58,-99.99,,,-99.99,1.0,HOBO +U30 +Weather +,2013-04-15 01:02:00,
2013-04-14 21:03:00,43.8,30.1,-100.00,North,-999,-999.0,-999.0,58,-99.99,,,-99.99,1.0,HOBO +U30 +Weather +,2013-04-15 01:03:00,
2013-04-14 21:04:00,43.7,30.2,-100.00,North,-999,-999.0,-999.0,58,-99.99,,,-99.99,1.0,HOBO +U30 +Weather +,2013-04-15 01:04:00,
2013-04-14 21:05:00,43.5,30.1,-100.00,North,-999,-999.0,-999.0,58,-99.99,,,-99.99,1.0,HOBO +U30 +Weather +,2013-04-15 01:05:00,
2013-04-14 21:06:00,43.5,30.1,-100.00,North,-999,-999.0,-999.0,58,-99.99,,,-99.99,1.0,HOBO +U30 +Weather +,2013-04-15 01:06:00,
2013-04-14 21:07:00,43.4,30.0,-100.00,North,-999,-999.0,-999.0,58,-99.99,,,-99.99,1.0,HOBO +U30 +Weather +,2013-04-15 01:07:00,
2013-04-14 21:08:00,43.2,29.9,-100.00,North,-999,-999.0,-999.0,59,-99.99,,,-99.99,1.0,HOBO +U30 +Weather +,2013-04-15 01:08:00,
2013-04-14 21:09:00,43.0,29.8,-100.00,North,-999,-999.0,-999.0,59,-99.99,,,-99.99,1.0,HOBO +U30 +Weather +,2013-04-15 01:09:00,
2013-04-14 21:10:00,42.9,29.7,-100.00,North,-999,-999.0,-999.0,59,-99.99,,,-99.99,1.0,HOBO +U30 +Weather +,2013-04-15 01:10:00,
2013-04-14 21:11:00,42.9,29.8,-100.00,North,-999,-999.0,-999.0,59,-99.99,,,-99.99,1.0,HOBO +U30 +Weather +,2013-04-15 01:11:00,
2013-04-14 21:12:00,43.0,29.8,-100.00,North,-999,-999.0,-999.0,59,-99.99,,,-99.99,1.0,HOBO +U30 +Weather +,2013-04-15 01:12:00,
2013-04-14 21:13:00,42.9,29.9,-100.00,North,-999,-999.0,-999.0,59,-99.99,,,-99.99,1.0,HOBO +U30 +Weather +,2013-04-15 01:13:00,
2013-04-14 21:14:00,42.9,29.9,-100.00,North,-999,-999.0,-999.0,59,-99.99,,,-99.99,1.0,HOBO +U30 +Weather +,2013-04-15 01:14:00,
2013-04-14 21:15:00,42.7,29.8,-100.00,North,-999,-999.0,-999.0,59,-99.99,,,-99.99,1.0,HOBO +U30 +Weather +,2013-04-15 01:15:00,
2013-04-14 21:16:00,42.5,29.8,-100.00,North,-999,-999.0,-999.0,60,-99.99,,,-99.99,1.0,HOBO +U30 +Weather +,2013-04-15 01:16:00,
2013-04-14 21:17:00,42.3,29.7,-100.00,North,-999,-999.0,-999.0,60,-99.99,,,-99.99,1.0,HOBO +U30 +Weather +,2013-04-15 01:17:00,
2013-04-14 21:18:00,42.1,29.6,-100.00,North,-999,-999.0,-999.0,61,-99.99,,,-99.99,1.0,HOBO +U30 +Weather +,2013-04-15 01:18:00,
2013-04-14 21:19:00,41.8,29.6,-100.00,North,-999,-999.0,-999.0,61,-99.99,,,-99.99,1.0,HOBO +U30 +Weather +,2013-04-15 01:19:00,
2013-04-14 21:20:00,41.6,29.5,-100.00,North,-999,-999.0,-999.0,61,-99.99,,,-99.99,1.0,HOBO +U30 +Weather +,2013-04-15 01:20:00,
2013-04-14 21:21:00,41.3,29.4,-100.00,North,-999,-999.0,-999.0,62,-99.99,,,-99.99,1.0,HOBO +U30 +Weather +,2013-04-15 01:21:00,
2013-04-14 21:22:00,41.1,29.4,-100.00,North,-999,-999.0,-999.0,62,-99.99,,,-99.99,1.0,HOBO +U30 +Weather +,2013-04-15 01:22:00,
2013-04-14 21:23:00,40.8,29.4,-100.00,North,-999,-999.0,-999.0,63,-99.99,,,-99.99,1.0,HOBO +U30 +Weather +,2013-04-15 01:23:00,
2013-04-14 21:24:00,40.6,29.3,-100.00,North,-999,-999.0,-999.0,63,-99.99,,,-99.99,1.0,HOBO +U30 +Weather +,2013-04-15 01:24:00,
2013-04-14 21:25:00,40.4,29.6,-100.00,North,-999,-999.0,-999.0,64,-99.99,,,-99.99,1.0,HOBO +U30 +Weather +,2013-04-15 01:25:00,
2013-04-14 21:26:00,40.4,29.4,-100.00,North,-999,-999.0,-999.0,64,-99.99,,,-99.99,1.0,HOBO +U30 +Weather +,2013-04-15 01:26:00,
2013-04-14 21:27:00,40.3,29.4,-100.00,North,-999,-999.0,-999.0,64,-99.99,,,-99.99,1.0,HOBO +U30 +Weather +,2013-04-15 01:27:00,
2013-04-14 21:28:00,40.1,29.6,-100.00,North,-999,-999.0,-999.0,65,-99.99,,,-99.99,1.0,HOBO +U30 +Weather +,2013-04-15 01:28:00,
2013-04-14 21:29:00,39.9,29.5,-100.00,North,-999,-999.0,-999.0,65,-99.99,,,-99.99,1.0,HOBO +U30 +Weather +,2013-04-15 01:29:00,
2013-04-14 21:30:00,39.7,29.5,-100.00,North,-999,-999.0,-999.0,66,-99.99,,,-99.99,1.0,HOBO +U30 +Weather +,2013-04-15 01:30:00,
2013-04-14 21:31:00,39.8,29.6,-100.00,North,-999,-999.0,-999.0,66,-99.99,,,-99.99,1.0,HOBO +U30 +Weather +,2013-04-15 01:31:00,
2013-04-14 21:32:00,39.8,29.4,-100.00,North,-999,-999.0,-999.0,66,-99.99,,,-99.99,1.0,HOBO +U30 +Weather +,2013-04-15 01:32:00,
2013-04-14 21:33:00,39.8,29.4,-100.00,North,-999,-999.0,-999.0,66,-99.99,,,-99.99,1.0,HOBO +U30 +Weather +,2013-04-15 01:33:00,
2013-04-14 21:34:00,39.7,29.5,-100.00,North,-999,-999.0,-999.0,66,-99.99,,,-99.99,1.0,HOBO +U30 +Weather +,2013-04-15 01:34:00,
2013-04-14 21:35:00,39.5,29.5,-100.00,North,-999,-999.0,-999.0,67,-99.99,,,-99.99,1.0,HOBO +U30 +Weather +,2013-04-15 01:35:00,
2013-04-14 21:36:00,39.5,29.4,-100.00,North,-999,-999.0,-999.0,66,-99.99,,,-99.99,1.0,HOBO +U30 +Weather +,2013-04-15 01:36:00,
2013-04-14 21:37:00,39.4,29.4,-100.00,North,-999,-999.0,-999.0,67,-99.99,,,-99.99,1.0,HOBO +U30 +Weather +,2013-04-15 01:37:00,
2013-04-14 21:38:00,39.4,29.4,-100.00,North,-999,-999.0,-999.0,67,-99.99,,,-99.99,1.0,HOBO +U30 +Weather +,2013-04-15 01:38:00,
2013-04-14 21:39:00,39.4,29.4,-100.00,North,-999,-999.0,-999.0,67,-99.99,,,-99.99,1.0,HOBO +U30 +Weather +,2013-04-15 01:39:00,
2013-04-14 21:40:00,39.3,29.4,-100.00,North,-999,-999.0,-999.0,67,-99.99,,,-99.99,1.0,HOBO +U30 +Weather +,2013-04-15 01:40:00,
2013-04-14 21:41:00,39.2,29.4,-100.00,North,-999,-999.0,-999.0,67,-99.99,,,-99.99,1.0,HOBO +U30 +Weather +,2013-04-15 01:41:00,
2013-04-14 21:42:00,39.1,29.4,-100.00,North,-999,-999.0,-999.0,68,-99.99,,,-99.99,1.0,HOBO +U30 +Weather +,2013-04-15 01:42:00,
2013-04-14 21:43:00,39.1,29.4,-100.00,North,-999,-999.0,-999.0,68,-99.99,,,-99.99,1.0,HOBO +U30 +Weather +,2013-04-15 01:43:00,
2013-04-14 21:44:00,39.1,29.4,-100.00,North,-999,-999.0,-999.0,68,-99.99,,,-99.99,1.0,HOBO +U30 +Weather +,2013-04-15 01:44:00,
2013-04-14 21:45:00,39.1,29.5,-100.00,North,-999,-999.0,-999.0,68,-99.99,,,-99.99,1.0,HOBO +U30 +Weather +,2013-04-15 01:45:00,
2013-04-14 21:46:00,39.0,29.4,-100.00,North,-999,-999.0,-999.0,68,-99.99,,,-99.99,1.0,HOBO +U30 +Weather +,2013-04-15 01:46:00,
2013-04-14 21:47:00,38.9,29.4,-100.00,North,-999,-999.0,-999.0,68,-99.99,,,-99.99,1.0,HOBO +U30 +Weather +,2013-04-15 01:47:00,
2013-04-14 21:48:00,38.8,29.3,-100.00,North,-999,-999.0,-999.0,68,-99.99,,,-99.99,1.0,HOBO +U30 +Weather +,2013-04-15 01:48:00,
2013-04-14 21:49:00,38.8,29.5,-100.00,North,-999,-999.0,-999.0,68,-99.99,,,-99.99,1.0,HOBO +U30 +Weather +,2013-04-15 01:49:00,
2013-04-14 21:50:00,38.8,29.4,-100.00,North,-999,-999.0,-999.0,68,-99.99,,,-99.99,1.0,HOBO +U30 +Weather +,2013-04-15 01:50:00,
2013-04-14 21:51:00,38.8,29.4,-100.00,North,-999,-999.0,-999.0,68,-99.99,,,-99.99,1.0,HOBO +U30 +Weather +,2013-04-15 01:51:00,
2013-04-14 21:52:00,38.8,29.5,-100.00,North,-999,-999.0,-999.0,69,-99.99,,,-99.99,1.0,HOBO +U30 +Weather +,2013-04-15 01:52:00,
2013-04-14 21:53:00,38.7,29.4,-100.00,North,-999,-999.0,-999.0,69,-99.99,,,-99.99,1.0,HOBO +U30 +Weather +,2013-04-15 01:53:00,
2013-04-14 21:54:00,38.6,29.4,-100.00,North,-999,-999.0,-999.0,69,-99.99,,,-99.99,1.0,HOBO +U30 +Weather +,2013-04-15 01:54:00,
2013-04-14 21:55:00,38.5,29.4,-100.00,North,-999,-999.0,-999.0,69,-99.99,,,-99.99,1.0,HOBO +U30 +Weather +,2013-04-15 01:55:00,
2013-04-14 21:56:00,38.5,29.4,-100.00,North,-999,-999.0,-999.0,69,-99.99,,,-99.99,1.0,HOBO +U30 +Weather +,2013-04-15 01:56:00,
2013-04-14 21:57:00,38.4,29.3,-100.00,North,-999,-999.0,-999.0,69,-99.99,,,-99.99,1.0,HOBO +U30 +Weather +,2013-04-15 01:57:00,
2013-04-14 21:58:00,38.5,29.3,-100.00,North,-999,-999.0,-999.0,69,-99.99,,,-99.99,1.0,HOBO +U30 +Weather +,2013-04-15 01:58:00,
2013-04-14 21:59:00,38.5,29.3,-100.00,North,-999,-999.0,-999.0,69,-99.99,,,-99.99,1.0,HOBO +U30 +Weather +,2013-04-15 01:59:00,
2013-04-14 22:00:00,38.5,29.3,-100.00,North,-999,-999.0,-999.0,69,-99.99,,,-99.99,1.0,HOBO +U30 +Weather +,2013-04-15 02:00:00,
2013-04-14 22:01:00,38.4,29.4,-100.00,North,-999,-999.0,-999.0,69,-99.99,,,-99.99,1.0,HOBO +U30 +Weather +,2013-04-15 02:01:00,
2013-04-14 22:02:00,38.3,29.3,-100.00,North,-999,-999.0,-999.0,69,-99.99,,,-99.99,1.0,HOBO +U30 +Weather +,2013-04-15 02:02:00,
2013-04-14 22:03:00,38.2,29.3,-100.00,North,-999,-999.0,-999.0,69,-99.99,,,-99.99,1.0,HOBO +U30 +Weather +,2013-04-15 02:03:00,
2013-04-14 22:04:00,38.1,29.2,-100.00,North,-999,-999.0,-999.0,69,-99.99,,,-99.99,1.0,HOBO +U30 +Weather +,2013-04-15 02:04:00,
2013-04-14 22:05:00,38.1,29.3,-100.00,North,-999,-999.0,-999.0,70,-99.99,,,-99.99,1.0,HOBO +U30 +Weather +,2013-04-15 02:05:00,
2013-04-14 22:06:00,38.0,29.2,-100.00,North,-999,-999.0,-999.0,70,-99.99,,,-99.99,1.0,HOBO +U30 +Weather +,2013-04-15 02:06:00,
2013-04-14 22:07:00,38.0,29.2,-100.00,North,-999,-999.0,-999.0,70,-99.99,,,-99.99,1.0,HOBO +U30 +Weather +,2013-04-15 02:07:00,
2013-04-14 22:08:00,38.1,29.3,-100.00,North,-999,-999.0,-999.0,70,-99.99,,,-99.99,1.0,HOBO +U30 +Weather +,2013-04-15 02:08:00,
2013-04-14 22:09:00,38.0,29.3,-100.00,North,-999,-999.0,-999.0,70,-99.99,,,-99.99,1.0,HOBO +U30 +Weather +,2013-04-15 02:09:00,
2013-04-14 22:10:00,37.9,29.1,-100.00,North,-999,-999.0,-999.0,70,-99.99,,,-99.99,1.0,HOBO +U30 +Weather +,2013-04-15 02:10:00,
2013-04-14 22:11:00,37.9,29.1,-100.00,North,-999,-999.0,-999.0,70,-99.99,,,-99.99,1.0,HOBO +U30 +Weather +,2013-04-15 02:11:00,
2013-04-14 22:12:00,37.8,29.1,-100.00,North,-999,-999.0,-999.0,70,-99.99,,,-99.99,1.0,HOBO +U30 +Weather +,2013-04-15 02:12:00,
2013-04-14 22:13:00,37.7,29.0,-100.00,North,-999,-999.0,-999.0,70,-99.99,,,-99.99,1.0,HOBO +U30 +Weather +,2013-04-15 02:13:00,
2013-04-14 22:14:00,37.5,29.0,-100.00,North,-999,-999.0,-999.0,71,-99.99,,,-99.99,1.0,HOBO +U30 +Weather +,2013-04-15 02:14:00,
2013-04-14 22:15:00,37.4,28.9,-100.00,North,-999,-999.0,-999.0,71,-99.99,,,-99.99,1.0,HOBO +U30 +Weather +,2013-04-15 02:15:00,
2013-04-14 22:16:00,37.3,28.9,-100.00,North,-999,-999.0,-999.0,71,-99.99,,,-99.99,1.0,HOBO +U30 +Weather +,2013-04-15 02:16:00,
2013-04-14 22:17:00,37.1,28.9,-100.00,North,-999,-999.0,-999.0,71,-99.99,,,-99.99,1.0,HOBO +U30 +Weather +,2013-04-15 02:17:00,
2013-04-14 22:18:00,37.1,28.9,-100.00,North,-999,-999.0,-999.0,72,-99.99,,,-99.99,1.0,HOBO +U30 +Weather +,2013-04-15 02:18:00,
2013-04-14 22:19:00,37.0,28.9,-100.00,North,-999,-999.0,-999.0,72,-99.99,,,-99.99,1.0,HOBO +U30 +Weather +,2013-04-15 02:19:00,
2013-04-14 22:20:00,36.9,28.8,-100.00,North,-999,-999.0,-999.0,72,-99.99,,,-99.99,1.0,HOBO +U30 +Weather +,2013-04-15 02:20:00,
2013-04-14 22:21:00,36.8,28.8,-100.00,North,-999,-999.0,-999.0,72,-99.99,,,-99.99,1.0,HOBO +U30 +Weather +,2013-04-15 02:21:00,
2013-04-14 22:22:00,36.6,28.8,-100.00,North,-999,-999.0,-999.0,72,-99.99,,,-99.99,1.0,HOBO +U30 +Weather +,2013-04-15 02:22:00,
2013-04-14 22:23:00,36.6,28.8,-100.00,North,-999,-999.0,-999.0,73,-99.99,,,-99.99,1.0,HOBO +U30 +Weather +,2013-04-15 02:23:00,
2013-04-14 22:24:00,36.5,28.7,-100.00,North,-999,-999.0,-999.0,73,-99.99,,,-99.99,1.0,HOBO +U30 +Weather +,2013-04-15 02:24:00,
2013-04-14 22:25:00,36.4,28.7,-100.00,North,-999,-999.0,-999.0,73,-99.99,,,-99.99,1.0,HOBO +U30 +Weather +,2013-04-15 02:25:00,
2013-04-14 22:26:00,36.4,28.8,-100.00,North,-999,-999.0,-999.0,73,-99.99,,,-99.99,1.0,HOBO +U30 +Weather +,2013-04-15 02:26:00,
2013-04-14 22:27:00,36.4,28.6,-100.00,North,-999,-999.0,-999.0,73,-99.99,,,-99.99,1.0,HOBO +U30 +Weather +,2013-04-15 02:27:00,
2013-04-14 22:28:00,36.3,28.7,-100.00,North,-999,-999.0,-999.0,73,-99.99,,,-99.99,1.0,HOBO +U30 +Weather +,2013-04-15 02:28:00,
2013-04-14 22:29:00,36.3,28.7,-100.00,North,-999,-999.0,-999.0,73,-99.99,,,-99.99,1.0,HOBO +U30 +Weather +,2013-04-15 02:29:00,
2013-04-14 22:30:00,36.2,28.6,-100.00,North,-999,-999.0,-999.0,73,-99.99,,,-99.99,1.0,HOBO +U30 +Weather +,2013-04-15 02:30:00,
2013-04-14 22:31:00,36.1,28.7,-100.00,North,-999,-999.0,-999.0,74,-99.99,,,-99.99,1.0,HOBO +U30 +Weather +,2013-04-15 02:31:00,
2013-04-14 22:32:00,36.0,28.6,-100.00,North,-999,-999.0,-999.0,74,-99.99,,,-99.99,1.0,HOBO +U30 +Weather +,2013-04-15 02:32:00,
2013-04-14 22:33:00,35.9,28.5,-100.00,North,-999,-999.0,-999.0,74,-99.99,,,-99.99,1.0,HOBO +U30 +Weather +,2013-04-15 02:33:00,
2013-04-14 22:34:00,35.7,28.4,-100.00,North,-999,-999.0,-999.0,74,-99.99,,,-99.99,1.0,HOBO +U30 +Weather +,2013-04-15 02:34:00,
2013-04-14 22:35:00,35.6,28.3,-100.00,North,-999,-999.0,-999.0,74,-99.99,,,-99.99,1.0,HOBO +U30 +Weather +,2013-04-15 02:35:00,
2013-04-14 22:36:00,35.5,28.3,-100.00,North,-999,-999.0,-999.0,74,-99.99,,,-99.99,1.0,HOBO +U30 +Weather +,2013-04-15 02:36:00,
2013-04-14 22:37:00,35.5,28.3,-100.00,North,-999,-999.0,-999.0,74,-99.99,,,-99.99,1.0,HOBO +U30 +Weather +,2013-04-15 02:37:00,
2013-04-14 22:38:00,35.4,28.3,-100.00,North,-999,-999.0,-999.0,75,-99.99,,,-99.99,1.0,HOBO +U30 +Weather +,2013-04-15 02:38:00,
2013-04-14 22:39:00,35.3,28.3,-100.00,North,-999,-999.0,-999.0,75,-99.99,,,-99.99,1.0,HOBO +U30 +Weather +,2013-04-15 02:39:00,
2013-04-14 22:40:00,35.2,28.3,-100.00,North,-999,-999.0,-999.0,75,-99.99,,,-99.99,1.0,HOBO +U30 +Weather +,2013-04-15 02:40:00,
2013-04-14 22:41:00,35.2,28.3,-100.00,North,-999,-999.0,-999.0,75,-99.99,,,-99.99,1.0,HOBO +U30 +Weather +,2013-04-15 02:41:00,
2013-04-14 22:42:00,35.1,28.2,-100.00,North,-999,-999.0,-999.0,75,-99.99,,,-99.99,1.0,HOBO +U30 +Weather +,2013-04-15 02:42:00,
2013-04-14 22:43:00,35.0,28.2,-100.00,North,-999,-999.0,-999.0,76,-99.99,,,-99.99,1.0,HOBO +U30 +Weather +,2013-04-15 02:43:00,
2013-04-14 22:44:00,35.0,28.4,-100.00,North,-999,-999.0,-999.0,76,-99.99,,,-99.99,1.0,HOBO +U30 +Weather +,2013-04-15 02:44:00,
2013-04-14 22:45:00,35.1,28.3,-100.00,North,-999,-999.0,-999.0,76,-99.99,,,-99.99,1.0,HOBO +U30 +Weather +,2013-04-15 02:45:00,
2013-04-14 22:46:00,35.0,28.3,-100.00,North,-999,-999.0,-999.0,76,-99.99,,,-99.99,1.0,HOBO +U30 +Weather +,2013-04-15 02:46:00,
2013-04-14 22:47:00,34.9,28.1,-100.00,North,-999,-999.0,-999.0,75,-99.99,,,-99.99,1.0,HOBO +U30 +Weather +,2013-04-15 02:47:00,
2013-04-14 22:48:00,34.9,28.1,-100.00,North,-999,-999.0,-999.0,76,-99.99,,,-99.99,1.0,HOBO +U30 +Weather +,2013-04-15 02:48:00,
2013-04-14 22:49:00,34.8,28.1,-100.00,North,-999,-999.0,-999.0,76,-99.99,,,-99.99,1.0,HOBO +U30 +Weather +,2013-04-15 02:49:00,
2013-04-14 22:50:00,34.8,28.2,-100.00,North,-999,-999.0,-999.0,76,-99.99,,,-99.99,1.0,HOBO +U30 +Weather +,2013-04-15 02:50:00,
2013-04-14 22:51:00,34.8,28.2,-100.00,North,-999,-999.0,-999.0,76,-99.99,,,-99.99,1.0,HOBO +U30 +Weather +,2013-04-15 02:51:00,
2013-04-14 22:52:00,34.8,28.2,-100.00,North,-999,-999.0,-999.0,76,-99.99,,,-99.99,1.0,HOBO +U30 +Weather +,2013-04-15 02:52:00,
2013-04-14 22:53:00,34.7,28.2,-100.00,North,-999,-999.0,-999.0,76,-99.99,,,-99.99,1.0,HOBO +U30 +Weather +,2013-04-15 02:53:00,
2013-04-14 22:54:00,34.6,28.1,-100.00,North,-999,-999.0,-999.0,76,-99.99,,,-99.99,1.0,HOBO +U30 +Weather +,2013-04-15 02:54:00,
2013-04-14 22:55:00,34.6,28.2,-100.00,North,-999,-999.0,-999.0,77,-99.99,,,-99.99,1.0,HOBO +U30 +Weather +,2013-04-15 02:55:00,
2013-04-14 22:56:00,34.5,28.1,-100.00,North,-999,-999.0,-999.0,77,-99.99,,,-99.99,1.0,HOBO +U30 +Weather +,2013-04-15 02:56:00,
2013-04-14 22:57:00,34.4,27.9,-100.00,North,-999,-999.0,-999.0,76,-99.99,,,-99.99,1.0,HOBO +U30 +Weather +,2013-04-15 02:57:00,
2013-04-14 22:58:00,34.3,27.8,-100.00,North,-999,-999.0,-999.0,76,-99.99,,,-99.99,1.0,HOBO +U30 +Weather +,2013-04-15 02:58:00,
2013-04-14 22:59:00,34.2,27.7,-100.00,North,-999,-999.0,-999.0,77,-99.99,,,-99.99,1.0,HOBO +U30 +Weather +,2013-04-15 02:59:00,
2013-04-14 23:00:00,34.1,27.7,-100.00,North,-999,-999.0,-999.0,77,-99.99,,,-99.99,1.0,HOBO +U30 +Weather +,2013-04-15 03:00:00,
2013-04-14 23:01:00,34.0,27.7,-100.00,North,-999,-999.0,-999.0,77,-99.99,,,-99.99,1.0,HOBO +U30 +Weather +,2013-04-15 03:01:00,
2013-04-14 23:02:00,33.9,27.7,-100.00,North,-999,-999.0,-999.0,77,-99.99,,,-99.99,1.0,HOBO +U30 +Weather +,2013-04-15 03:02:00,
2013-04-14 23:03:00,34.0,27.9,-100.00,North,-999,-999.0,-999.0,78,-99.99,,,-99.99,1.0,HOBO +U30 +Weather +,2013-04-15 03:03:00,
2013-04-14 23:04:00,34.0,27.8,-100.00,North,-999,-999.0,-999.0,78,-99.99,,,-99.99,1.0,HOBO +U30 +Weather +,2013-04-15 03:04:00,
2013-04-14 23:05:00,33.9,27.9,-100.00,North,-999,-999.0,-999.0,78,-99.99,,,-99.99,1.0,HOBO +U30 +Weather +,2013-04-15 03:05:00,
2013-04-14 23:06:00,33.9,27.8,-100.00,North,-999,-999.0,-999.0,78,-99.99,,,-99.99,1.0,HOBO +U30 +Weather +,2013-04-15 03:06:00,
2013-04-14 23:07:00,33.8,27.8,-100.00,North,-999,-999.0,-999.0,78,-99.99,,,-99.99,1.0,HOBO +U30 +Weather +,2013-04-15 03:07:00,
2013-04-14 23:08:00,33.8,27.8,-100.00,North,-999,-999.0,-999.0,78,-99.99,,,-99.99,1.0,HOBO +U30 +Weather +,2013-04-15 03:08:00,
2013-04-14 23:09:00,33.8,27.8,-100.00,North,-999,-999.0,-999.0,78,-99.99,,,-99.99,1.0,HOBO +U30 +Weather +,2013-04-15 03:09:00,
2013-04-14 23:10:00,33.7,27.7,-100.00,North,-999,-999.0,-999.0,78,-99.99,,,-99.99,1.0,HOBO +U30 +Weather +,2013-04-15 03:10:00,
2013-04-14 23:11:00,33.7,27.7,-100.00,North,-999,-999.0,-999.0,78,-99.99,,,-99.99,1.0,HOBO +U30 +Weather +,2013-04-15 03:11:00,
2013-04-14 23:12:00,33.7,27.7,-100.00,North,-999,-999.0,-999.0,78,-99.99,,,-99.99,1.0,HOBO +U30 +Weather +,2013-04-15 03:12:00,
2013-04-14 23:13:00,33.7,27.7,-100.00,North,-999,-999.0,-999.0,78,-99.99,,,-99.99,1.0,HOBO +U30 +Weather +,2013-04-15 03:13:00,
2013-04-14 23:14:00,33.6,27.7,-100.00,North,-999,-999.0,-999.0,78,-99.99,,,-99.99,1.0,HOBO +U30 +Weather +,2013-04-15 03:14:00,
2013-04-14 23:15:00,33.6,27.7,-100.00,North,-999,-999.0,-999.0,78,-99.99,,,-99.99,1.0,HOBO +U30 +Weather +,2013-04-15 03:15:00,
2013-04-14 23:16:00,33.6,27.7,-100.00,North,-999,-999.0,-999.0,78,-99.99,,,-99.99,1.0,HOBO +U30 +Weather +,2013-04-15 03:16:00,
2013-04-14 23:17:00,33.5,27.6,-100.00,North,-999,-999.0,-999.0,78,-99.99,,,-99.99,1.0,HOBO +U30 +Weather +,2013-04-15 03:17:00,
2013-04-14 23:18:00,33.5,27.6,-100.00,North,-999,-999.0,-999.0,78,-99.99,,,-99.99,1.0,HOBO +U30 +Weather +,2013-04-15 03:18:00,
2013-04-14 23:19:00,33.4,27.5,-100.00,North,-999,-999.0,-999.0,78,-99.99,,,-99.99,1.0,HOBO +U30 +Weather +,2013-04-15 03:19:00,
2013-04-14 23:20:00,33.4,27.6,-100.00,North,-999,-999.0,-999.0,78,-99.99,,,-99.99,1.0,HOBO +U30 +Weather +,2013-04-15 03:20:00,
2013-04-14 23:21:00,33.3,27.4,-100.00,North,-999,-999.0,-999.0,78,-99.99,,,-99.99,1.0,HOBO +U30 +Weather +,2013-04-15 03:21:00,
2013-04-14 23:22:00,33.2,27.4,-100.00,North,-999,-999.0,-999.0,78,-99.99,,,-99.99,1.0,HOBO +U30 +Weather +,2013-04-15 03:22:00,
2013-04-14 23:23:00,33.1,27.3,-100.00,North,-999,-999.0,-999.0,79,-99.99,,,-99.99,1.0,HOBO +U30 +Weather +,2013-04-15 03:23:00,
2013-04-14 23:24:00,33.0,27.3,-100.00,North,-999,-999.0,-999.0,79,-99.99,,,-99.99,1.0,HOBO +U30 +Weather +,2013-04-15 03:24:00,
2013-04-14 23:25:00,32.9,27.3,-100.00,North,-999,-999.0,-999.0,79,-99.99,,,-99.99,1.0,HOBO +U30 +Weather +,2013-04-15 03:25:00,
2013-04-14 23:26:00,32.9,27.2,-100.00,North,-999,-999.0,-999.0,79,-99.99,,,-99.99,1.0,HOBO +U30 +Weather +,2013-04-15 03:26:00,
2013-04-14 23:27:00,32.8,27.3,-100.00,North,-999,-999.0,-999.0,79,-99.99,,,-99.99,1.0,HOBO +U30 +Weather +,2013-04-15 03:27:00,
2013-04-14 23:28:00,32.8,27.3,-100.00,North,-999,-999.0,-999.0,79,-99.99,,,-99.99,1.0,HOBO +U30 +Weather +,2013-04-15 03:28:00,
2013-04-14 23:29:00,32.7,27.2,-100.00,North,-999,-999.0,-999.0,79,-99.99,,,-99.99,1.0,HOBO +U30 +Weather +,2013-04-15 03:29:00,
2013-04-14 23:30:00,32.7,27.1,-100.00,North,-999,-999.0,-999.0,79,-99.99,,,-99.99,1.0,HOBO +U30 +Weather +,2013-04-15 03:30:00,
2013-04-14 23:31:00,32.6,27.2,-100.00,North,-999,-999.0,-999.0,80,-99.99,,,-99.99,1.0,HOBO +U30 +Weather +,2013-04-15 03:31:00,
2013-04-14 23:32:00,32.5,27.1,-100.00,North,-999,-999.0,-999.0,80,-99.99,,,-99.99,1.0,HOBO +U30 +Weather +,2013-04-15 03:32:00,
2013-04-14 23:33:00,32.5,27.1,-100.00,North,-999,-999.0,-999.0,80,-99.99,,,-99.99,1.0,HOBO +U30 +Weather +,2013-04-15 03:33:00,
2013-04-14 23:34:00,32.5,27.1,-100.00,North,-999,-999.0,-999.0,80,-99.99,,,-99.99,1.0,HOBO +U30 +Weather +,2013-04-15 03:34:00,
2013-04-14 23:35:00,32.5,27.1,-100.00,North,-999,-999.0,-999.0,80,-99.99,,,-99.99,1.0,HOBO +U30 +Weather +,2013-04-15 03:35:00,
2013-04-14 23:36:00,32.5,27.1,-100.00,North,-999,-999.0,-999.0,80,-99.99,,,-99.99,1.0,HOBO +U30 +Weather +,2013-04-15 03:36:00,
2013-04-14 23:37:00,32.5,27.0,-100.00,North,-999,-999.0,-999.0,80,-99.99,,,-99.99,1.0,HOBO +U30 +Weather +,2013-04-15 03:37:00,
2013-04-14 23:38:00,32.4,27.0,-100.00,North,-999,-999.0,-999.0,80,-99.99,,,-99.99,1.0,HOBO +U30 +Weather +,2013-04-15 03:38:00,
2013-04-14 23:39:00,32.3,26.9,-100.00,North,-999,-999.0,-999.0,80,-99.99,,,-99.99,1.0,HOBO +U30 +Weather +,2013-04-15 03:39:00,
2013-04-14 23:40:00,32.2,26.9,-100.00,North,-999,-999.0,-999.0,80,-99.99,,,-99.99,1.0,HOBO +U30 +Weather +,2013-04-15 03:40:00,
2013-04-14 23:41:00,32.1,26.8,-100.00,North,-999,-999.0,-999.0,80,-99.99,,,-99.99,1.0,HOBO +U30 +Weather +,2013-04-15 03:41:00,
2013-04-14 23:42:00,32.0,26.7,-100.00,North,-999,-999.0,-999.0,80,-99.99,,,-99.99,1.0,HOBO +U30 +Weather +,2013-04-15 03:42:00,
2013-04-14 23:43:00,31.9,26.7,-100.00,North,-999,-999.0,-999.0,80,-99.99,,,-99.99,1.0,HOBO +U30 +Weather +,2013-04-15 03:43:00,
2013-04-14 23:44:00,31.9,26.7,-100.00,North,-999,-999.0,-999.0,80,-99.99,,,-99.99,1.0,HOBO +U30 +Weather +,2013-04-15 03:44:00,
2013-04-14 23:45:00,31.8,26.7,-100.00,North,-999,-999.0,-999.0,81,-99.99,,,-99.99,1.0,HOBO +U30 +Weather +,2013-04-15 03:45:00,
2013-04-14 23:46:00,31.7,26.6,-100.00,North,-999,-999.0,-999.0,81,-99.99,,,-99.99,1.0,HOBO +U30 +Weather +,2013-04-15 03:46:00,
2013-04-14 23:47:00,31.7,26.7,-100.00,North,-999,-999.0,-999.0,81,-99.99,,,-99.99,1.0,HOBO +U30 +Weather +,2013-04-15 03:47:00,
2013-04-14 23:48:00,31.6,26.6,-100.00,North,-999,-999.0,-999.0,81,-99.99,,,-99.99,1.0,HOBO +U30 +Weather +,2013-04-15 03:48:00,
2013-04-14 23:49:00,31.6,26.6,-100.00,North,-999,-999.0,-999.0,81,-99.99,,,-99.99,1.0,HOBO +U30 +Weather +,2013-04-15 03:49:00,
2013-04-14 23:50:00,31.6,26.7,-100.00,North,-999,-999.0,-999.0,81,-99.99,,,-99.99,1.0,HOBO +U30 +Weather +,2013-04-15 03:50:00,
2013-04-14 23:51:00,31.6,26.7,-100.00,North,-999,-999.0,-999.0,81,-99.99,,,-99.99,1.0,HOBO +U30 +Weather +,2013-04-15 03:51:00,
2013-04-14 23:52:00,31.7,26.8,-100.00,North,-999,-999.0,-999.0,81,-99.99,,,-99.99,1.0,HOBO +U30 +Weather +,2013-04-15 03:52:00,
2013-04-14 23:53:00,31.6,26.7,-100.00,North,-999,-999.0,-999.0,81,-99.99,,,-99.99,1.0,HOBO +U30 +Weather +,2013-04-15 03:53:00,
2013-04-14 23:54:00,31.6,26.7,-100.00,North,-999,-999.0,-999.0,81,-99.99,,,-99.99,1.0,HOBO +U30 +Weather +,2013-04-15 03:54:00,
2013-04-14 23:55:00,31.6,26.7,-100.00,North,-999,-999.0,-999.0,81,-99.99,,,-99.99,1.0,HOBO +U30 +Weather +,2013-04-15 03:55:00,
2013-04-14 23:56:00,31.6,26.6,-100.00,North,-999,-999.0,-999.0,81,-99.99,,,-99.99,1.0,HOBO +U30 +Weather +,2013-04-15 03:56:00,
2013-04-14 23:57:00,31.6,26.7,-100.00,North,-999,-999.0,-999.0,81,-99.99,,,-99.99,1.0,HOBO +U30 +Weather +,2013-04-15 03:57:00,
2013-04-14 23:58:00,31.6,26.6,-100.00,North,-999,-999.0,-999.0,81,-99.99,,,-99.99,1.0,HOBO +U30 +Weather +,2013-04-15 03:58:00,
2013-04-14 23:59:00,31.5,26.6,-100.00,North,-999,-999.0,-999.0,81,-99.99,,,-99.99,1.0,HOBO +U30 +Weather +,2013-04-15 03:59:00,